[[{"header":{"parameterUnit":"m.s-1","parameterCategory":1,"la1":31.0,"la2":29.5877,"lo1":-88.7671,"lo2":-86.6584,"dy":0.0162,"dx":0.0185,"nx":115,"ny":88,"refTime":"2024-07-31T00:00:00:Z","depth":0,"parameterNumber":2,"parameterNumberName":"U-component_of_WINDS"},"data":[0.0,0.0,0.0,0.0,0.0,0.0,0.0,0.0,0.0,0.0,0.0,0.0,0.0,0.0,0.0,0.0,0.0,0.0,0.0,0.0,0.0,0.0,0.0,0.0,0.0,0.0,0.0,0.0,0.0,0.0,0.0,0.0,0.0,0.0,0.0,0.0,0.0,0.0,0.0,0.0,0.0,0.0,0.0,0.0,0.0,0.0,0.0,0.0,0.0,0.0,0.0,0.0,0.0,0.0,0.0,0.0,0.0,0.0,0.0,0.0,0.0,0.0,0.0,0.0,0.0,0.0,0.0,0.0,0.0,0.0,0.0,0.0,0.0,0.0,0.0,0.0,0.0,0.0,0.0,0.0,0.0,0.0,0.0,0.0,0.0,0.0,0.0,0.0,0.0,0.0,0.0,0.0,0.0,0.0,0.0,0.0,0.0,0.0,0.0,0.0,0.0,0.0,0.0,0.0,0.0,0.0,0.0,0.0,0.0,0.0,0.0,0.0,0.0,0.0,0.0,0.0,0.0,0.0,0.0,0.0,0.0,0.0,0.0,0.0,0.0,0.0,0.0,0.0,0.0,0.0,0.0,0.0,0.0,0.0,0.0,0.0,0.0,0.0,0.0,0.0,0.0,0.0,0.0,0.0,0.0,0.0,0.0,0.0,0.0,0.0,0.0,0.0,0.0,0.0,0.0,0.0,0.0,0.0,0.0,0.0,0.0,0.0,0.0,0.0,0.0,0.0,0.0,0.0,0.0,0.0,0.0,0.0,0.0,0.0,0.0,0.0,0.0,0.0,0.0,0.0,0.0,0.0,0.0,0.0,0.0,0.0,0.0,0.0,0.0,0.0,0.0,0.0,0.0,0.0,0.0,0.0,0.0,0.0,0.0,0.0,0.0,0.0,0.0,0.0,0.0,0.0,0.0,0.0,0.0,0.0,0.0,0.0,0.0,0.0,0.0,0.0,0.0,0.0,0.0,0.0,0.0,0.0,0.0,0.0,0.0,0.0,0.0,0.0,0.0,0.0,0.0,0.0,0.0,0.0,0.0,0.0,0.0,0.0,0.0,0.0,0.0,0.0,0.0,0.0,0.0,0.0,0.0,0.0,0.0,0.0,0.0,0.0,0.0,0.0,0.0,0.0,0.0,0.0,0.0,0.0,0.0,0.0,0.0,0.0,0.0,0.0,0.0,0.0,0.0,0.0,0.0,0.0,0.0,0.0,0.0,0.0,0.0,0.0,0.0,0.0,0.0,0.0,0.0,0.0,0.0,0.0,0.0,0.0,0.0,0.0,0.0,0.0,0.0,0.0,0.0,0.0,0.0,0.0,0.0,0.0,0.0,0.0,0.0,0.0,0.0,0.0,0.0,0.0,0.0,0.0,0.0,0.0,0.0,0.0,0.0,0.0,0.0,0.0,0.0,0.0,0.0,0.0,0.0,0.0,0.0,0.0,0.0,0.0,0.0,0.0,0.0,0.0,0.0,0.0,0.0,0.0,0.0,0.0,0.0,0.0,0.0,0.0,0.0,0.0,0.0,0.0,0.0,0.0,0.0,0.0,0.0,0.0,0.0,0.0,0.0,0.0,0.0,0.0,0.0,0.0,0.0,0.0,0.0,0.0,0.0,0.0,0.0,0.0,0.0,0.0,0.0,0.0,0.0,0.0,0.0,0.0,0.0,0.0,0.0,0.0,0.0,0.0,0.0,0.0,0.0,0.0,0.0,0.0,0.0,0.0,0.0,0.0,0.0,0.0,0.0,0.0,0.0,0.0,0.0,0.0,0.0,0.0,0.0,0.0,0.0,0.0,0.0,0.0,0.0,0.0,0.0,0.0,0.0,0.0,0.0,0.0,0.0,0.0,0.0,0.0,0.0,0.0,0.0,0.0,0.0,0.0,0.0,0.0,0.0,0.0,0.0,0.0,0.0,0.0,0.0,0.0,0.0,0.0,0.0,0.0,0.0,0.0,0.0,0.0,0.0,0.0,0.0,0.0,0.0,0.0,0.0,0.0,0.0,0.0,0.0,0.0,0.0,0.0,0.0,0.0,0.0,0.0,0.0,0.0,0.0,0.0,0.0,0.0,0.0,0.0,0.0,0.0,0.0,0.0,0.0,0.0,0.0,0.0,0.0,0.0,0.0,0.0,0.0,0.0,0.0,0.0,0.0,0.0,0.0,0.0,0.0,0.0,0.0,0.0,0.0,0.0,0.0,0.0,0.0,0.0,0.0,0.0,0.0,0.0,0.0,0.0,0.0,0.0,0.0,0.0,0.0,0.0,0.0,0.0,0.0,0.0,0.0,0.0,0.0,0.0,0.0,0.0,0.0,0.0,0.0,0.0,0.0,0.0,0.0,0.0,0.0,0.0,0.0,0.0,0.0,0.0,0.0,0.0,0.0,0.0,0.0,0.0,0.0,0.0,0.0,0.0,0.0,0.0,0.0,0.0,0.0,0.0,0.0,0.0,0.0,0.0,0.0,0.0,0.0,0.0,0.0,0.0,0.0,0.0,0.0,0.0,0.0,0.0,0.0,0.0,0.0,0.0,0.0,0.0,0.0,0.0,0.0,0.0,0.0,0.0,0.0,0.0,0.0,0.0,0.0,0.0,0.0,0.0,0.0,0.0,0.0,0.0,0.0,0.0,0.0,0.0,0.0,0.0,0.0,0.0,0.0,0.0,0.0,0.0,0.0,0.0,0.0,0.0,0.0,0.0,0.0,0.0,0.0,0.0,0.0,0.0,0.0,0.0,0.0,0.0,0.0,0.0,0.0,0.0,0.0,0.0,0.0,0.0,0.0,0.0,0.0,0.0,0.0,0.0,0.0,0.0,0.0,0.0,0.0,0.0,0.0,0.0,0.0,0.0,0.0,0.0,0.0,0.0,0.0,0.0,0.0,0.0,0.0,0.0,0.0,0.0,0.0,0.0,0.0,0.0,0.0,0.0,0.0,0.0,0.0,0.0,0.0,0.0,0.0,0.0,0.0,0.0,0.0,0.0,0.0,0.0,0.0,0.0,0.0,0.0,0.0,0.0,0.0,0.0,0.0,0.0,0.0,0.0,0.0,0.0,0.0,0.0,0.0,0.0,0.0,0.0,0.0,0.0,0.0,0.0,0.0,0.0,0.0,0.0,0.0,0.0,0.0,0.0,0.0,0.0,0.0,0.0,0.0,0.0,0.0,0.0,0.0,0.0,0.0,0.0,0.0,0.0,0.0,0.0,0.0,0.0,0.0,0.0,0.0,0.0,0.0,0.0,0.0,0.0,0.0,0.0,0.0,0.0,0.0,0.0,0.0,0.0,0.0,0.0,0.0,0.0,0.0,0.0,0.0,0.0,0.0,0.0,0.0,0.0,0.0,0.0,0.0,0.0,0.0,0.0,0.0,0.0,0.0,0.0,0.0,0.0,0.0,0.0,0.0,0.0,0.0,0.0,0.0,0.0,0.0,0.0,0.0,0.0,0.0,0.0,0.0,0.0,0.0,0.0,0.0,0.0,0.0,0.0,0.0,0.0,0.0,0.0,0.0,0.0,0.0,0.0,0.0,0.0,0.0,0.0,0.0,0.0,0.0,0.0,0.0,0.0,0.0,0.0,0.0,0.0,0.0,0.0,0.0,0.0,0.0,0.0,0.0,0.0,0.0,0.0,0.0,0.0,0.0,0.0,0.0,0.0,0.0,0.0,0.0,0.0,0.0,0.0,0.0,0.0,0.0,0.0,0.0,0.0,0.0,0.0,0.0,0.0,0.0,0.0,0.0,0.0,0.0,0.0,0.0,0.0,0.0,0.0,0.0,0.0,0.0,0.0,0.0,0.0,0.0,0.0,0.0,0.0,0.0,0.0,0.0,0.0,0.0,0.0,0.0,0.0,0.0,0.0,0.0,0.0,0.0,0.0,0.0,0.0,0.0,0.0,0.0,0.0,0.0,0.0,0.0,0.0,0.0,0.0,0.0,0.0,0.0,0.0,0.0,0.0,0.0,0.0,0.0,0.0,0.0,0.0,0.0,0.0,0.0,0.0,0.0,0.0,0.0,0.0,0.0,0.0,0.0,0.0,0.0,0.0,0.0,0.0,0.0,0.0,0.0,0.0,0.0,0.0,0.0,0.0,0.0,0.0,0.0,0.0,0.0,0.0,0.0,0.0,0.0,0.0,0.0,0.0,0.0,0.0,0.0,0.0,0.0,0.0,0.0,0.0,0.0,0.0,0.0,0.0,0.0,0.0,0.0,0.0,0.0,0.0,0.0,0.0,0.0,0.0,0.0,0.0,0.0,0.0,0.0,0.0,0.0,0.0,-0.6625,0.0,0.0,0.0,0.0,0.0,0.0,0.0,0.0,0.0,0.0,0.0,0.0,0.0,0.0,0.0,0.0,0.0,0.0,0.0,0.0,0.0,0.0,0.0,0.0,0.0,0.0,0.0,0.0,0.0,0.0,0.0,0.0,0.0,0.0,0.0,0.0,0.0,0.0,0.0,0.0,0.0,0.0,0.0,0.0,0.0,0.0,0.0,0.0,0.0,0.0,0.0,0.0,0.0,0.0,0.0,0.0,0.0,0.0,0.0,0.0,0.0,0.0,0.0,0.0,0.0,0.0,0.0,0.0,0.0,0.0,0.0,0.0,0.0,0.0,0.0,0.0,0.0,0.0,0.0,0.0,0.0,0.0,0.0,0.0,0.0,0.0,0.0,0.0,0.0,0.0,0.0,0.0,0.0,0.0,0.0,0.0,0.0,0.0,0.0,0.0,0.0,0.0,0.0,0.0,0.0,0.0,0.0,0.0,0.0,0.0,-0.1904,-0.541,-0.6236,-0.7697,-1.0021,0.0,0.0,0.0,0.0,0.0,0.0,0.0,0.0,0.0,0.0,0.0,0.0,0.0,0.0,0.0,0.0,0.0,0.0,0.0,0.0,0.0,0.0,0.0,0.0,0.0,0.0,0.0,0.0,0.0,0.0,0.0,0.0,0.0,0.0,0.0,0.0,0.0,0.0,0.0,0.0,0.0,0.0,0.0,0.0,0.0,0.0,0.0,0.0,0.0,0.0,0.0,0.0,0.0,0.0,0.0,0.0,0.0,0.0,0.0,0.0,0.0,0.0,0.0,0.0,0.0,0.0,0.0,0.0,0.0,0.0,0.0,0.0,0.0,0.0,0.0,0.0,0.0,0.0,0.0,0.0,0.0,0.0,0.0,0.0,0.0,0.0,0.0,0.0,0.0,0.0,0.0,0.0,0.0,0.0,0.0,0.0,0.0,0.0,0.0,0.0,0.0,0.0,0.0,0.0,0.0,0.0,0.0,0.0,0.0,0.0,0.0,0.0,-0.9782,-1.0878,-1.4054,0.0,0.0,0.0,0.0,0.0,0.0,0.0,0.0,0.0,0.0,0.0,0.0,0.0,0.0,0.0,0.0,0.0,0.0,0.0,0.0,0.0,0.0,0.0,0.0,0.0,0.0,0.0,0.0,0.0,0.0,0.0,0.0,0.0,0.0,0.0,0.0,0.0,0.0,0.0,0.0,0.0,0.0,0.0,0.0,0.0,0.0,0.0,0.0,0.0,0.0,0.0,0.0,0.0,0.0,0.0,0.0,0.0,0.0,0.0,0.0,0.0,0.0,0.0,0.0,0.0,0.0,0.0,0.0,0.0,0.0,0.0,0.0,0.0,0.0,0.0,0.0,0.0,0.0,0.0,0.0,0.0,0.0,0.0,0.0,0.0,0.0,0.0,0.0,0.0,0.0,0.0,0.0,0.0,0.0,0.0,0.0,0.0,0.0,0.0,0.0,0.0,0.0,0.0,0.0,0.0,0.0,0.0,0.0,0.0,0.0,-0.9974,-1.1361,-1.4091,0.0,-1.9377,0.0,0.0,0.0,0.0,0.0,0.0,0.0,0.0,0.0,0.0,0.0,0.0,0.0,0.0,0.0,0.0,0.0,0.0,0.0,0.0,0.0,0.0,0.0,0.0,0.0,0.0,0.0,0.0,0.0,0.0,0.0,0.0,0.0,0.0,0.0,0.0,0.0,0.0,0.0,0.0,0.0,0.0,0.0,0.0,0.0,0.0,0.0,0.0,0.0,0.0,0.0,0.0,0.0,0.0,0.0,0.0,0.0,0.0,0.0,0.0,0.0,0.0,0.0,0.0,0.0,0.0,0.0,0.0,0.0,0.0,0.0,0.0,0.0,0.0,0.0,0.0,0.0,0.0,0.0,0.0,0.0,0.0,0.0,0.0,0.0,0.0,0.0,0.0,0.0,0.0,0.0,0.0,0.0,0.0,0.0,0.0,0.0,0.0,0.0,0.0,0.0,0.0,0.0,0.0,0.0,0.0,0.0,0.0,0.0,0.0,-1.3229,-1.7373,-1.8327,-1.9042,0.0,0.0,0.0,0.0,0.0,0.0,0.0,0.0,0.0,0.0,0.0,0.0,0.0,0.0,0.0,0.0,0.0,0.0,0.0,0.0,0.0,0.0,0.0,0.0,0.0,0.0,0.0,0.0,0.0,0.0,0.0,0.0,0.0,0.0,0.0,0.0,0.0,0.0,0.0,0.0,0.0,0.0,0.0,0.0,0.0,0.0,0.0,0.0,0.0,0.0,0.0,0.0,0.0,0.0,0.0,0.0,0.0,0.0,0.0,0.0,0.0,0.0,0.0,0.0,0.0,0.0,0.0,0.0,0.0,0.0,0.0,0.0,0.0,0.0,0.0,0.0,0.0,0.0,0.0,0.0,0.0,0.0,0.0,0.0,0.0,0.0,0.0,0.0,0.0,0.0,0.0,0.0,0.0,0.0,0.0,0.0,0.0,0.0,0.0,0.0,0.0,0.0,0.0,0.0,0.0,0.0,0.0,0.0,0.0,0.0,-1.6904,-1.7003,-2.1598,-2.1392,-2.0483,-1.9186,0.0,0.0,0.0,0.0,0.0,0.0,0.0,0.0,0.0,0.0,0.0,0.0,0.0,0.0,0.0,0.0,0.0,0.0,0.0,0.0,0.0,0.0,0.0,0.0,0.0,0.0,0.0,0.0,0.0,0.0,0.0,0.0,0.0,0.0,0.0,0.0,0.0,0.0,0.0,0.0,0.0,0.0,0.0,0.0,0.0,0.0,0.0,0.0,0.0,0.0,0.0,0.0,0.0,0.0,0.0,0.0,0.0,0.0,0.0,0.0,0.0,0.0,0.0,0.0,0.0,0.0,0.0,0.0,0.0,0.0,0.0,0.0,0.0,0.0,0.0,0.0,0.0,0.0,0.0,0.0,0.0,0.0,0.0,0.0,0.0,0.0,0.0,0.0,0.0,0.0,0.0,0.0,0.0,0.0,0.0,0.0,0.0,0.0,0.0,0.0,0.0,0.0,0.0,0.0,0.0,0.0,0.0,0.0,-2.2636,-2.1697,-2.1719,-2.2804,-2.2796,-2.1593,0.0,0.0,0.0,0.0,0.0,0.0,0.0,0.0,0.0,0.0,0.0,0.0,0.0,0.0,0.0,0.0,0.0,0.0,0.0,0.0,0.0,0.0,0.0,0.0,0.0,0.0,0.0,0.0,0.0,0.0,0.0,0.0,0.0,0.0,0.0,0.0,0.0,0.0,0.0,0.0,0.0,0.0,0.0,0.0,0.0,0.0,0.0,0.0,0.0,0.0,0.0,0.0,0.0,0.0,0.0,0.0,0.0,0.0,0.0,0.0,0.0,0.0,0.0,0.0,0.0,0.0,0.0,0.0,0.0,0.0,0.0,0.0,0.0,0.0,0.0,0.0,0.0,0.0,0.0,0.0,0.0,0.0,0.0,0.0,0.0,0.0,0.0,0.0,0.0,0.0,0.0,0.0,0.0,0.0,0.0,0.0,0.0,0.0,0.0,0.0,0.0,0.0,0.0,0.0,0.0,0.0,0.0,0.0,0.0,-2.1273,-2.151,-2.2341,-2.3659,-2.1643,-2.0303,0.0,0.0,0.0,0.0,0.0,0.0,0.0,0.0,0.0,0.0,0.0,0.0,0.0,0.0,0.0,0.0,0.0,0.0,0.0,0.0,0.0,0.0,0.0,0.0,0.0,0.0,0.0,0.0,0.0,0.0,0.0,0.0,0.0,0.0,0.0,0.0,0.0,0.0,0.0,0.0,0.0,0.0,0.0,0.0,0.0,0.0,0.0,0.0,0.0,0.0,0.0,0.0,0.0,0.0,0.0,0.0,0.0,0.0,0.0,0.0,0.0,0.0,0.0,0.0,0.0,0.0,0.0,0.0,0.0,0.0,0.0,0.0,0.0,0.0,0.0,0.0,0.0,0.0,0.0,0.0,0.0,0.0,0.0,0.0,0.0,0.0,0.0,0.0,0.0,0.0,0.0,0.0,0.0,0.0,0.0,0.0,0.0,0.0,0.0,0.0,0.0,0.0,0.0,0.0,0.0,0.0,0.0,0.0,0.0,-2.1276,0.0,-2.2955,-2.3819,-2.1644,-2.0155,0.0,0.0,0.0,0.0,0.0,0.0,0.0,0.0,0.0,0.0,0.0,0.0,0.0,0.0,0.0,0.0,0.0,0.0,0.0,0.0,0.0,0.0,0.0,0.0,0.0,0.0,0.0,0.0,0.0,0.0,0.0,0.0,0.0,0.0,0.0,0.0,0.0,0.0,0.0,0.0,0.0,0.0,0.0,0.0,0.0,0.0,0.0,0.0,0.0,0.0,0.0,0.0,0.0,0.0,0.0,0.0,0.0,0.0,0.0,0.0,0.0,0.0,0.0,0.0,0.0,0.0,0.0,0.0,0.0,0.0,0.0,0.0,0.0,0.0,0.0,0.0,0.0,0.0,0.0,0.0,0.0,0.0,0.0,0.0,0.0,0.0,0.0,0.0,0.0,0.0,0.0,0.0,0.0,0.0,0.0,0.0,0.0,0.0,0.0,0.0,0.0,0.0,0.0,0.0,0.0,0.0,0.0,0.0,-2.128,-2.2974,-2.3791,-2.3866,-2.3242,-2.2942,-2.1335,0.0,0.0,0.0,0.0,0.0,0.0,0.0,0.0,0.0,0.0,0.0,0.0,0.0,0.0,0.0,0.0,0.0,0.0,0.0,0.0,0.0,0.0,0.0,0.0,0.0,0.0,0.0,0.0,0.0,0.0,0.0,0.0,0.0,0.0,0.0,0.0,0.0,0.0,0.0,0.0,0.0,0.0,0.0,0.0,0.0,0.0,0.0,0.0,0.0,0.0,0.0,0.0,0.0,0.0,0.0,0.0,0.0,0.0,0.0,0.0,0.0,0.0,0.0,0.0,0.0,0.0,0.0,0.0,0.0,0.0,0.0,0.0,0.0,0.0,0.0,0.0,0.0,0.0,0.0,0.0,0.0,0.0,0.0,0.0,0.0,0.0,0.0,0.0,0.0,0.0,0.0,0.0,0.0,0.0,0.0,0.0,0.0,0.0,0.0,0.0,0.0,0.0,0.0,0.0,0.0,0.0,0.0,0.0,0.0,-2.2076,-2.2948,-2.361,-2.3942,-2.2195,-2.0973,0.0,0.0,0.0,0.0,0.0,0.0,0.0,0.0,0.0,0.0,0.0,0.0,0.0,0.0,0.0,0.0,0.0,0.0,0.0,0.0,0.0,0.0,0.0,0.0,0.0,0.0,0.0,0.0,0.0,0.0,0.0,0.0,0.0,0.0,0.0,0.0,0.0,0.0,0.0,0.0,0.0,0.0,0.0,0.0,0.0,0.0,0.0,0.0,0.0,0.0,0.0,0.0,0.0,0.0,0.0,0.0,0.0,0.0,0.0,0.0,0.0,0.0,0.0,0.0,0.0,0.0,0.0,0.0,0.0,0.0,0.0,0.0,0.0,0.0,0.0,0.0,0.0,0.0,0.0,0.0,0.0,0.0,0.0,0.0,0.0,0.0,0.0,0.0,0.0,0.0,0.0,0.0,0.0,0.0,0.0,0.0,0.0,0.0,0.0,0.0,0.0,0.0,0.0,0.0,0.0,0.0,0.0,0.0,0.0,-2.2621,-2.3514,-2.4128,-2.4381,-2.241,-2.1269,-2.1082,0.0,0.0,0.0,0.0,0.0,0.0,0.0,0.0,0.0,0.0,0.0,0.0,0.0,0.0,0.0,0.0,0.0,0.0,0.0,0.0,0.0,0.0,0.0,0.0,0.0,0.0,0.0,0.0,0.0,0.0,0.0,0.0,0.0,0.0,0.0,0.0,0.0,0.0,0.0,0.0,0.0,0.0,0.0,0.0,0.0,0.0,0.0,0.0,0.0,0.0,0.0,0.0,0.0,0.0,0.0,0.0,0.0,0.0,0.0,0.0,0.0,0.0,0.0,0.0,0.0,0.0,0.0,0.0,0.0,0.0,0.0,0.0,0.0,0.0,0.0,0.0,0.0,0.0,0.0,0.0,0.0,0.0,0.0,0.0,0.0,0.0,0.0,0.0,0.0,0.0,0.0,0.0,0.0,0.0,0.0,0.0,0.0,0.0,0.0,0.0,0.0,0.0,0.0,0.0,0.0,0.0,0.0,0.0,-2.4195,-2.5174,-2.5281,-2.449,-2.3497,-2.2178,0.0,0.0,0.0,0.0,0.0,0.0,0.0,0.0,0.0,0.0,0.0,0.0,0.0,0.0,0.0,0.0,0.0,0.0,0.0,0.0,0.0,0.0,0.0,0.0,0.0,0.0,0.0,0.0,0.0,0.0,0.0,0.0,0.0,0.0,0.0,0.0,0.0,0.0,0.0,0.0,0.0,0.0,0.0,0.0,0.0,0.0,0.0,0.0,0.0,0.0,0.0,0.0,0.0,0.0,0.0,0.0,0.0,0.0,0.0,0.0,0.0,0.0,0.0,0.0,0.0,0.0,0.0,0.0,0.0,0.0,0.0,0.0,0.0,0.0,0.0,0.0,0.0,0.0,0.0,0.0,0.0,0.0,0.0,0.0,0.0,0.0,0.0,0.0,0.0,0.0,0.0,0.0,0.0,0.0,0.0,0.0,0.0,0.0,0.0,0.0,0.0,0.0,0.0,0.0,0.0,0.0,0.0,0.0,0.0,-2.4212,-2.5128,-2.5499,-2.5281,-2.4408,-2.3374,0.0,0.0,0.0,0.0,0.0,0.0,0.0,0.0,0.0,0.0,0.0,0.0,0.0,0.0,0.0,0.0,0.0,0.0,0.0,0.0,0.0,0.0,0.0,0.0,0.0,0.0,0.0,0.0,0.0,0.0,0.0,0.0,0.0,0.0,0.0,0.0,0.0,0.0,0.0,0.0,0.0,0.0,0.0,0.0,0.0,0.0,0.0,0.0,0.0,0.0,0.0,0.0,0.0,0.0,0.0,0.0,0.0,0.0,0.0,0.0,0.0,0.0,0.0,0.0,0.0,0.0,0.0,0.0,0.0,0.0,0.0,0.0,0.0,0.0,0.0,0.0,0.0,0.0,0.0,0.0,0.0,0.0,0.0,0.0,0.0,0.0,0.0,0.0,0.0,0.0,0.0,0.0,0.0,0.0,0.0,0.0,0.0,0.0,0.0,0.0,0.0,0.0,0.0,0.0,0.0,0.0,0.0,0.0,-2.4148,-2.4687,-2.5237,-2.5499,-2.5476,-2.4297,-2.3388,0.0,0.0,0.0,0.0,0.0,0.0,0.0,0.0,0.0,0.0,0.0,0.0,0.0,0.0,0.0,0.0,0.0,0.0,0.0,0.0,0.0,0.0,0.0,0.0,0.0,0.0,0.0,0.0,0.0,0.0,0.0,0.0,0.0,0.0,0.0,0.0,0.0,0.0,0.0,0.0,0.0,0.0,0.0,0.0,0.0,0.0,0.0,0.0,0.0,0.0,0.0,0.0,0.0,0.0,0.0,0.0,0.0,0.0,0.0,0.0,0.0,0.0,0.0,0.0,0.0,0.0,0.0,0.0,0.0,0.0,0.0,0.0,0.0,0.0,0.0,0.0,0.0,0.0,0.0,0.0,0.0,0.0,0.0,0.0,0.0,0.0,0.0,0.0,0.0,0.0,0.0,0.0,0.0,0.0,0.0,0.0,0.0,0.0,0.0,0.0,0.0,0.0,0.0,0.0,0.0,0.0,0.0,0.0,-2.4386,-2.5339,-2.5269,-2.5168,-2.511,-2.3782,-2.2953,0.0,0.0,0.0,0.0,0.0,0.0,0.0,0.0,0.0,0.0,0.0,0.0,0.0,0.0,0.0,0.0,0.0,0.0,0.0,0.0,0.0,0.0,0.0,0.0,0.0,0.0,0.0,0.0,0.0,0.0,0.0,0.0,0.0,0.0,0.0,0.0,0.0,0.0,0.0,0.0,0.0,0.0,0.0,0.0,0.0,0.0,0.0,0.0,0.0,0.0,0.0,0.0,0.0,0.0,0.0,0.0,0.0,0.0,0.0,0.0,0.0,0.0,0.0,0.0,0.0,0.0,0.0,0.0,0.0,0.0,0.0,0.0,0.0,0.0,0.0,0.0,0.0,0.0,0.0,0.0,0.0,0.0,0.0,0.0,0.0,0.0,0.0,0.0,0.0,0.0,0.0,0.0,0.0,0.0,0.0,0.0,0.0,0.0,0.0,0.0,0.0,0.0,0.0,0.0,0.0,0.0,0.0,0.0,-2.4898,-2.5204,-2.4358,-2.3962,-2.4132,-2.4432,-2.4249,0.0,0.0,0.0,0.0,0.0,0.0,0.0,0.0,0.0,0.0,0.0,0.0,0.0,0.0,0.0,0.0,0.0,0.0,0.0,0.0,0.0,0.0,0.0,0.0,0.0,0.0,0.0,0.0,0.0,0.0,0.0,0.0,0.0,0.0,0.0,0.0,0.0,0.0,0.0,0.0,0.0,0.0,0.0,0.0,0.0,0.0,0.0,0.0,-2.2991,0.0,0.0,0.0,0.0,0.0,0.0,0.0,0.0,0.0,0.0,0.0,0.0,0.0,0.0,0.0,0.0,0.0,0.0,0.0,0.0,0.0,0.0,0.0,0.0,0.0,0.0,0.0,0.0,0.0,0.0,0.0,0.0,0.0,0.0,0.0,0.0,0.0,0.0,0.0,0.0,0.0,0.0,0.0,0.0,0.0,0.0,0.0,0.0,0.0,0.0,0.0,0.0,0.0,0.0,0.0,0.0,0.0,0.0,0.0,-2.4359,-2.4457,-2.3507,-2.3023,-2.3153,-2.3506,-2.3291,0.0,0.0,0.0,0.0,0.0,0.0,0.0,0.0,0.0,0.0,0.0,0.0,0.0,0.0,0.0,0.0,0.0,0.0,0.0,0.0,0.0,0.0,0.0,0.0,0.0,0.0,0.0,0.0,0.0,0.0,0.0,0.0,0.0,0.0,0.0,0.0,0.0,0.0,0.0,0.0,0.0,0.0,0.0,0.0,0.0,0.0,0.0,0.0,0.0,0.0,0.0,0.0,0.0,0.0,0.0,0.0,0.0,0.0,0.0,0.0,0.0,0.0,0.0,0.0,0.0,0.0,0.0,0.0,0.0,0.0,0.0,0.0,0.0,0.0,0.0,0.0,0.0,0.0,0.0,0.0,0.0,0.0,0.0,0.0,0.0,0.0,0.0,0.0,0.0,0.0,0.0,0.0,0.0,0.0,0.0,0.0,0.0,0.0,0.0,0.0,0.0,0.0,0.0,0.0,0.0,0.0,0.0,-2.3023,-2.3455,-2.3458,-2.2496,-2.202,-2.2177,-2.1868,-2.1391,-2.0735,0.0,0.0,0.0,0.0,0.0,0.0,0.0,0.0,0.0,0.0,0.0,0.0,0.0,0.0,0.0,0.0,0.0,0.0,0.0,0.0,0.0,0.0,0.0,0.0,0.0,0.0,0.0,0.0,0.0,0.0,0.0,0.0,0.0,0.0,0.0,0.0,0.0,0.0,-2.0096,-2.1753,0.0,0.0,0.0,0.0,0.0,0.0,0.0,0.0,-2.4917,0.0,0.0,0.0,0.0,0.0,0.0,0.0,0.0,0.0,0.0,0.0,0.0,0.0,0.0,0.0,0.0,0.0,0.0,0.0,0.0,0.0,0.0,0.0,0.0,0.0,0.0,0.0,0.0,0.0,0.0,0.0,0.0,0.0,0.0,0.0,0.0,0.0,0.0,0.0,0.0,0.0,0.0,0.0,0.0,0.0,0.0,0.0,0.0,0.0,0.0,0.0,0.0,0.0,0.0,0.0,0.0,-2.2192,-2.2895,-2.302,-2.2514,-2.0918,-2.0405,-2.1086,-2.036,-1.9756,-1.9454,0.0,0.0,0.0,0.0,0.0,0.0,0.0,0.0,0.0,0.0,0.0,0.0,0.0,0.0,0.0,0.0,0.0,0.0,0.0,0.0,0.0,0.0,0.0,0.0,0.0,0.0,0.0,0.0,0.0,0.0,0.0,0.0,0.0,0.0,0.0,0.0,0.0,0.0,0.0,-2.2318,-2.3332,0.0,0.0,0.0,0.0,0.0,0.0,0.0,0.0,-2.5375,0.0,0.0,0.0,0.0,0.0,0.0,0.0,0.0,0.0,0.0,0.0,0.0,0.0,0.0,0.0,0.0,0.0,0.0,0.0,0.0,0.0,0.0,0.0,0.0,0.0,0.0,0.0,0.0,0.0,0.0,0.0,0.0,0.0,0.0,0.0,0.0,0.0,0.0,0.0,0.0,0.0,0.0,0.0,0.0,0.0,0.0,0.0,0.0,0.0,0.0,0.0,0.0,0.0,0.0,0.0,-2.1325,-2.1698,-2.1775,-2.1446,-2.0173,-1.9699,-2.0089,-1.966,-1.9289,0.0,0.0,0.0,0.0,0.0,0.0,0.0,0.0,0.0,0.0,0.0,0.0,0.0,0.0,0.0,0.0,0.0,0.0,0.0,0.0,0.0,0.0,0.0,0.0,0.0,0.0,0.0,0.0,0.0,0.0,0.0,0.0,0.0,0.0,0.0,0.0,0.0,0.0,0.0,0.0,-2.2841,-2.3552,-2.4608,0.0,0.0,0.0,0.0,0.0,0.0,-2.5351,-2.5476,0.0,0.0,0.0,0.0,0.0,0.0,0.0,0.0,0.0,0.0,0.0,0.0,0.0,0.0,0.0,0.0,0.0,0.0,0.0,0.0,0.0,0.0,0.0,0.0,0.0,0.0,0.0,0.0,0.0,0.0,0.0,0.0,0.0,0.0,0.0,0.0,0.0,0.0,0.0,0.0,0.0,0.0,0.0,0.0,0.0,0.0,0.0,0.0,0.0,0.0,0.0,0.0,0.0,0.0,0.0,-2.0191,-2.0326,-2.0394,-2.0381,-1.9736,-1.9383,-1.9359,-1.9439,-1.9303,0.0,0.0,0.0,0.0,0.0,0.0,0.0,0.0,0.0,0.0,0.0,0.0,0.0,0.0,0.0,0.0,0.0,0.0,0.0,0.0,0.0,0.0,0.0,0.0,0.0,0.0,0.0,0.0,0.0,0.0,0.0,0.0,0.0,0.0,0.0,0.0,0.0,0.0,0.0,0.0,0.0,-2.4086,-2.4812,-2.5143,0.0,0.0,0.0,0.0,-2.5658,-2.5588,0.0,0.0,0.0,0.0,0.0,0.0,0.0,0.0,0.0,0.0,0.0,0.0,0.0,0.0,0.0,0.0,0.0,0.0,0.0,0.0,0.0,0.0,0.0,0.0,0.0,0.0,0.0,0.0,0.0,0.0,0.0,0.0,0.0,0.0,0.0,0.0,0.0,0.0,0.0,0.0,0.0,0.0,0.0,0.0,0.0,0.0,0.0,0.0,0.0,0.0,0.0,0.0,0.0,0.0,0.0,0.0,-1.9357,-1.9372,-1.9392,-1.9458,-1.9366,-1.9282,-1.9226,-1.973,-1.9578,0.0,0.0,0.0,0.0,0.0,0.0,0.0,0.0,0.0,0.0,0.0,0.0,0.0,0.0,0.0,0.0,0.0,0.0,0.0,0.0,0.0,0.0,0.0,0.0,0.0,0.0,0.0,0.0,0.0,0.0,0.0,0.0,0.0,0.0,0.0,0.0,0.0,0.0,0.0,0.0,0.0,-2.5377,-2.5029,-2.5176,-2.5592,0.0,0.0,-2.5767,-2.652,-2.6004,0.0,0.0,0.0,0.0,0.0,0.0,0.0,0.0,0.0,0.0,0.0,0.0,0.0,0.0,0.0,0.0,0.0,0.0,0.0,0.0,0.0,0.0,0.0,0.0,0.0,0.0,0.0,0.0,0.0,0.0,0.0,0.0,0.0,0.0,0.0,0.0,0.0,0.0,0.0,0.0,0.0,0.0,0.0,0.0,0.0,0.0,0.0,0.0,0.0,0.0,0.0,0.0,0.0,0.0,0.0,-1.9668,-1.8958,-1.9035,-1.9111,-1.9117,-1.9119,-1.9095,-1.9025,-1.9678,-1.9582,0.0,0.0,0.0,0.0,0.0,0.0,0.0,0.0,0.0,0.0,0.0,0.0,0.0,0.0,0.0,0.0,0.0,0.0,0.0,0.0,0.0,0.0,0.0,0.0,0.0,0.0,0.0,0.0,0.0,0.0,0.0,0.0,0.0,0.0,0.0,0.0,0.0,0.0,0.0,0.0,0.0,0.0,-2.5784,-2.5932,0.0,0.0,0.0,-2.6368,-2.6737,0.0,0.0,0.0,0.0,0.0,0.0,0.0,0.0,0.0,0.0,0.0,0.0,0.0,0.0,0.0,0.0,0.0,0.0,0.0,0.0,0.0,0.0,0.0,0.0,0.0,0.0,0.0,0.0,0.0,0.0,0.0,0.0,0.0,0.0,0.0,0.0,0.0,0.0,0.0,0.0,0.0,0.0,0.0,0.0,0.0,0.0,0.0,0.0,0.0,0.0,0.0,0.0,0.0,0.0,0.0,0.0,0.0,-1.8705,-1.8861,-1.8967,-1.8967,-1.8958,-1.8922,-1.8852,-1.952,0.0,0.0,0.0,0.0,0.0,0.0,0.0,0.0,0.0,0.0,0.0,0.0,0.0,0.0,0.0,0.0,0.0,0.0,0.0,0.0,0.0,0.0,0.0,0.0,0.0,0.0,0.0,-1.6115,0.0,0.0,0.0,0.0,0.0,0.0,0.0,0.0,0.0,0.0,0.0,0.0,0.0,0.0,-2.6552,-2.6747,-2.685,-2.7054,0.0,0.0,-2.7208,-2.7454,-2.7148,-2.6651,0.0,0.0,0.0,0.0,0.0,0.0,0.0,0.0,0.0,0.0,0.0,0.0,0.0,0.0,0.0,0.0,0.0,0.0,0.0,0.0,0.0,0.0,0.0,0.0,0.0,0.0,0.0,0.0,0.0,0.0,0.0,0.0,0.0,0.0,0.0,0.0,0.0,0.0,0.0,0.0,0.0,0.0,0.0,0.0,0.0,0.0,0.0,0.0,0.0,0.0,0.0,0.0,0.0,0.0,-1.937,-1.8639,-1.8733,-1.8815,-1.8824,-1.8878,-1.8834,-1.8733,-1.9306,-1.9254,0.0,0.0,0.0,0.0,0.0,0.0,0.0,0.0,0.0,0.0,0.0,0.0,0.0,0.0,0.0,0.0,0.0,0.0,0.0,0.0,0.0,0.0,0.0,0.0,0.0,0.0,0.0,0.0,0.0,0.0,0.0,0.0,0.0,0.0,0.0,0.0,0.0,0.0,0.0,0.0,0.0,-2.8193,-2.7848,-2.7806,-2.8144,0.0,-2.8536,-2.831,-2.9181,-2.7942,-2.6883,-2.6809,0.0,0.0,0.0,0.0,0.0,0.0,0.0,0.0,0.0,0.0,0.0,0.0,0.0,0.0,0.0,0.0,0.0,0.0,0.0,0.0,0.0,0.0,0.0,0.0,0.0,0.0,0.0,0.0,0.0,0.0,0.0,0.0,0.0,0.0,0.0,0.0,0.0,0.0,0.0,0.0,0.0,0.0,0.0,0.0,0.0,0.0,0.0,0.0,0.0,0.0,0.0,0.0,0.0,-1.9794,-1.8626,-1.8656,-1.8685,-1.8687,-1.8687,-1.8677,-1.8565,-1.9202,-1.9154,0.0,0.0,0.0,0.0,0.0,0.0,0.0,0.0,0.0,0.0,0.0,0.0,0.0,0.0,0.0,0.0,0.0,0.0,0.0,0.0,0.0,0.0,0.0,0.0,0.0,0.0,0.0,0.0,-1.8851,-1.9599,-2.1069,0.0,0.0,0.0,0.0,0.0,0.0,0.0,0.0,0.0,0.0,-2.8641,-2.8637,-2.8714,0.0,0.0,-2.9148,-2.9113,-2.9508,-2.854,-2.7764,-2.7766,-2.6996,0.0,0.0,0.0,0.0,0.0,0.0,0.0,0.0,0.0,0.0,0.0,0.0,0.0,0.0,0.0,0.0,0.0,0.0,0.0,0.0,0.0,0.0,0.0,0.0,0.0,0.0,0.0,0.0,0.0,0.0,0.0,0.0,0.0,0.0,0.0,0.0,0.0,0.0,0.0,0.0,0.0,0.0,0.0,0.0,0.0,0.0,0.0,0.0,0.0,0.0,0.0,0.0,-2.0206,-1.9113,-1.8976,-1.879,-1.8554,-1.8565,-1.8526,-1.8483,-1.8909,-1.8861,0.0,0.0,0.0,0.0,0.0,0.0,0.0,0.0,0.0,0.0,0.0,0.0,0.0,0.0,0.0,0.0,0.0,0.0,0.0,0.0,0.0,0.0,0.0,0.0,0.0,0.0,0.0,0.0,-1.9891,-2.0701,-2.2868,0.0,0.0,0.0,0.0,0.0,0.0,0.0,0.0,0.0,0.0,-2.9251,-2.948,-2.9621,-2.97,-2.978,-2.9844,-2.991,-2.9939,-2.9238,-2.8703,-2.8688,0.0,0.0,0.0,0.0,0.0,0.0,0.0,0.0,0.0,0.0,0.0,0.0,0.0,0.0,0.0,0.0,0.0,0.0,0.0,0.0,0.0,0.0,0.0,0.0,0.0,0.0,0.0,-1.5844,0.0,0.0,-1.7444,0.0,0.0,0.0,0.0,0.0,0.0,0.0,0.0,0.0,0.0,0.0,0.0,0.0,0.0,0.0,0.0,0.0,0.0,0.0,0.0,0.0,0.0,-2.0555,-2.0244,-1.9782,-1.9199,-1.8467,-1.8465,-1.8465,-1.8394,-1.8348,-1.8291,-1.8185,0.0,0.0,0.0,0.0,0.0,0.0,0.0,0.0,0.0,0.0,0.0,0.0,0.0,0.0,0.0,0.0,0.0,0.0,0.0,0.0,0.0,0.0,0.0,0.0,0.0,0.0,-2.18,-2.1638,-2.2201,0.0,0.0,0.0,0.0,0.0,0.0,0.0,0.0,0.0,-2.8789,-2.965,-3.0314,-3.0423,-3.0527,-3.0576,-3.0629,-3.0704,-3.0757,-3.0751,-3.0082,-2.9577,0.0,0.0,0.0,0.0,0.0,0.0,0.0,0.0,0.0,0.0,0.0,0.0,0.0,0.0,0.0,0.0,0.0,0.0,0.0,0.0,0.0,0.0,0.0,0.0,0.0,0.0,0.0,-1.6463,-1.6246,0.0,0.0,0.0,0.0,0.0,0.0,0.0,0.0,0.0,0.0,0.0,-2.0372,-2.1162,0.0,0.0,0.0,0.0,0.0,0.0,0.0,0.0,0.0,0.0,0.0,0.0,-2.0953,-2.0353,-1.9758,-1.9352,-1.9141,-1.863,-1.8357,-1.8339,-1.8274,-1.7868,-1.7079,0.0,0.0,0.0,0.0,0.0,0.0,0.0,0.0,0.0,0.0,0.0,0.0,0.0,0.0,0.0,0.0,0.0,0.0,0.0,0.0,0.0,0.0,0.0,0.0,0.0,-2.2988,0.0,0.0,0.0,0.0,0.0,0.0,0.0,0.0,0.0,0.0,-2.8502,-2.9106,-2.972,-3.0124,-3.041,-3.0547,-3.0622,-3.0701,0.0,0.0,0.0,0.0,0.0,0.0,0.0,0.0,0.0,0.0,0.0,0.0,0.0,0.0,-3.1415,-2.9282,-2.8606,-2.8109,-2.7329,0.0,0.0,0.0,0.0,0.0,0.0,0.0,0.0,0.0,0.0,0.0,0.0,0.0,0.0,-1.7464,-1.7408,-1.7675,0.0,0.0,0.0,0.0,0.0,0.0,0.0,0.0,-2.1136,-2.1105,-2.0719,-2.1507,-2.1823,-2.1765,-2.2311,-2.2465,0.0,0.0,0.0,0.0,0.0,0.0,0.0,0.0,-2.1507,-2.1573,-2.0688,-1.9963,-1.9469,-1.8956,-1.8562,-1.8282,-1.8151,-1.7701,-1.6895,-1.678,-1.6675,0.0,0.0,0.0,0.0,0.0,0.0,0.0,0.0,0.0,0.0,0.0,0.0,0.0,0.0,0.0,0.0,0.0,0.0,0.0,0.0,0.0,0.0,0.0,-2.3662,0.0,0.0,0.0,0.0,0.0,0.0,0.0,0.0,0.0,-2.9001,-2.9294,-2.9715,-3.03,-3.0442,-3.053,-3.0589,0.0,0.0,0.0,0.0,0.0,0.0,0.0,-3.0195,-3.0742,-3.04,-3.0231,-3.0772,-3.1746,-3.2337,-3.1969,0.0,0.0,-3.0375,-2.9654,-2.9154,-2.8351,-2.8421,-2.8356,-2.7514,-2.728,-2.6966,0.0,0.0,0.0,0.0,-2.0503,0.0,0.0,0.0,-1.897,-1.9017,0.0,-1.905,0.0,0.0,0.0,0.0,-1.9655,-2.0559,0.0,0.0,-2.0833,-2.1154,-2.1514,-2.1596,-2.1696,-2.1884,-2.3267,-2.3563,-2.2893,-2.2237,0.0,0.0,0.0,0.0,0.0,0.0,-2.2263,-2.3726,-2.2374,-2.0956,-1.9546,-1.9421,-1.8996,-1.8224,-1.7988,-1.7803,-1.7604,-1.7447,-1.7305,-1.7108,-1.6892,0.0,0.0,0.0,0.0,0.0,0.0,0.0,0.0,0.0,0.0,0.0,0.0,0.0,0.0,0.0,0.0,0.0,0.0,0.0,0.0,-2.4394,0.0,0.0,0.0,0.0,0.0,0.0,0.0,0.0,0.0,-2.9207,-2.9121,-2.9832,-3.0424,-3.0511,0.0,0.0,0.0,0.0,-3.0783,-3.0706,-3.0784,-3.0836,-3.0836,-3.0799,-3.076,-3.0779,0.0,0.0,-3.0709,-3.2046,-3.2713,-3.1926,-3.2203,-3.2791,-3.2511,-3.1583,-3.0928,-3.0603,-3.0223,-2.9595,-2.7764,-2.7518,-2.7351,-1.9982,0.0,0.0,0.0,0.0,-1.9968,-2.0084,-2.0411,-1.9538,-1.9206,-1.9327,-1.8865,0.0,0.0,0.0,0.0,0.0,0.0,-2.0679,-2.0397,-2.0105,-2.0176,-2.0543,-2.0634,-2.1032,-2.1665,-2.2115,-2.2521,-2.2876,-2.2634,-2.2203,-2.1771,0.0,0.0,0.0,0.0,-2.3068,-2.3431,-2.2219,-2.1326,-2.083,-1.975,-1.8785,-1.8013,-1.7936,-1.7803,-1.7612,-1.7526,-1.7409,-1.7265,-1.7142,0.0,0.0,0.0,0.0,0.0,0.0,0.0,0.0,0.0,0.0,0.0,0.0,0.0,0.0,0.0,0.0,0.0,0.0,0.0,-2.5209,-2.5281,-2.5664,0.0,0.0,0.0,0.0,0.0,0.0,0.0,0.0,0.0,-3.0211,-3.0364,-3.0501,0.0,0.0,-3.0704,-3.0672,-3.075,-3.081,-3.083,-3.0316,0.0,-2.9911,-2.9384,-2.8984,-2.8974,-2.9009,-2.9011,-2.8964,-2.9343,-2.9557,-2.9264,-2.9264,-2.9315,-2.9181,-2.9823,-2.9772,-2.8565,-2.7968,-2.7555,-2.6786,-2.6518,-2.6224,-1.9147,-1.9269,-1.9368,-1.9583,-1.9839,-1.9498,-1.96,-1.9959,-1.921,-1.9121,-1.9426,-1.8788,-1.8588,-1.8733,-1.9307,0.0,0.0,0.0,-2.0286,-1.9902,-1.9423,-1.9319,-1.9562,-1.9718,-2.0077,-2.0637,-2.1222,-2.1806,-2.2332,-2.2867,-2.2997,-2.2762,0.0,-2.4321,-2.472,-2.412,-2.3892,-2.4009,-2.2918,-2.2037,-2.1413,-1.9853,-1.8793,-1.8359,-1.8,-1.7755,-1.765,-1.7581,-1.7479,-1.7394,-1.7305,-1.732,0.0,0.0,0.0,0.0,0.0,0.0,0.0,0.0,0.0,0.0,0.0,-2.058,-2.1288,0.0,0.0,0.0,-2.5218,-2.6003,-2.6098,-2.6454,0.0,0.0,0.0,0.0,0.0,0.0,0.0,-2.9737,-2.9701,-2.9685,-2.9702,-2.9616,-2.9691,-3.0098,-3.0193,-3.0098,-2.9766,0.0,-2.9812,-2.9826,-2.9361,-2.9033,-2.9014,-2.8584,-2.8232,-2.8232,-2.8262,-2.8275,-2.8215,-2.8179,-2.8139,-2.8063,-2.7952,-2.7705,-2.722,-2.7889,-2.8257,-2.7292,-2.6878,-2.6519,-2.5943,-2.5553,-2.5141,-1.8173,-1.8736,-1.9512,-1.9579,-1.9175,-1.9201,-1.8898,-1.8354,-1.8454,-1.8874,-1.9476,-1.8812,-1.8952,-1.9712,-1.9649,0.0,-1.8754,-1.9497,-1.9602,-1.921,-1.874,-1.8568,-1.8689,-1.8824,-1.896,-1.9126,-2.0533,-2.1302,-2.1464,-2.2853,-2.3502,-2.3316,-2.3286,-2.4598,-2.6987,-2.538,-2.4686,-2.5106,-2.4087,-2.2871,-2.1386,-1.9857,-1.9054,-1.9051,-1.8281,-1.7872,-1.7872,-1.782,-1.7756,-1.7677,-1.7565,-1.7701,-1.8031,0.0,0.0,0.0,0.0,0.0,0.0,0.0,0.0,0.0,0.0,0.0,0.0,0.0,0.0,0.0,-2.5873,0.0,-2.6798,-2.7521,0.0,0.0,0.0,-2.9098,-2.8376,-2.9016,-2.9187,-2.8383,0.0,0.0,-2.82,-2.8156,-2.8392,-2.9197,-2.9348,-2.91,-2.8317,-2.8323,-2.8262,-2.8325,-2.8231,-2.816,-2.8004,-2.7781,-2.7547,-2.7554,-2.7898,-2.766,-2.7589,-2.756,-2.7595,-2.7394,-2.7441,-2.7064,-2.6215,-2.5877,-2.5979,-2.6436,-2.6469,-2.6147,-2.5202,-2.4662,-2.415,-1.615,-1.6708,-1.68,-1.757,-1.8741,-1.871,-1.8633,-1.8522,-1.8552,-1.8707,-1.89,-1.8737,-1.8791,-1.9045,-1.9029,-1.9001,-1.9017,-1.8688,-1.8559,-1.8508,-1.7939,-1.7738,-1.7801,-1.7965,-1.8361,-1.9032,-1.9389,-2.0161,-2.1293,-2.1613,-2.2544,-2.4065,-2.3951,-2.451,-2.5654,-2.5337,-2.5209,-2.5257,-2.4052,-2.2657,-2.1076,-2.0629,-2.015,-1.9613,-1.9471,-1.9337,-1.9303,-1.9395,-1.9337,-1.9184,-1.9286,-1.942,-1.955,-1.9261,0.0,0.0,0.0,0.0,0.0,0.0,0.0,0.0,0.0,-2.3781,-2.3343,0.0,-2.6184,0.0,-2.6871,-2.656,-2.5974,-2.6131,0.0,0.0,-2.7497,-2.7803,-2.8242,-2.8495,-2.8513,-2.8263,-2.8229,-2.8271,-2.8262,-2.8264,-2.8081,-2.7682,-2.8164,-2.8502,-2.8222,-2.8256,-2.8284,-2.8146,-2.762,-2.7086,-2.6364,-2.5153,-2.4439,-2.4336,-2.4379,-2.4316,-2.4257,-2.4218,-2.4187,-2.4115,-2.4004,-2.3752,-2.35,-2.3232,-2.3137,-2.3167,-2.3934,-2.4598,-2.4109,-2.3388,-2.2675,-1.5258,-1.5481,-1.5352,-1.5896,-1.6861,-1.7379,-1.7637,-1.7671,-1.7621,-1.765,-1.7671,-1.7679,-1.7699,-1.7735,-1.7748,-1.786,-1.7963,-1.7669,-1.7589,-1.7694,-1.7412,-1.7288,-1.7313,-1.7432,-1.7719,-1.8192,-1.8526,-1.9286,-2.0408,-2.0702,-2.1761,-2.3519,-2.3431,-2.3877,-2.4873,-2.5478,-2.5555,-2.5027,-2.3842,-2.2622,-2.1349,-2.0975,-2.0625,-2.0177,-1.9998,-1.9857,-1.9805,-1.9985,-1.9985,-1.977,-1.9822,-1.9925,-2.0068,-1.9926,-2.0166,0.0,0.0,0.0,0.0,0.0,0.0,0.0,0.0,0.0,0.0,0.0,-2.7174,-2.7364,-2.7003,-2.6607,-2.6213,-2.653,-2.6967,-2.7471,-2.7516,-2.7592,-2.7703,-2.7732,-2.7401,-2.6601,-2.6543,-2.6415,-2.6042,-2.5994,-2.5819,-2.5311,-2.5683,-2.6122,-2.6401,-2.6227,-2.5985,-2.5957,-2.5576,-2.5126,-2.4599,-2.3738,-2.3101,-2.3104,-2.3098,-2.3075,-2.3002,-2.2968,-2.292,-2.2867,-2.2719,-2.2569,-2.2391,-2.2229,-2.2021,-2.1891,-2.231,-2.2723,-2.2599,-2.2051,-2.1511,-1.4802,-1.4729,-1.4589,-1.4564,-1.4671,-1.573,-1.626,-1.6349,-1.6386,-1.639,-1.6371,-1.6363,-1.6363,-1.639,-1.6455,-1.6501,-1.6578,-1.6696,-1.6823,-1.6938,-1.7001,-1.7043,-1.7043,-1.7093,-1.7142,-1.7167,-1.7787,-1.8506,-1.932,-1.9952,-2.0977,-2.2329,-2.2402,-2.2991,-2.4168,-2.5321,-2.5428,-2.4509,-2.3448,-2.2518,-2.1738,-2.1123,-2.0788,-2.0702,-2.0371,-2.016,-2.0116,-2.0459,-2.0543,-2.0303,-2.0324,-2.0447,-2.0569,-2.0525,-2.1014,0.0,-2.2285,0.0,0.0,0.0,0.0,0.0,0.0,0.0,0.0,-2.7225,-2.7491,-2.6747,-2.6708,-2.6699,-2.6715,-2.7352,-2.7756,-2.7693,-2.7708,-2.7388,-2.6622,-2.6495,-2.5931,-2.4404,-2.4231,-2.3942,-2.3348,-2.3105,-2.3124,-2.3251,-2.3191,-2.3424,-2.3875,-2.3661,-2.3378,-2.3102,-2.3006,-2.3144,-2.3027,-2.285,-2.2681,-2.2715,-2.264,-2.2737,-2.258,-2.2534,-2.2487,-2.2402,-2.2154,-2.204,-2.1972,-2.1742,-2.1528,-2.1187,-2.1024,-2.0996,-2.1152,-2.0889,-2.0555,-1.35,-1.3916,-1.3786,-1.4009,-1.4468,-1.4567,-1.4978,-1.5547,-1.6072,-1.6281,-1.625,-1.625,-1.6254,-1.632,-1.632,-1.6398,-1.6436,-1.6536,-1.657,-1.6604,-1.6659,-1.672,-1.6712,-1.674,-1.6791,-1.6807,-1.6901,-1.755,-1.8734,-1.8787,-1.9823,-2.1724,-2.1763,-2.2003,-2.2515,0.0,0.0,0.0,-2.28,-2.2062,-2.1357,-2.1348,-2.1341,-2.1349,-2.1669,0.0,-2.1868,-2.2541,-2.2939,-2.2903,-2.3568,0.0,0.0,0.0,0.0,0.0,0.0,0.0,0.0,0.0,0.0,0.0,-2.5419,-2.5455,-2.5421,-2.691,-2.7525,-2.6718,-2.6669,-2.6442,-2.5834,-2.5889,-2.5737,-2.5113,-2.5054,-2.4721,-2.3949,-2.3868,-2.3673,-2.3408,-2.3337,-2.3283,-2.3074,-2.3103,-2.3064,-2.2968,-2.2492,-2.2127,-2.2285,-2.2738,-2.3063,-2.3053,-2.24,-2.2099,-2.2119,-2.1493,-2.1049,-2.0999,-2.0989,-2.0976,-2.0954,-2.0872,-2.0766,-2.0704,-2.0439,-2.0311,-2.0185,-1.9916,-1.9767,-1.9486,-1.9208,-1.9341,-2.0564,-2.0171,-1.9509,-1.282,-1.3004,-1.2934,-1.3032,0.0,-1.3451,-1.3701,-1.404,-1.5095,-1.5679,-1.5862,-1.5833,-1.589,-1.5904,-1.5904,-1.596,-1.6001,-1.6059,-1.6079,-1.6105,-1.6133,-1.6176,-1.616,-1.6145,-1.6137,-1.6165,-1.6207,-1.6717,-1.7502,-1.7851,-1.8685,-1.9914,-2.0118,-2.0505,-2.1057,-2.162,-2.2197,-2.2736,-2.2447,-2.1907,-2.1191,-2.1309,-2.1386,-2.1409,-2.1878,0.0,0.0,0.0,0.0,0.0,0.0,0.0,0.0,0.0,0.0,-2.3362,-2.3257,-2.3334,-2.375,-2.3858,-2.4135,-2.4707,-2.4755,-2.519,-2.6156,-2.6743,-2.6916,-2.6544,-2.6188,-2.564,-2.4912,-2.4819,-2.4483,-2.3766,-2.365,-2.3475,-2.3133,-2.3077,-2.2919,-2.2523,-2.2444,-2.2328,-2.1915,-2.1871,-2.1853,-2.1853,-2.1502,-2.1227,-2.1247,-2.157,-2.1749,-2.1284,-2.0514,-1.9989,-1.9951,-1.9657,-1.9329,-1.9277,-1.9233,-1.9368,-1.9696,-1.969,-1.9668,-1.9936,-1.9856,-1.9654,-1.9467,-1.9222,-1.899,-1.8699,-1.8397,-1.8343,-1.9072,-1.8782,-1.839,-1.2392,-1.2226,-1.2241,-1.2102,-1.1965,-1.2456,-1.2572,-1.2558,-1.3908,0.0,0.0,-1.522,-1.5286,-1.5366,-1.5366,-1.5367,-1.5404,-1.5397,-1.5426,-1.5463,-1.55,-1.5463,-1.5499,-1.5441,-1.5367,-1.5374,-1.5499,-1.5753,-1.6137,-1.6804,-1.7342,-1.7705,-1.8039,-1.8624,-1.9493,-2.0016,-2.0755,-2.1702,-2.1903,-2.1647,-2.1021,-2.1159,-2.1277,-2.1285,-2.1764,-2.2056,-2.2141,-2.2554,-2.2731,-2.2598,-2.2718,-2.28,-2.2789,-2.2885,-2.3361,-2.4286,-2.4589,-2.4694,-2.4703,-2.4685,-2.4342,-2.3518,-2.3469,-2.4441,-2.6644,-2.6228,-2.5922,-2.6071,-2.5358,-2.4651,-2.4082,-2.3898,-2.3533,-2.2817,-2.2733,-2.2703,-2.2566,-2.259,-2.2296,-2.1715,-2.1564,-2.134,-2.0744,-2.0654,-2.059,-2.0599,-2.0669,-2.0496,-2.0387,-2.0393,-2.0225,-1.9615,-1.8925,-1.8135,-1.8046,-1.8111,-1.7995,-1.8125,-1.803,-1.812,-1.8612,-1.8732,-1.8942,-1.9521,-1.9507,-1.9314,-1.921,-1.8989,-1.869,-1.8358,-1.806,-1.7766,-1.7469,-1.7344,-1.7305,-1.2086,-1.1962,-1.1947,-1.1833,-1.1659,-1.1674,-1.1765,-1.2004,-1.2989,-1.3717,-1.4206,-1.4148,-1.4431,-1.4887,-1.4797,-1.4721,-1.4738,-1.4686,-1.4655,-1.4652,-1.4668,-1.4668,-1.4658,-1.4589,-1.4557,-1.455,-1.4363,-1.4544,-1.5046,-1.5016,-1.5245,-1.5788,-1.5753,-1.6266,-1.7253,-1.81,-1.892,-1.9691,-2.0285,-2.0603,-2.0595,-2.0901,-2.1119,-2.1309,-2.1815,-2.215,-2.2274,-2.3067,-2.3577,-2.3695,-2.4401,-2.4536,-2.4016,-2.4102,-2.4032,-2.3629,-2.3759,-2.3862,-2.3871,-2.386,-2.3478,-2.2595,-2.2346,-2.2912,-2.4403,-2.4623,-2.4679,-2.4731,-2.4111,-2.3759,-2.3698,-2.3155,-2.2508,-2.1845,-2.1767,-2.1539,-2.0942,-2.093,-2.0926,-2.0779,-2.0696,-2.0701,-2.0567,-2.0531,-2.0523,-2.0514,-2.0428,-2.0234,-1.9668,-1.9462,-1.9432,-1.9228,-1.8564,-1.8073,-1.7813,-1.7925,-1.7779,-1.792,-1.7737,-1.7634,-1.7793,-1.7736,-1.7937,-1.8521,-1.8432,-1.8467,-1.8737,-1.8644,-1.8242,-1.7906,-1.7546,-1.7248,-1.6918,-1.6636,-1.6451,-1.1783,-1.1689,-1.1667,-1.1512,-1.1324,-1.1118,-1.098,-1.096,-1.1299,-1.2082,-1.3042,-1.3297,-1.3537,-1.3722,-1.3943,-1.4019,-1.3934,-1.3914,-1.3888,-1.3842,-1.3848,-1.3835,-1.3776,-1.363,-1.3596,-1.3563,-1.3355,-1.3373,-1.3579,-1.3664,-1.3865,-1.4144,-1.4435,-1.4953,-1.5659,-1.6337,-1.7046,-1.7748,-1.9243,-2.0135,-2.0407,-2.0711,-2.1014,-2.123,-2.1648,-2.1949,-2.2203,-2.2683,-2.3038,-2.3229,-2.363,-2.3736,-2.3562,-2.368,-2.3603,-2.3372,-2.3499,-2.3567,-2.3544,-2.2989,-2.2226,-2.1251,-2.1104,-2.1346,-2.203,-2.2347,-2.2557,-2.2694,-2.2545,-2.2352,-2.2056,-2.1809,-2.1402,-2.0709,-2.0734,-2.0672,-2.0421,-2.0405,-2.0455,-2.0496,-2.0523,-2.0546,-2.0553,-2.0556,-2.0557,-2.0508,-2.0184,-1.9632,-1.9204,-1.8386,-1.7853,-1.7817,-1.717,-1.6652,-1.6561,-1.6515,-1.6475,-1.6449,-1.635,-1.6458,-1.6697,-1.6734,-1.6915,-1.743,-1.7417,-1.7321,-1.7452,-1.7406,-1.7231,-1.7003,-1.6921,-1.6684,-1.6363,-1.5858,-1.5565,-1.1407,-1.1315,-1.1285,-1.1101,-1.089,-1.0583,-1.0273,-1.004,-0.9925,-1.0477,-1.1512,-1.2137,-1.2418,-1.2461,-1.2947,-1.3061,-1.2966,-1.3051,-1.3026,-1.2969,-1.2922,-1.2888,-1.2818,-1.2602,-1.2484,-1.2449,-1.2271,-1.2164,-1.2168,-1.2376,-1.2435,-1.2537,-1.3218,-1.3802,-1.415,-1.4777,-1.5426,-1.6166,-1.7985,-1.9231,-1.9733,-2.0143,-2.0518,-2.0871,-2.1152,-2.1543,-2.1973,-2.2175,-2.236,-2.2605,-2.2685,-2.2782,-2.2952,-2.3095,-2.3193,-2.3313,-2.3238,-2.3106,-2.2819,-2.2057,-2.1125,-2.011,-1.9986,-1.991,-1.9825,-1.9961,-2.038,-2.0867,-2.1078,-2.087,-2.0438,-2.0332,-2.02,-1.98,-1.9934,-2.016,-2.0285,-2.0351,-2.043,-2.0494,-2.0565,-2.0602,-2.0596,-2.0583,-2.0462,-2.0163,-1.9636,-1.9141,-1.8588,-1.7375,-1.6642,-1.6244,-1.577,-1.5474,-1.5284,-1.5306,-1.5313,-1.5153,-1.5078,-1.5317,-1.5659,-1.5662,-1.581,-1.6296,-1.6314,-1.6189,-1.6011,-1.6087,-1.6129,-1.5962,-1.5943,-1.5872,-1.5498,-1.4932,-1.4648,-1.0866,-1.0784,-1.0753,-1.0594,-1.036,-1.0065,-0.9822,-0.9549,-0.9428,-0.9244,-0.9326,-1.0183,-1.0891,-1.1271,-1.1619,-1.1716,-1.1645,-1.1919,-1.2006,-1.1951,-1.1794,-1.1746,-1.1709,-1.1446,-1.1255,-1.1212,-1.1003,-1.0971,-1.1051,-1.0914,-1.082,-1.091,-1.1604,-1.2191,-1.2603,-1.3639,-1.4539,-1.5214,-1.6025,-1.695,-1.8017,-1.8701,-1.9335,-1.9909,-2.0255,-2.0834,-2.1606,-2.1978,-2.2215,-2.2424,-2.265,-2.2808,-2.291,-2.3126,-2.328,-2.3251,-2.2736,-2.2064,-2.1312,-2.0947,-2.0404,-1.9589,-1.9201,-1.8765,-1.8101,-1.7821,-1.842,-1.9666,-1.9755,-1.9454,-1.9307,-1.9071,-1.901,-1.9304,-1.9637,-2.0012,-2.0227,-2.0355,-2.0428,-2.05,-2.0537,-2.0596,-2.0565,-2.0513,-2.0197,-1.9655,-1.9366,-1.8756,-1.7602,-1.6883,-1.6255,-1.5603,-1.5207,-1.5245,-1.5206,-1.5149,-1.5061,-1.4962,-1.481,-1.4794,-1.4801,-1.4724,-1.4696,-1.5115,-1.5097,-1.5037,-1.5168,-1.5284,-1.5064,-1.4929,-1.4807,-1.4608,-1.4308,-1.3901,-1.3776,-1.0323,-1.0273,-1.0248,-1.0072,-0.9803,-0.9504,-0.9212,-0.897,-0.8828,-0.8573,-0.8336,-0.8678,-0.9252,-0.9914,-1.0314,-1.0538,-1.0646,-1.0724,-1.0788,-1.0842,-1.0786,-1.07,-1.0504,-1.0312,-1.0152,-1.0026,-0.9928,-0.9903,-0.9947,-0.9981,-1.0021,-1.0152,-1.0572,-1.1006,-1.1483,-1.2217,-1.2916,-1.3624,-1.4108,-1.483,-1.5716,-1.661,-1.7664,-1.8842,-1.9302,-1.9717,-2.0352,-2.1025,-2.1507,-2.1759,-2.2339,-2.2764,-2.2952,-2.2647,-2.2526,-2.2646,-2.2032,-2.1277,-2.0485,-2.0262,-1.9742,-1.8754,-1.8485,-1.8115,-1.7591,-1.7248,-1.7311,-1.7597,-1.7906,-1.8059,-1.8059,-1.8104,-1.8325,-1.8739,-1.9219,-1.9604,-1.9974,-2.0117,-2.0268,-2.0366,-2.0402,-2.036,-2.0375,-2.0345,-2.0181,-1.975,-1.9343,-1.8395,-1.7801,-1.7098,-1.63,-1.5866,-1.5457,-1.5127,-1.5043,-1.4946,-1.4847,-1.4729,-1.4599,-1.4467,-1.4305,-1.414,-1.4097,-1.4122,-1.3929,-1.3757,-1.3607,-1.3749,-1.3713,-1.3632,-1.3629,-1.3469,-1.3386,-1.306,-1.2894,-0.9718,-0.9658,-0.9593,-0.9437,-0.9197,-0.8909,-0.8612,-0.8359,-0.8179,-0.7956,-0.7656,-0.752,-0.7816,-0.8403,-0.8974,-0.9338,-0.9528,-0.9575,-0.9643,-0.9787,-0.9741,-0.9614,-0.9372,-0.9213,-0.9009,-0.888,-0.8816,-0.8865,-0.895,-0.9137,-0.9337,-0.954,-0.979,-1.0147,-1.0621,-1.1067,-1.1616,-1.2282,-1.2789,-1.3387,-1.4099,-1.4962,-1.6276,-1.7815,-1.8344,-1.8779,-1.9347,-2.0125,-2.0696,-2.0968,-2.1661,-2.2159,-2.2365,-2.194,-2.1693,-2.1682,-2.1216,-2.0582,-1.9744,-1.9557,-1.9102,-1.8295,-1.8014,-1.7704,-1.728,-1.6853,-1.6335,-1.5821,-1.6002,-1.6246,-1.6716,-1.7044,-1.7446,-1.7902,-1.8377,-1.8799,-1.9118,-1.935,-1.9369,-1.9468,-1.9182,-1.9197,-1.8998,-1.8796,-1.8553,-1.801,-1.7372,-1.6451,-1.5788,-1.4382,-1.3738,-1.4537,-1.4085,-1.4116,-1.4616,-1.4775,-1.466,-1.4499,-1.4368,-1.417,-1.3992,-1.3798,-1.3553,-1.3455,-1.3061,-1.2716,-1.2568,-1.2491,-1.2357,-1.2123,-1.2147,-1.235,-1.2412,-1.2122,-1.1752,-0.896,-0.8834,-0.8778,-0.869,-0.8506,-0.8305,-0.8031,-0.771,-0.7472,-0.7241,-0.7013,-0.6768,-0.6643,-0.6741,-0.7567,-0.8054,-0.8229,-0.8433,-0.8673,-0.8835,-0.8667,-0.85,-0.8321,-0.8031,-0.7833,-0.775,-0.7675,-0.772,-0.8017,-0.8244,-0.8525,-0.8816,-0.911,-0.9527,-1.0,-1.0452,-1.0981,-1.1536,-1.2275,-1.292,-1.3448,-1.4164,-1.5314,-1.6759,-1.7413,-1.8095,-1.9046,-1.953,-1.989,-2.0144,-2.0556,-2.081,-2.0938,-2.1065,-2.0896,-2.0407,-2.0273,-1.9876,-1.9102,-1.8802,-1.8492,-1.812,-1.7718,-1.7342,-1.6728,-1.6088,-1.5365,-1.4761,-1.3999,-1.4044,-1.477,-1.5319,-1.5887,-1.6349,-1.6872,-1.7228,-1.7628,-1.7311,-1.7576,-1.7137,-1.6423,-1.5707,-1.5598,-1.5762,-1.466,-1.3665,-1.2791,-1.1384,-0.9064,-0.7912,-0.8414,-0.9782,-1.0502,-1.1298,-1.3904,-1.4642,-1.4467,-1.4261,-1.4015,-1.3824,-1.36,-1.3394,-1.3116,-1.2814,-1.2481,-1.2105,-1.1709,-1.14,-1.1187,-1.1033,-1.1067,-1.1212,-1.1304,-1.0939,-1.0596,-0.8275,-0.8226,-0.8104,-0.7959,-0.7777,-0.7584,-0.73,-0.7013,-0.6803,-0.6595,-0.6352,-0.6071,-0.5917,-0.5877,-0.5978,-0.6537,-0.7332,-0.7315,-0.7521,-0.7844,-0.7724,-0.7554,-0.7255,-0.7078,-0.6787,-0.6504,-0.6504,-0.6673,-0.6923,-0.7304,-0.7592,-0.7795,-0.8158,-0.8569,-0.9017,-0.9438,-0.9987,-1.0642,-1.1345,-1.194,-1.2496,-1.3209,-1.4111,-1.5138,-1.6185,-1.7007,-1.7663,-1.8506,-1.9127,-1.9379,-2.0157,-2.0687,-2.0819,-2.0675,-2.0236,-1.9542,-1.9425,-1.9219,-1.8769,-1.8432,-1.8073,-1.7609,-1.7084,-1.6386,-1.5639,-1.4743,-1.3742,-1.2668,-1.1624,-1.1069,-1.0867,-1.2237,-1.3592,-1.3682,-1.377,-1.4227,-1.5024,-1.4048,-1.2485,-1.1795,-1.0494,-0.9089,-0.8784,-0.8405,-0.8005,-0.7352,-0.6741,-0.5593,-0.428,-0.3232,-0.2871,-0.3684,-0.5644,-0.7736,-0.8529,-1.2433,-1.4208,-1.391,-1.3654,-1.3459,-1.3236,-1.2923,-1.2635,-1.2238,-1.1904,-1.1373,-1.0894,-1.0152,-0.9943,-1.0032,-1.0072,-0.997,-1.0174,-0.9808,-0.9486,-0.7452,-0.7438,-0.735,-0.7198,-0.7041,-0.6837,-0.6544,-0.6244,-0.6033,-0.582,-0.5606,-0.5348,-0.5194,-0.5112,-0.4829,-0.519,-0.6085,-0.6189,-0.6495,-0.6907,-0.6807,-0.6589,-0.6249,-0.6115,-0.5773,-0.5432,-0.543,-0.5599,-0.5905,-0.6204,-0.6501,-0.6794,-0.7116,-0.7529,-0.7982,-0.8383,-0.8943,-0.9626,-1.0215,-1.0811,-1.1439,-1.2053,-1.2809,-1.371,-1.4854,-1.5841,-1.6607,-1.7548,-1.8235,-1.8644,-1.9364,-1.9856,-2.0065,-1.9888,-1.948,-1.8941,-1.8798,-1.8606,-1.8243,-1.7808,-1.7296,-1.6659,-1.581,-1.4892,-1.3839,-1.3171,-1.192,-1.0168,-0.8404,-0.7093,-0.6243,-0.7048,-0.849,-0.9382,-0.9494,-0.9627,-1.0466,-0.8464,-0.6672,-0.5266,-0.3718,-0.2467,-0.1864,-0.1688,-0.1417,-0.1049,-0.0529,0.0291,0.1624,0.2509,0.2772,0.2325,-0.0999,-0.4013,-0.6543,-1.0388,-1.3087,-1.3175,-1.3236,-1.3063,-1.2738,-1.2435,-1.2051,-1.1657,-1.1164,-1.0593,-0.99,-0.9109,-0.8899,-0.8998,-0.8788,-0.8581,-0.8685,-0.8698,-0.8395,-0.648,-0.6484,-0.6484,-0.6388,-0.624,-0.6048,-0.5802,-0.5463,-0.5191,-0.4998,-0.4782,-0.4587,-0.4468,-0.4347,-0.4123,-0.4192,-0.4575,-0.5046,-0.5549,-0.5925,-0.5862,-0.561,-0.5303,-0.5091,-0.4785,-0.4387,-0.4331,-0.4554,-0.4916,-0.5038,-0.5333,-0.5714,-0.5928,-0.6346,-0.6942,-0.7273,-0.7773,-0.8379,-0.8894,-0.9515,-1.0223,-1.0692,-1.1458,-1.2557,-1.3368,-1.4508,-1.6074,-1.6659,-1.7232,-1.7748,-1.8002,-1.8181,-1.8592,-1.8633,-1.8575,-1.8454,-1.8332,-1.8007,-1.7437,-1.6743,-1.5932,-1.4964,-1.3912,-1.2537,-1.1295,-1.0993,-0.9677,-0.6582,-0.44,-0.2697,-0.1254,-0.0277,-0.108,-0.4067,-0.4182,-0.3462,-0.2475,-0.1397,-0.0095,0.1826,0.2998,0.3413,0.3872,0.439,0.4782,0.5292,0.5965,0.7104,0.8795,0.9573,0.9058,0.7033,0.357,-0.0139,-0.4474,-0.8713,-1.0805,-1.2418,-1.2622,-1.2625,-1.2165,-1.1814,-1.1321,-1.0896,-1.0117,-0.9537,-0.8747,-0.8021,-0.7824,-0.7778,-0.7505,-0.7315,-0.7439,-0.7484,-0.7207,-0.556,-0.5585,-0.5522,-0.5432,-0.5317,-0.5093,-0.4836,-0.4584,-0.4299,-0.4132,-0.4008,-0.3776,-0.3649,-0.3621,-0.3464,-0.3435,-0.3577,-0.3788,-0.4195,-0.4786,-0.485,-0.4646,-0.438,-0.417,-0.3869,-0.3453,-0.3319,-0.3372,-0.3632,-0.3862,-0.4077,-0.4287,-0.4589,-0.4933,-0.5363,-0.5788,-0.6289,-0.6832,-0.7286,-0.7937,-0.8688,-0.9256,-1.0016,-1.0994,-1.1816,-1.2806,-1.4004,-1.5502,-1.6556,-1.7061,-1.7381,-1.7639,-1.7877,-1.8016,-1.7927,-1.7657,-1.7234,-1.6678,-1.59,-1.4817,-1.3683,-1.2425,-1.0969,-0.9349,-0.7681,-0.6442,-0.4699,-0.208,-0.0163,0.1581,0.3376,0.4922,0.4212,0.0953,0.1461,0.2689,0.44,0.7368,0.9445,0.9591,1.0259,1.0988,1.1412,1.1582,1.1581,1.1993,1.2651,1.364,1.4815,1.5172,1.5759,1.4328,0.9189,0.3256,-0.0977,-0.592,-0.9819,-1.1398,-1.1892,-1.1958,-1.157,-1.1066,-1.0583,-0.9862,-0.9118,-0.8359,-0.7598,-0.7058,-0.6779,-0.659,-0.6395,-0.6349,-0.6349,-0.6231,-0.5984,-0.4532,-0.4599,-0.4468,-0.4387,-0.4336,-0.4103,-0.3876,-0.3649,-0.3425,-0.3259,-0.3161,-0.2995,-0.2894,-0.2832,-0.2739,-0.2727,-0.275,-0.2727,-0.2959,-0.3447,-0.3783,-0.369,-0.3439,-0.3275,-0.3014,-0.269,-0.2503,-0.2527,-0.267,-0.2851,-0.3027,-0.32,-0.3238,-0.3453,-0.3805,-0.4283,-0.4753,-0.5262,-0.578,-0.6328,-0.6982,-0.7636,-0.8391,-0.9265,-1.0069,-1.0946,-1.1966,-1.3538,-1.4943,-1.6022,-1.6647,-1.6906,-1.701,-1.6921,-1.6727,-1.6263,-1.5572,-1.4738,-1.3744,-1.2246,-1.0771,-0.9242,-0.7441,-0.5544,-0.3662,-0.1715,0.0285,0.2315,0.491,0.68,0.7928,0.9302,0.9219,0.8002,0.7593,0.8558,1.0607,1.3542,1.5151,1.4821,1.5299,1.6088,1.6515,1.6739,1.6928,1.7199,1.7434,1.7737,1.842,1.862,1.846,1.6601,1.0999,0.6085,0.2589,-0.267,-0.8483,-1.0175,-1.1126,-1.1096,-1.0889,-1.0297,-0.9748,-0.8661,-0.7779,-0.7111,-0.6356,-0.5849,-0.552,-0.539,-0.5277,-0.515,-0.5084,-0.4964,-0.4735,-0.3429,-0.3514,-0.3408,-0.3384,-0.336,-0.3089,-0.2858,-0.2699,-0.2505,-0.2406,-0.2272,-0.2305,-0.2203,-0.2105,-0.2077,-0.2055,-0.1999,-0.2045,-0.1909,-0.2055,-0.243,-0.2647,-0.2497,-0.2255,-0.2055,-0.1957,-0.1751,-0.1748,-0.1852,-0.1912,-0.2099,-0.2187,-0.1962,-0.1962,-0.2356,-0.2843,-0.3326,-0.38,-0.4239,-0.4706,-0.5252,-0.582,-0.6536,-0.7378,-0.8141,-0.8954,-0.9963,-1.0924,-1.2562,-1.4794,-1.5533,-1.5692,-1.5639,-1.5382,-1.487,-1.4239,-1.3402,-1.2125,-1.0847,-0.9073,-0.7273,-0.5415,-0.3408,-0.1396,0.0654,0.2599,0.4527,0.6604,0.9708,1.1795,1.1961,1.2908,1.3957,1.5056,1.341,1.3584,1.558,1.6662,1.7138,1.7867,1.8481,1.8779,1.8817,1.8943,1.9063,1.9151,1.9197,1.9304,1.9335,1.9157,1.8512,1.534,1.1101,0.67,0.2479,-0.2476,-0.7862,-0.9235,-1.0064,-1.0064,-0.9881,-0.9291,-0.8535,-0.7458,-0.655,-0.5861,-0.5252,-0.4761,-0.4435,-0.4313,-0.4165,-0.3965,-0.3772,-0.364,-0.3461,-0.2527,-0.2666,-0.2906,-0.2667,-0.213,-0.1899,-0.1769,-0.1637,-0.1672,-0.1639,-0.1639,-0.1741,-0.1742,-0.1715,-0.1683,-0.1719,-0.1659,-0.1677,-0.1341,-0.0928,-0.1007,-0.1321,-0.1378,-0.1132,-0.0954,-0.0875,-0.0642,-0.0532,-0.0639,-0.0572,-0.0581,-0.0625,-0.067,-0.0714,-0.0982,-0.1294,-0.1828,-0.2357,-0.2617,-0.2964,-0.3398,-0.3925,-0.4615,-0.5423,-0.6085,-0.6849,-0.7757,-0.8628,-1.0521,-1.3213,-1.3685,-1.3722,-1.342,-1.2941,-1.2274,-1.136,-1.0165,-0.8824,-0.7249,-0.5372,-0.3366,-0.1401,0.0655,0.2759,0.4838,0.6672,0.8516,1.0374,1.2393,1.3755,1.4477,1.5402,1.6465,1.7389,1.6689,1.6578,1.7501,1.8172,1.8591,1.8952,1.9118,1.9292,1.9443,1.9559,1.9645,1.975,1.981,1.979,1.9682,1.909,1.8274,1.4918,1.0855,0.6298,0.1701,-0.3075,-0.6687,-0.8224,-0.8877,-0.891,-0.8563,-0.8004,-0.7129,-0.6098,-0.5411,-0.4733,-0.4167,-0.3635,-0.3465,-0.3196,-0.293,-0.2655,-0.2567,-0.2407,-0.2181,-0.1134,-0.13,-0.147,-0.1301,-0.0899,-0.0734,-0.0634,-0.0602,-0.0703,-0.077,-0.0804,-0.0871,-0.094,-0.0943,-0.0976,-0.0976,-0.0976,-0.0943,-0.0673,-0.0303,-0.0101,-0.0244,-0.0434,-0.0213,-0.0036,0.0152,0.0582,0.0805,0.084,0.0876,0.0893,0.085,0.0671,0.0537,0.0447,0.0045,-0.0357,-0.0802,-0.1068,-0.1332,-0.173,-0.2173,-0.2743,-0.3437,-0.3991,-0.4611,-0.546,-0.6038,-0.7808,-1.0344,-1.1067,-1.0921,-1.0644,-0.9966,-0.9133,-0.8096,-0.6586,-0.5004,-0.3285,-0.1322,0.0704,0.2731,0.4759,0.6632,0.8526,1.0236,1.1801,1.3213,1.4348,1.5347,1.6311,1.7175,1.7956,1.8527,1.8609,1.8564,1.8788,1.8952,1.9184,1.9376,1.9513,1.9617,1.9751,1.983,1.9914,1.9989,1.9993,1.9867,1.9636,1.8818,1.7215,1.3872,1.0155,0.5592,0.142,-0.3133,-0.5861,-0.739,-0.7376,-0.7477,-0.7136,-0.658,-0.5808,-0.4935,-0.4263,-0.3621,-0.3074,-0.2553,-0.2229,-0.1973,-0.1647,-0.1452,-0.1334,-0.116,-0.0937,0.0469,0.0334,0.0503,0.0469,0.0434,0.0467,0.0534,0.0434,0.0301,0.0235,0.0201,0.0168,0.0067,0.0034,-0.0,-0.0,-0.0,0.0067,0.0168,0.037,0.0571,0.0611,0.0443,0.0613,0.0764,0.098,0.1677,0.1915,0.1915,0.2007,0.2104,0.2016,0.1881,0.1836,0.17,0.1342,0.1028,0.0804,0.0534,0.0311,-0.0044,-0.0444,-0.0931,-0.1415,-0.1804,-0.227,-0.2853,-0.3256,-0.4417,-0.7476,-0.7671,-0.7589,-0.7254,-0.6415,-0.5375,-0.4126,-0.2604,-0.0954,0.0831,0.2698,0.4702,0.659,0.8383,1.0182,1.1699,1.3013,1.4181,1.5281,1.6276,1.6922,1.76,1.8399,1.8815,1.9127,1.9292,1.9356,1.9326,1.937,1.9495,1.9625,1.9754,1.9872,1.999,2.0078,2.0139,2.0113,2.0034,1.9703,1.9072,1.8031,1.5904,1.288,0.8965,0.4824,0.0848,-0.3074,-0.4985,-0.6494,-0.5964,-0.5757,-0.5486,-0.4984,-0.4411,-0.3757,-0.307,-0.2482,-0.1926,-0.1472,-0.1071,-0.0749,-0.0471,-0.029,-0.0087,0.0089,0.0268,0.1814,0.1701,0.2149,0.2285,0.2141,0.2077,0.1843,0.154,0.1239,0.1072,0.1039,0.1007,0.1009,0.0976,0.0841,0.0842,0.0807,0.0908,0.1078,0.1143,0.1309,0.1475,0.1475,0.161,0.1587,0.1643,0.1917,0.2236,0.2344,0.2574,0.264,0.2725,0.2768,0.2724,0.2677,0.2588,0.2542,0.2454,0.2091,0.1954,0.1866,0.1375,0.093,0.0575,0.0352,0.0175,0.0087,0.0302,0.0128,-0.0927,-0.2544,-0.3436,-0.3157,-0.2369,-0.1331,-0.0166,0.1373,0.2964,0.4543,0.6292,0.8083,0.9669,1.1159,1.2747,1.406,1.5051,1.5983,1.6799,1.7453,1.797,1.8551,1.8972,1.9243,1.9409,1.955,1.9647,1.9667,1.9701,1.9748,1.9828,1.9911,2.0003,2.0121,2.0202,2.0245,2.0244,1.993,1.9516,1.8493,1.7329,1.4778,1.1958,0.8289,0.435,0.0894,-0.2506,-0.4309,-0.5311,-0.4784,-0.4111,-0.3849,-0.3495,-0.2961,-0.2449,-0.1931,-0.1338,-0.0742,-0.0244,0.0181,0.0459,0.0684,0.0925,0.1133,0.1282,0.1427,0.3229,0.3114,0.3362,0.3368,0.3165,0.2979,0.2712,0.2374,0.2074,0.1808,0.1677,0.1646,0.1578,0.1444,0.1377,0.131,0.1309,0.1444,0.1579,0.1713,0.1878,0.2042,0.2276,0.2411,0.2377,0.2206,0.2429,0.2694,0.2929,0.3132,0.3362,0.3598,0.3642,0.369,0.3735,0.3737,0.3737,0.3642,0.3504,0.3413,0.3328,0.3143,0.2867,0.2772,0.2673,0.2747,0.2943,0.34,0.377,0.3654,0.2839,0.1578,0.0965,0.1637,0.2687,0.3812,0.5124,0.66,0.8069,0.9441,1.0904,1.2263,1.3524,1.4582,1.5629,1.6507,1.713,1.7686,1.8162,1.8634,1.911,1.9299,1.9456,1.9619,1.9738,1.9839,1.9916,1.9924,1.9945,2.003,2.0105,2.0175,2.027,2.0312,2.0223,2.0175,1.9691,1.9209,1.7871,1.6492,1.398,1.1062,0.7607,0.4124,0.0863,-0.1828,-0.3714,-0.4188,-0.3772,-0.2959,-0.2337,-0.198,-0.159,-0.1164,-0.0768,-0.0137,0.0451,0.0933,0.138,0.1702,0.1948,0.2136,0.2313,0.2477,0.2581,0.4668,0.4494,0.4393,0.4213,0.3968,0.3774,0.3482,0.3161,0.2803,0.2539,0.2281,0.2179,0.2013,0.1809,0.1741,0.1707,0.1708,0.1777,0.1978,0.2181,0.2376,0.2573,0.284,0.3039,0.314,0.3,0.313,0.3389,0.3681,0.3943,0.4244,0.4546,0.4648,0.4735,0.4829,0.4874,0.4913,0.486,0.4892,0.4844,0.4715,0.471,0.4737,0.4893,0.5092,0.5326,0.5678,0.6207,0.6779,0.7316,0.8115,0.7186,0.5963,0.5531,0.6447,0.7455,0.8532,0.9675,1.0769,1.2075,1.3239,1.4449,1.5234,1.6045,1.684,1.7422,1.7898,1.8286,1.8681,1.9031,1.9381,1.9513,1.9636,1.9782,1.9881,1.998,2.0069,2.0079,2.0143,2.0186,2.0248,2.0303,2.0336,2.0355,2.0222,2.0002,1.9497,1.8734,1.7406,1.57,1.3323,1.0756,0.7452,0.3705,0.0363,-0.1242,-0.3107,-0.3057,-0.2662,-0.1779,-0.0911,-0.034,0.0,-0.0033,0.037,0.1001,0.1564,0.2011,0.2456,0.2864,0.3138,0.3293,0.3468,0.3635,0.3688,0.6041,0.578,0.5665,0.5459,0.5168,0.4859,0.4578,0.425,0.3776,0.3392,0.3066,0.281,0.2578,0.2408,0.2307,0.2273,0.2307,0.2374,0.2477,0.2679,0.2873,0.3136,0.3397,0.3693,0.3863,0.4038,0.4142,0.4295,0.4502,0.483,0.5207,0.5505,0.569,0.5816,0.599,0.6127,0.6204,0.6195,0.6265,0.6256,0.6292,0.6406,0.6645,0.6921,0.7282,0.768,0.815,0.8779,0.9367,0.982,1.0549,1.0783,1.0359,0.9728,0.9747,1.0242,1.1234,1.2231,1.3062,1.4073,1.5023,1.5806,1.6467,1.7052,1.7645,1.813,1.8492,1.8789,1.9079,1.937,1.9541,1.9666,1.9778,1.9904,1.999,2.0107,2.0185,2.0258,2.0298,2.0312,2.0356,2.0379,2.036,2.0275,2.006,1.9697,1.9136,1.8242,1.7004,1.5206,1.309,1.0383,0.7547,0.3653,-0.0219,-0.1159,-0.226,-0.1931,-0.1432,-0.0522,0.0352,0.1208,0.1558,0.1672,0.1725,0.2101,0.2636,0.3148,0.3575,0.4,0.424,0.447,0.4537,0.4602,0.4652,0.7312,0.7107,0.6955,0.6695,0.6356,0.6017,0.5623,0.5186,0.4726,0.429,0.3943,0.3623,0.3331,0.3163,0.3034,0.3035,0.3035,0.3037,0.3171,0.3368,0.356,0.3788,0.4075,0.4333,0.4716,0.5123,0.538,0.5394,0.5326,0.5682,0.6157,0.6579,0.6803,0.6927,0.7095,0.7262,0.7388,0.7509,0.7612,0.7717,0.7833,0.8063,0.8496,0.8887,0.9278,0.9756,1.0242,1.0808,1.1393,1.1918,1.2568,1.312,1.3276,1.3271,1.2824,1.2835,1.3441,1.4253,1.4853,1.5643,1.6241,1.6789,1.7379,1.7833,1.8217,1.8567,1.8913,1.9184,1.9394,1.9613,1.9738,1.9847,1.9926,2.0001,2.0098,2.0203,2.0289,2.037,2.0385,2.0384,2.0415,2.0403,2.0316,2.0159,1.9904,1.9413,1.88,1.7772,1.6629,1.4928,1.3009,1.0118,0.731,0.4009,0.0706,-0.029,-0.0982,-0.0736,-0.0141,0.0758,0.1655,0.2498,0.316,0.3527,0.358,0.3595,0.3875,0.446,0.4778,0.5073,0.5273,0.5452,0.551,0.5567,0.5572,0.8756,0.8615,0.8537,0.8242,0.7841,0.7361,0.6863,0.6288,0.574,0.5234,0.4773,0.4485,0.4194,0.3973,0.3851,0.3793,0.3763,0.3793,0.3956,0.4148,0.4296,0.4488,0.4779,0.5125,0.5506,0.6093,0.6604,0.6713,0.6429,0.6701,0.7166,0.7568,0.7886,0.805,0.8177,0.8448,0.8492,0.8646,0.8831,0.9058,0.9367,0.9828,1.0281,1.0618,1.1047,1.1485,1.1987,1.25,1.3063,1.3611,1.419,1.4661,1.5102,1.559,1.5524,1.5067,1.5301,1.5793,1.6246,1.6704,1.7157,1.7578,1.7971,1.8336,1.8643,1.8939,1.9226,1.9525,1.9664,1.979,1.9883,1.9979,2.005,2.0116,2.0193,2.028,2.0357,2.0424,2.0455,2.0457,2.0477,2.0401,2.0276,2.0041,1.9783,1.9214,1.8608,1.7624,1.6425,1.5074,1.2964,0.9955,0.7025,0.4177,0.1908,0.0954,0.0521,0.059,0.1264,0.2117,0.2965,0.3839,0.4449,0.508,0.5418,0.5466,0.5633,0.5642,0.587,0.6091,0.6322,0.6435,0.6428,0.6428,0.6435,1.0586,1.043,1.0741,1.0629,1.0049,0.922,0.8547,0.7971,0.7011,0.6208,0.5749,0.538,0.507,0.4795,0.4555,0.4465,0.4433,0.4532,0.4663,0.4884,0.5023,0.5285,0.555,0.5817,0.6502,0.7148,0.7644,0.7573,0.7589,0.7952,0.8238,0.8606,0.8888,0.9084,0.9337,0.96,0.9762,0.9875,1.0128,1.0497,1.0945,1.127,1.1637,1.2076,1.2495,1.2933,1.3358,1.388,1.4443,1.4852,1.5389,1.5821,1.6165,1.6632,1.6962,1.6913,1.6897,1.683,1.7165,1.7495,1.7816,1.8147,1.8471,1.8706,1.8965,1.9243,1.9513,1.9745,1.9835,1.9909,2.0002,2.0098,2.0169,2.0229,2.0299,2.036,2.0413,2.0451,2.0487,2.0427,2.0411,2.0315,2.0195,1.9933,1.9625,1.902,1.8326,1.735,1.6174,1.4748,1.2965,0.9957,0.763,0.4864,0.326,0.2296,0.2004,0.1982,0.2673,0.3458,0.4317,0.5132,0.5861,0.6433,0.6828,0.6987,0.6883,0.6904,0.6969,0.7066,0.7238,0.728,0.7245,0.7248,0.7206,1.3147,1.2229,1.2188,1.2005,1.1606,1.0874,1.0125,0.9329,0.8504,0.7644,0.6913,0.6447,0.6056,0.5694,0.5494,0.5414,0.5386,0.5442,0.5561,0.5784,0.6005,0.6293,0.6823,0.718,0.7702,0.8465,0.9033,0.9462,0.9331,0.9233,0.9323,0.9609,0.9923,1.0196,1.0427,1.0728,1.0879,1.1095,1.1445,1.1877,1.2271,1.2659,1.3004,1.3384,1.3795,1.4151,1.4568,1.4988,1.5506,1.5905,1.6331,1.6674,1.7028,1.7365,1.7634,1.785,1.7881,1.7851,1.7898,1.8156,1.8367,1.8615,1.8869,1.9075,1.9314,1.9532,1.9712,1.986,1.996,2.0041,2.0112,2.0208,2.0258,2.032,2.0376,2.041,2.0447,2.0476,2.0486,2.0415,2.0327,2.0202,2.0034,1.9766,1.9428,1.8894,1.8216,1.7317,1.5876,1.4215,1.2286,1.0016,0.7992,0.5939,0.4738,0.3767,0.35,0.3567,0.4078,0.488,0.5638,0.6448,0.7134,0.7728,0.8126,0.8199,0.8095,0.7967,0.7912,0.7985,0.8103,0.807,0.7991,0.7957,0.7916,1.5423,1.4454,1.3918,1.3513,1.3207,1.255,1.1774,1.0935,1.0132,0.919,0.8208,0.7525,0.6968,0.661,0.648,0.6476,0.6547,0.6599,0.6849,0.708,0.7351,0.7734,0.8193,0.8627,0.9119,1.0006,1.0246,1.0695,1.0978,1.0912,1.0707,1.0634,1.1003,1.1276,1.1488,1.1735,1.202,1.2319,1.2728,1.3113,1.3477,1.3835,1.416,1.4502,1.4843,1.5189,1.5579,1.592,1.6339,1.6716,1.7044,1.7367,1.7662,1.7932,1.8156,1.8356,1.8484,1.8579,1.8541,1.8652,1.8816,1.899,1.9196,1.938,1.9605,1.9782,1.9892,1.9962,2.0039,2.0139,2.0219,2.0283,2.0328,2.0369,2.0409,2.0447,2.0476,2.0488,2.0458,2.0362,2.0231,2.0049,1.9851,1.9585,1.9204,1.8735,1.8049,1.7244,1.5762,1.4036,1.2426,1.0509,0.8854,0.7173,0.6141,0.5326,0.5116,0.5084,0.5595,0.6184,0.6889,0.7568,0.8204,0.8772,0.9235,0.9389,0.9282,0.9045,0.8797,0.8752,0.8752,0.872,0.8683,0.8655,0.8578,1.7054,1.7409,1.6312,1.5634,1.5238,1.4249,1.3527,1.279,1.185,1.0801,0.9626,0.8606,0.7934,0.7593,0.761,0.7731,0.7974,0.803,0.8393,0.8878,0.9299,0.9396,0.9707,0.9999,1.036,1.0932,1.1343,1.1809,1.2266,1.2407,1.2098,1.1842,1.2043,1.2264,1.2496,1.2794,1.316,1.3484,1.3887,1.4153,1.4498,1.4817,1.5114,1.5404,1.573,1.6054,1.6405,1.6706,1.7002,1.7352,1.7639,1.7893,1.8158,1.8402,1.8604,1.8753,1.8913,1.9007,1.9048,1.9033,1.9108,1.9265,1.9439,1.9612,1.9775,1.9913,2.0014,2.0081,2.0145,2.0207,2.0279,2.034,2.0396,2.0425,2.0449,2.0474,2.0488,2.0482,2.0427,2.031,2.0153,1.9981,1.9752,1.9494,1.917,1.8735,1.7915,1.7101,1.5874,1.428,1.3006,1.1382,0.9863,0.8463,0.743,0.6824,0.6457,0.6489,0.6844,0.7418,0.8049,0.8655,0.9231,0.9579,0.9972,1.022,1.0385,1.0055,0.9732,0.9469,0.9355,0.9359,0.9284,0.9212,0.9177,1.8127,1.8283,1.77,1.7101,1.647,1.5729,1.4937,1.4146,1.3374,1.2297,1.1026,1.0315,0.9812,0.9585,0.942,0.942,0.9573,0.9638,0.9918,1.0111,1.0359,1.0702,1.0984,1.1379,1.1733,1.2255,1.2593,1.2805,1.3187,1.3456,1.3596,1.3395,1.3225,1.3238,1.3469,1.3802,1.4217,1.4571,1.4864,1.5121,1.5345,1.5659,1.595,1.618,1.6443,1.674,1.7052,1.732,1.7587,1.7849,1.8128,1.8342,1.8556,1.8779,1.8939,1.9048,1.9205,1.9329,1.9394,1.9374,1.938,1.9568,1.9704,1.9811,1.9927,2.005,2.0127,2.0183,2.0222,2.0286,2.0352,2.0415,2.0468,2.0472,2.0489,2.0506,2.0488,2.0467,2.0395,2.0267,2.0116,1.9949,1.9695,1.9434,1.9093,1.869,1.7829,1.6912,1.5781,1.4739,1.35,1.2354,1.0882,0.9667,0.8593,0.8123,0.7732,0.7897,0.8102,0.8589,0.9124,0.9649,1.0176,1.048,1.07,1.0938,1.1019,1.0895,1.0629,1.0249,1.0021,0.9952,0.9878,0.9765,0.9686,1.8893,1.8859,1.8635,1.8083,1.7374,1.6879,1.616,1.5414,1.485,1.3778,1.2428,1.189,1.1505,1.1301,1.1125,1.1124,1.1138,1.1242,1.1421,1.1634,1.191,1.213,1.2453,1.2728,1.2986,1.3504,1.3722,1.3914,1.4051,1.429,1.4474,1.4537,1.448,1.4435,1.4354,1.4772,1.5197,1.5514,1.5724,1.5922,1.611,1.6389,1.6644,1.6833,1.706,1.7312,1.7555,1.7791,1.801,1.8252,1.8471,1.8698,1.8905,1.9078,1.9205,1.9311,1.9438,1.9546,1.9609,1.964,1.9634,1.9814,1.9908,1.9982,2.006,2.018,2.0234,2.0237,2.0289,2.0355,2.043,2.0478,2.0493,2.0501,2.0495,2.0504,2.0457,2.043,2.0328,2.0227,2.0069,1.9894,1.9615,1.9313,1.8884,1.8484,1.7842,1.7069,1.6243,1.5205,1.4233,1.3084,1.1898,1.0802,0.9808,0.9336,0.8947,0.8992,0.9231,0.9674,1.0162,1.0644,1.0992,1.1244,1.1431,1.1616,1.1653,1.1573,1.1244,1.0878,1.0682,1.0485,1.038,1.0269,1.0196,1.9341,1.9283,1.913,1.869,1.8056,1.7631,1.7156,1.6625,1.613,1.5173,1.3863,1.3137,1.269,1.247,1.2461,1.2549,1.2727,1.2814,1.3022,1.3394,1.3433,1.3755,1.3834,1.3977,1.4044,1.4203,1.4449,1.4676,1.4869,1.5068,1.5315,1.5535,1.5579,1.5528,1.518,1.5543,1.595,1.6258,1.6448,1.6599,1.6773,1.7002,1.7207,1.7376,1.7549,1.7769,1.8001,1.8191,1.8402,1.8586,1.8789,1.8991,1.9168,1.9314,1.9419,1.9485,1.9684,1.9779,1.98,1.9858,1.9926,1.999,2.006,2.0115,2.0187,2.0271,2.0306,2.0313,2.0363,2.0419,2.0474,2.0511,2.051,2.0505,2.0505,2.0492,2.0447,2.0377,2.0294,2.0177,2.0011,1.9826,1.9532,1.92,1.8708,1.8235,1.7729,1.7134,1.6515,1.5736,1.4777,1.3847,1.2761,1.183,1.0881,1.0461,1.0167,1.0205,1.0355,1.07,1.1003,1.1388,1.1695,1.1962,1.2108,1.221,1.2252,1.2258,1.1884,1.1473,1.1169,1.0976,1.0878,1.0774,1.0664,1.9658,1.9614,1.9499,1.9237,1.8848,1.8314,1.786,1.7404,1.6778,1.6092,1.5483,1.4913,1.4629,1.4443,1.4263,1.4269,1.438,1.4396,1.4649,1.4623,1.4696,1.4717,1.4776,1.4845,1.4937,1.5082,1.524,1.5411,1.5646,1.5824,1.6014,1.6235,1.6473,1.6488,1.6301,1.6416,1.6625,1.6858,1.701,1.7159,1.7328,1.7502,1.7664,1.7805,1.7967,1.8166,1.8382,1.8557,1.8708,1.8912,1.9099,1.9261,1.9398,1.9513,1.9634,1.9704,1.9849,1.9986,2.005,2.0126,2.0134,2.0162,2.0187,2.0235,2.0275,2.0328,2.0357,2.0375,2.042,2.047,2.0509,2.0511,2.0504,2.0506,2.0506,2.0474,2.0429,2.035,2.026,2.0115,1.996,1.9707,1.9442,1.9189,1.8734,1.8382,1.7915,1.7447,1.6868,1.6184,1.5316,1.4488,1.3532,1.27,1.1947,1.144,1.1153,1.1105,1.1297,1.1568,1.1872,1.2126,1.2312,1.2532,1.265,1.2768,1.2697,1.2621,1.2395,1.2096,1.1757,1.1425,1.1287,1.1191,1.1136,1.9892,1.9889,1.9754,1.9612,1.9406,1.8884,1.8369,1.7872,1.7294,1.6878,1.6588,1.6354,1.6134,1.5927,1.5846,1.5749,1.5736,1.5657,1.5607,1.5557,1.5579,1.5572,1.5594,1.5631,1.571,1.5832,1.593,1.6097,1.6258,1.6493,1.6714,1.696,1.724,1.7263,1.7191,1.7175,1.7175,1.74,1.7532,1.7616,1.7769,1.7919,1.8061,1.8191,1.8362,1.8535,1.8752,1.8886,1.9013,1.9202,1.9374,1.9504,1.9595,1.972,1.9849,1.9918,1.9992,2.0125,2.0211,2.0275,2.0272,2.0263,2.032,2.0331,2.0341,2.0408,2.0424,2.0439,2.0472,2.0494,2.0509,2.0505,2.0507,2.051,2.0468,2.0439,2.0387,2.031,2.0203,2.006,1.9886,1.963,1.9372,1.9102,1.8815,1.8487,1.8146,1.7693,1.7207,1.6525,1.5864,1.5041,1.4281,1.3464,1.28,1.233,1.2115,1.2043,1.2193,1.2378,1.262,1.2824,1.2947,1.3063,1.3214,1.3254,1.3082,1.2937,1.2756,1.2544,1.2324,1.2029,1.1732,1.1564,1.1506,2.0107,2.0089,1.997,1.9853,1.971,1.9283,1.8762,1.8211,1.7864,1.7566,1.7319,1.7223,1.7044,1.6861,1.681,1.6716,1.6541,1.6523,1.6443,1.6416,1.6366,1.6343,1.6324,1.6351,1.6378,1.6466,1.6591,1.6698,1.6858,1.7085,1.7351,1.7633,1.783,1.7915,1.7898,1.7832,1.7783,1.788,1.7958,1.8027,1.814,1.8319,1.845,1.8585,1.8715,1.8887,1.906,1.9189,1.9286,1.941,1.9545,1.967,1.9809,1.9947,2.0039,2.0107,2.0156,2.0236,2.0302,2.0359,2.0392,2.0383,2.0399,2.0399,2.0419,2.0463,2.048,2.0477,2.0501,2.0507,2.0507,2.0506,2.0507,2.0476,2.0431,2.0385,2.0325,2.024,2.0142,2.0001,1.9851,1.9627,1.9377,1.9119,1.8905,1.8651,1.8333,1.8014,1.753,1.6943,1.6278,1.5621,1.4866,1.4219,1.363,1.3135,1.2935,1.2818,1.2935,1.3113,1.3319,1.3488,1.3562,1.3648,1.3762,1.3735,1.3499,1.3295,1.3123,1.2908,1.2726,1.2437,1.2096,1.1915,1.1822,2.0211,2.0167,2.0069,2.0002,1.9897,1.9604,1.9175,1.8699,1.839,1.8159,1.7988,1.7894,1.7762,1.7642,1.7545,1.7461,1.7375,1.7288,1.7183,1.7109,1.7052,1.6952,1.6935,1.6943,1.6985,1.7035,1.715,1.7288,1.7415,1.7639,1.7854,1.8116,1.8287,1.8419,1.8478,1.8478,1.8379,1.831,1.8353,1.8423,1.8512,1.867,1.8807,1.8931,1.9008,1.9175,1.9305,1.9423,1.9532,1.9679,1.9807,1.9928,1.9993,2.0097,2.0177,2.0243,2.0299,2.0352,2.0381,2.0439,2.0477,2.0466,2.0469,2.0465,2.047,2.0492,2.0513,2.0509,2.0515,2.0517,2.0515,2.0505,2.0497,2.046,2.041,2.0357,2.0291,2.0219,2.0116,1.9959,1.9811,1.9627,1.9377,1.9216,1.9009,1.8789,1.852,1.8214,1.7837,1.7263,1.6716,1.6071,1.5455,1.4772,1.4367,1.3875,1.3722,1.3635,1.3669,1.3742,1.3908,1.4046,1.4111,1.4118,1.4124,1.4,1.3808,1.3607,1.3397,1.3232,1.3012,1.2756,1.2502,1.2282,1.2102,2.0327,2.0268,2.0208,2.0133,2.0012,1.9816,1.9531,1.9252,1.8928,1.8717,1.8562,1.8447,1.8367,1.8258,1.8153,1.8078,1.8005,1.7876,1.7766,1.7707,1.7631,1.7553,1.7516,1.7516,1.7539,1.7593,1.7679,1.7791,1.7901,1.8107,1.8342,1.8498,1.8658,1.8761,1.8825,1.8878,1.886,1.8762,1.8735,1.8807,1.8886,1.899,1.9115,1.9252,1.932,1.9419,1.9549,1.9673,1.9804,1.9919,2.004,2.0106,2.0171,2.0241,2.0315,2.0374,2.041,2.0439,2.0452,2.0463,2.0493,2.0507,2.0511,2.0519,2.0526,2.0548,2.0529,2.0509,2.0527,2.0535,2.0516,2.0507,2.0481,2.0443,2.0385,2.0337,2.0272,2.0214,2.0079,1.9924,1.9751,1.9573,1.9413,1.9286,1.911,1.8878,1.8652,1.8413,1.8048,1.7576,1.7101,1.6552,1.5976,1.5389,1.4984,1.4603,1.4381,1.4253,1.4208,1.4312,1.4493,1.4525,1.4511,1.444,1.4369,1.4215,1.4059,1.3835,1.3634,1.3465,1.3301,1.3053,1.2797,1.2615,1.2395,2.0416,2.0387,2.0321,2.0223,2.0115,1.9971,1.9897,1.9862,1.9434,1.918,1.9046,1.8955,1.886,1.8753,1.8661,1.8559,1.8482,1.8384,1.8284,1.8258,1.8161,1.8081,1.8048,1.8111,1.8069,1.8099,1.817,1.8252,1.8313,1.85,1.8679,1.8825,1.8984,1.9076,1.9117,1.9205,1.9218,1.9225,1.9168,1.9178,1.9221,1.9299,1.94,1.9532,1.9606,1.9673,1.9821,1.9949,2.0059,2.0116,2.0193,2.0251,2.0312,2.0366,2.0434,2.0459,2.0483,2.0503,2.051,2.0518,2.0521,2.0521,2.0511,2.0541,2.0572,2.0559,2.0533,2.0508,2.0523,2.0525,2.0516,2.0494,2.047,2.0425,2.0373,2.0311,2.025,2.0171,2.003,1.9891,1.9751,1.9596,1.9489,1.9366,1.9191,1.8974,1.878,1.8567,1.8264,1.7854,1.7437,1.6977,1.6454,1.5915,1.5514,1.5157,1.4951,1.4835,1.4756,1.4787,1.488,1.4894,1.4909,1.4801,1.4662,1.4465,1.4305,1.4085,1.3868,1.3674,1.3512,1.3307,1.3094,1.2873,1.2656,2.0444,2.0386,2.0337,2.0277,2.0227,2.0171,2.0088,2.0031,1.9888,1.966,1.9472,1.9346,1.9274,1.9209,1.909,1.8981,1.8956,1.8798,1.8753,1.8707,1.8643,1.854,1.85,1.854,1.8557,1.8529,1.8567,1.868,1.8762,1.8887,1.8956,1.8977,1.9168,1.9299,1.9356,1.9443,1.9532,1.9587,1.9589,1.9526,1.9495,1.9608,1.972,1.9807,1.9866,1.9922,2.0031,2.0096,2.0172,2.0239,2.0308,2.0374,2.0444,2.0472,2.049,2.0509,2.0506,2.0521,2.0546,2.0548,2.0551,2.0574,2.0576,2.0585,2.0585,2.0557,2.0537,2.0519,2.0506,2.0509,2.05,2.049,2.0459,2.0403,2.0343,2.0294,2.0236,2.0107,1.9978,1.9858,1.9751,1.9645,1.9541,1.9411,1.9246,1.9092,1.8939,1.8753,1.8519,1.817,1.776,1.7304,1.6868,1.6389,1.6001,1.5682,1.5433,1.5269,1.5193,1.5224,1.5239,1.5224,1.5208,1.5093,1.4963,1.4763,1.4536,1.4312,1.4131,1.3908,1.3681,1.3472,1.3232,1.3012,1.2838,2.0472,2.0434,2.0365,2.0353,2.0331,2.0272,2.0208,2.0186,2.0124,2.0012,1.9839,1.9673,1.9572,1.9559,1.9433,1.9341,1.9295,1.9187,1.9132,1.9092,1.9024,1.8947,1.8921,1.893,1.8931,1.8904,1.893,1.9008,1.9117,1.92,1.9212,1.9231,1.9396,1.9513,1.9572,1.9691,1.9797,1.9875,1.9918,1.988,1.9792,1.9878,1.9961,2.0021,2.0106,2.0157,2.0214,2.0268,2.0311,2.037,2.0413,2.0429,2.0477,2.05,2.0509,2.0505,2.0507,2.0507,2.0547,2.0566,2.0555,2.0571,2.0565,2.0558,2.055,2.0518,2.0518,2.0509,2.0506,2.051,2.0498,2.0478,2.0433,2.039,2.0328,2.0272,2.0186,2.0069,1.9977,1.9887,1.9782,1.9662,1.956,1.9464,1.9311,1.9159,1.9008,1.8843,1.8623,1.841,1.8023,1.7647,1.7215,1.6773,1.6367,1.6072,1.5818,1.5689,1.5595,1.5529,1.5485,1.55,1.5485,1.5306,1.5124,1.4925,1.4732,1.4511,1.4293,1.4072,1.3841,1.3607,1.3397,1.3151,1.2943,2.0511,2.0498,2.0434,2.0415,2.0413,2.0359,2.0299,2.031,2.0255,2.0225,2.0167,1.9963,1.9862,1.98,1.9704,1.9625,1.9526,1.9471,1.9442,1.9416,1.9305,1.9231,1.9218,1.9239,1.9232,1.9232,1.9255,1.9283,1.9326,1.9413,1.9485,1.9559,1.9656,1.9773,1.983,1.9904,1.9971,2.0031,2.0078,2.0157,2.0157,2.0159,2.0157,2.0215,2.0294,2.0347,2.0383,2.041,2.0449,2.0472,2.0484,2.0491,2.0488,2.0507,2.0505,2.0509,2.0509,2.0508,2.0518,2.0518,2.0516,2.0511,2.051,2.051,2.0499,2.0496,2.0496,2.0496,2.0496,2.0494,2.0478,2.0448,2.0406,2.0366,2.031,2.0242,2.0143,2.0049,1.9986,1.9908,1.9804,1.9697,1.9592,1.9484,1.9351,1.92,1.9043,1.8861,1.8669,1.8478,1.8208,1.788,1.7532,1.7118,1.6712,1.6429,1.6156,1.6004,1.587,1.5784,1.5704,1.5683,1.5603,1.5395,1.5208,1.5048,1.4825,1.4574,1.4422,1.4203,1.398,1.3708,1.3459,1.3254,1.3053,2.0513,2.0509,2.0476,2.0478,2.0459,2.0395,2.0383,2.0388,2.0373,2.0327,2.0282,2.0254,2.0162,2.0049,1.9896,1.9821,1.9764,1.972,1.9729,1.9709,1.9578,1.9485,1.9457,1.9466,1.9512,1.9517,1.9489,1.9518,1.9523,1.9632,1.9701,1.9695,1.9788,1.9935,2.0096,2.0136,2.0143,2.0175,2.0248,2.0331,2.0331,2.0308,2.0298,2.0334,2.0365,2.0425,2.047,2.047,2.0486,2.0502,2.0508,2.0504,2.0495,2.0492,2.0499,2.0483,2.0483,2.0496,2.0489,2.0501,2.0503,2.0487,2.0486,2.0488,2.0476,2.0439,2.0439,2.0449,2.0444,2.0459,2.0453,2.0416,2.0386,2.0327,2.0265,2.0195,2.0117,2.005,1.9978,1.9909,1.9835,1.9729,1.9628,1.9513,1.9414,1.9282,1.9128,1.8966,1.8815,1.8593,1.8368,1.8074,1.7791,1.7424,1.7018,1.6686,1.6448,1.6301,1.6151,1.6011,1.5898,1.5827,1.5683,1.5477,1.5298,1.5117,1.4894,1.4655,1.4447,1.4229,1.4046,1.3815,1.3567,1.3288,1.3088]},{"header":{"parameterUnit":"m.s-1","parameterCategory":1,"la1":31.0,"la2":29.5877,"lo1":-88.7671,"lo2":-86.6584,"dy":0.0162,"dx":0.0185,"nx":115,"ny":88,"refTime":"2024-07-31T00:00:00:Z","depth":0,"parameterNumber":3,"parameterNumberName":"V-component_of_WINDS"},"data":[0.0,0.0,0.0,0.0,0.0,0.0,0.0,0.0,0.0,0.0,0.0,0.0,0.0,0.0,0.0,0.0,0.0,0.0,0.0,0.0,0.0,0.0,0.0,0.0,0.0,0.0,0.0,0.0,0.0,0.0,0.0,0.0,0.0,0.0,0.0,0.0,0.0,0.0,0.0,0.0,0.0,0.0,0.0,0.0,0.0,0.0,0.0,0.0,0.0,0.0,0.0,0.0,0.0,0.0,0.0,0.0,0.0,0.0,0.0,0.0,0.0,0.0,0.0,0.0,0.0,0.0,0.0,0.0,0.0,0.0,0.0,0.0,0.0,0.0,0.0,0.0,0.0,0.0,0.0,0.0,0.0,0.0,0.0,0.0,0.0,0.0,0.0,0.0,0.0,0.0,0.0,0.0,0.0,0.0,0.0,0.0,0.0,0.0,0.0,0.0,0.0,0.0,0.0,0.0,0.0,0.0,0.0,0.0,0.0,0.0,0.0,0.0,0.0,0.0,0.0,0.0,0.0,0.0,0.0,0.0,0.0,0.0,0.0,0.0,0.0,0.0,0.0,0.0,0.0,0.0,0.0,0.0,0.0,0.0,0.0,0.0,0.0,0.0,0.0,0.0,0.0,0.0,0.0,0.0,0.0,0.0,0.0,0.0,0.0,0.0,0.0,0.0,0.0,0.0,0.0,0.0,0.0,0.0,0.0,0.0,0.0,0.0,0.0,0.0,0.0,0.0,0.0,0.0,0.0,0.0,0.0,0.0,0.0,0.0,0.0,0.0,0.0,0.0,0.0,0.0,0.0,0.0,0.0,0.0,0.0,0.0,0.0,0.0,0.0,0.0,0.0,0.0,0.0,0.0,0.0,0.0,0.0,0.0,0.0,0.0,0.0,0.0,0.0,0.0,0.0,0.0,0.0,0.0,0.0,0.0,0.0,0.0,0.0,0.0,0.0,0.0,0.0,0.0,0.0,0.0,0.0,0.0,0.0,0.0,0.0,0.0,0.0,0.0,0.0,0.0,0.0,0.0,0.0,0.0,0.0,0.0,0.0,0.0,0.0,0.0,0.0,0.0,0.0,0.0,0.0,0.0,0.0,0.0,0.0,0.0,0.0,0.0,0.0,0.0,0.0,0.0,0.0,0.0,0.0,0.0,0.0,0.0,0.0,0.0,0.0,0.0,0.0,0.0,0.0,0.0,0.0,0.0,0.0,0.0,0.0,0.0,0.0,0.0,0.0,0.0,0.0,0.0,0.0,0.0,0.0,0.0,0.0,0.0,0.0,0.0,0.0,0.0,0.0,0.0,0.0,0.0,0.0,0.0,0.0,0.0,0.0,0.0,0.0,0.0,0.0,0.0,0.0,0.0,0.0,0.0,0.0,0.0,0.0,0.0,0.0,0.0,0.0,0.0,0.0,0.0,0.0,0.0,0.0,0.0,0.0,0.0,0.0,0.0,0.0,0.0,0.0,0.0,0.0,0.0,0.0,0.0,0.0,0.0,0.0,0.0,0.0,0.0,0.0,0.0,0.0,0.0,0.0,0.0,0.0,0.0,0.0,0.0,0.0,0.0,0.0,0.0,0.0,0.0,0.0,0.0,0.0,0.0,0.0,0.0,0.0,0.0,0.0,0.0,0.0,0.0,0.0,0.0,0.0,0.0,0.0,0.0,0.0,0.0,0.0,0.0,0.0,0.0,0.0,0.0,0.0,0.0,0.0,0.0,0.0,0.0,0.0,0.0,0.0,0.0,0.0,0.0,0.0,0.0,0.0,0.0,0.0,0.0,0.0,0.0,0.0,0.0,0.0,0.0,0.0,0.0,0.0,0.0,0.0,0.0,0.0,0.0,0.0,0.0,0.0,0.0,0.0,0.0,0.0,0.0,0.0,0.0,0.0,0.0,0.0,0.0,0.0,0.0,0.0,0.0,0.0,0.0,0.0,0.0,0.0,0.0,0.0,0.0,0.0,0.0,0.0,0.0,0.0,0.0,0.0,0.0,0.0,0.0,0.0,0.0,0.0,0.0,0.0,0.0,0.0,0.0,0.0,0.0,0.0,0.0,0.0,0.0,0.0,0.0,0.0,0.0,0.0,0.0,0.0,0.0,0.0,0.0,0.0,0.0,0.0,0.0,0.0,0.0,0.0,0.0,0.0,0.0,0.0,0.0,0.0,0.0,0.0,0.0,0.0,0.0,0.0,0.0,0.0,0.0,0.0,0.0,0.0,0.0,0.0,0.0,0.0,0.0,0.0,0.0,0.0,0.0,0.0,0.0,0.0,0.0,0.0,0.0,0.0,0.0,0.0,0.0,0.0,0.0,0.0,0.0,0.0,0.0,0.0,0.0,0.0,0.0,0.0,0.0,0.0,0.0,0.0,0.0,0.0,0.0,0.0,0.0,0.0,0.0,0.0,0.0,0.0,0.0,0.0,0.0,0.0,0.0,0.0,0.0,0.0,0.0,0.0,0.0,0.0,0.0,0.0,0.0,0.0,0.0,0.0,0.0,0.0,0.0,0.0,0.0,0.0,0.0,0.0,0.0,0.0,0.0,0.0,0.0,0.0,0.0,0.0,0.0,0.0,0.0,0.0,0.0,0.0,0.0,0.0,0.0,0.0,0.0,0.0,0.0,0.0,0.0,0.0,0.0,0.0,0.0,0.0,0.0,0.0,0.0,0.0,0.0,0.0,0.0,0.0,0.0,0.0,0.0,0.0,0.0,0.0,0.0,0.0,0.0,0.0,0.0,0.0,0.0,0.0,0.0,0.0,0.0,0.0,0.0,0.0,0.0,0.0,0.0,0.0,0.0,0.0,0.0,0.0,0.0,0.0,0.0,0.0,0.0,0.0,0.0,0.0,0.0,0.0,0.0,0.0,0.0,0.0,0.0,0.0,0.0,0.0,0.0,0.0,0.0,0.0,0.0,0.0,0.0,0.0,0.0,0.0,0.0,0.0,0.0,0.0,0.0,0.0,0.0,0.0,0.0,0.0,0.0,0.0,0.0,0.0,0.0,0.0,0.0,0.0,0.0,0.0,0.0,0.0,0.0,0.0,0.0,0.0,0.0,0.0,0.0,0.0,0.0,0.0,0.0,0.0,0.0,0.0,0.0,0.0,0.0,0.0,0.0,0.0,0.0,0.0,0.0,0.0,0.0,0.0,0.0,0.0,0.0,0.0,0.0,0.0,0.0,0.0,0.0,0.0,0.0,0.0,0.0,0.0,0.0,0.0,0.0,0.0,0.0,0.0,0.0,0.0,0.0,0.0,0.0,0.0,0.0,0.0,0.0,0.0,0.0,0.0,0.0,0.0,0.0,0.0,0.0,0.0,0.0,0.0,0.0,0.0,0.0,0.0,0.0,0.0,0.0,0.0,0.0,0.0,0.0,0.0,0.0,0.0,0.0,0.0,0.0,0.0,0.0,0.0,0.0,0.0,0.0,0.0,0.0,0.0,0.0,0.0,0.0,0.0,0.0,0.0,0.0,0.0,0.0,0.0,0.0,0.0,0.0,0.0,0.0,0.0,0.0,0.0,0.0,0.0,0.0,0.0,0.0,0.0,0.0,0.0,0.0,0.0,0.0,0.0,0.0,0.0,0.0,0.0,0.0,0.0,0.0,0.0,0.0,0.0,0.0,0.0,0.0,0.0,0.0,0.0,0.0,0.0,0.0,0.0,0.0,0.0,0.0,0.0,0.0,0.0,0.0,0.0,0.0,0.0,0.0,0.0,0.0,0.0,0.0,0.0,0.0,0.0,0.0,0.0,0.0,0.0,0.0,0.0,0.0,0.0,0.0,0.0,0.0,0.0,0.0,0.0,0.0,0.0,0.0,0.0,0.0,0.0,0.0,0.0,0.0,0.0,0.0,0.0,0.0,0.0,0.0,0.0,0.0,0.0,0.0,0.0,0.0,0.0,0.0,0.0,0.0,0.0,0.0,0.0,0.0,0.0,0.0,0.0,0.0,0.0,0.0,0.0,0.0,0.0,0.0,0.0,0.0,0.0,0.0,0.0,0.0,0.0,0.0,0.0,0.0,0.0,0.0,0.0,0.0,0.0,0.0,0.0,0.0,0.0,0.0,0.0,0.0,0.0,0.0,0.0,0.0,0.0,0.0,0.0,0.0,0.0,0.0,0.0,0.0,0.0,0.0,0.0,0.0,0.0,0.0,0.0,0.0,0.0,0.0,0.0,0.0,0.0,0.0,0.0,0.0,0.0,0.0,0.0,0.0,0.0,0.0,0.0,0.0,0.0,0.0,0.0,0.0,0.0,0.0,0.0,0.0,0.0,0.0,1.5329,0.0,0.0,0.0,0.0,0.0,0.0,0.0,0.0,0.0,0.0,0.0,0.0,0.0,0.0,0.0,0.0,0.0,0.0,0.0,0.0,0.0,0.0,0.0,0.0,0.0,0.0,0.0,0.0,0.0,0.0,0.0,0.0,0.0,0.0,0.0,0.0,0.0,0.0,0.0,0.0,0.0,0.0,0.0,0.0,0.0,0.0,0.0,0.0,0.0,0.0,0.0,0.0,0.0,0.0,0.0,0.0,0.0,0.0,0.0,0.0,0.0,0.0,0.0,0.0,0.0,0.0,0.0,0.0,0.0,0.0,0.0,0.0,0.0,0.0,0.0,0.0,0.0,0.0,0.0,0.0,0.0,0.0,0.0,0.0,0.0,0.0,0.0,0.0,0.0,0.0,0.0,0.0,0.0,0.0,0.0,0.0,0.0,0.0,0.0,0.0,0.0,0.0,0.0,0.0,0.0,0.0,0.0,0.0,0.0,0.0,1.8506,1.4471,1.4603,1.3743,1.1578,0.0,0.0,0.0,0.0,0.0,0.0,0.0,0.0,0.0,0.0,0.0,0.0,0.0,0.0,0.0,0.0,0.0,0.0,0.0,0.0,0.0,0.0,0.0,0.0,0.0,0.0,0.0,0.0,0.0,0.0,0.0,0.0,0.0,0.0,0.0,0.0,0.0,0.0,0.0,0.0,0.0,0.0,0.0,0.0,0.0,0.0,0.0,0.0,0.0,0.0,0.0,0.0,0.0,0.0,0.0,0.0,0.0,0.0,0.0,0.0,0.0,0.0,0.0,0.0,0.0,0.0,0.0,0.0,0.0,0.0,0.0,0.0,0.0,0.0,0.0,0.0,0.0,0.0,0.0,0.0,0.0,0.0,0.0,0.0,0.0,0.0,0.0,0.0,0.0,0.0,0.0,0.0,0.0,0.0,0.0,0.0,0.0,0.0,0.0,0.0,0.0,0.0,0.0,0.0,0.0,0.0,0.0,0.0,0.0,0.0,0.0,0.0,1.0864,1.01,0.6368,0.0,0.0,0.0,0.0,0.0,0.0,0.0,0.0,0.0,0.0,0.0,0.0,0.0,0.0,0.0,0.0,0.0,0.0,0.0,0.0,0.0,0.0,0.0,0.0,0.0,0.0,0.0,0.0,0.0,0.0,0.0,0.0,0.0,0.0,0.0,0.0,0.0,0.0,0.0,0.0,0.0,0.0,0.0,0.0,0.0,0.0,0.0,0.0,0.0,0.0,0.0,0.0,0.0,0.0,0.0,0.0,0.0,0.0,0.0,0.0,0.0,0.0,0.0,0.0,0.0,0.0,0.0,0.0,0.0,0.0,0.0,0.0,0.0,0.0,0.0,0.0,0.0,0.0,0.0,0.0,0.0,0.0,0.0,0.0,0.0,0.0,0.0,0.0,0.0,0.0,0.0,0.0,0.0,0.0,0.0,0.0,0.0,0.0,0.0,0.0,0.0,0.0,0.0,0.0,0.0,0.0,0.0,0.0,0.0,0.0,0.9507,0.8997,0.5339,0.0,-0.1823,0.0,0.0,0.0,0.0,0.0,0.0,0.0,0.0,0.0,0.0,0.0,0.0,0.0,0.0,0.0,0.0,0.0,0.0,0.0,0.0,0.0,0.0,0.0,0.0,0.0,0.0,0.0,0.0,0.0,0.0,0.0,0.0,0.0,0.0,0.0,0.0,0.0,0.0,0.0,0.0,0.0,0.0,0.0,0.0,0.0,0.0,0.0,0.0,0.0,0.0,0.0,0.0,0.0,0.0,0.0,0.0,0.0,0.0,0.0,0.0,0.0,0.0,0.0,0.0,0.0,0.0,0.0,0.0,0.0,0.0,0.0,0.0,0.0,0.0,0.0,0.0,0.0,0.0,0.0,0.0,0.0,0.0,0.0,0.0,0.0,0.0,0.0,0.0,0.0,0.0,0.0,0.0,0.0,0.0,0.0,0.0,0.0,0.0,0.0,0.0,0.0,0.0,0.0,0.0,0.0,0.0,0.0,0.0,0.0,0.0,0.656,0.2018,0.032,-0.1081,0.0,0.0,0.0,0.0,0.0,0.0,0.0,0.0,0.0,0.0,0.0,0.0,0.0,0.0,0.0,0.0,0.0,0.0,0.0,0.0,0.0,0.0,0.0,0.0,0.0,0.0,0.0,0.0,0.0,0.0,0.0,0.0,0.0,0.0,0.0,0.0,0.0,0.0,0.0,0.0,0.0,0.0,0.0,0.0,0.0,0.0,0.0,0.0,0.0,0.0,0.0,0.0,0.0,0.0,0.0,0.0,0.0,0.0,0.0,0.0,0.0,0.0,0.0,0.0,0.0,0.0,0.0,0.0,0.0,0.0,0.0,0.0,0.0,0.0,0.0,0.0,0.0,0.0,0.0,0.0,0.0,0.0,0.0,0.0,0.0,0.0,0.0,0.0,0.0,0.0,0.0,0.0,0.0,0.0,0.0,0.0,0.0,0.0,0.0,0.0,0.0,0.0,0.0,0.0,0.0,0.0,0.0,0.0,0.0,0.0,0.3057,0.2998,-0.2461,-0.2627,-0.2334,-0.1974,0.0,0.0,0.0,0.0,0.0,0.0,0.0,0.0,0.0,0.0,0.0,0.0,0.0,0.0,0.0,0.0,0.0,0.0,0.0,0.0,0.0,0.0,0.0,0.0,0.0,0.0,0.0,0.0,0.0,0.0,0.0,0.0,0.0,0.0,0.0,0.0,0.0,0.0,0.0,0.0,0.0,0.0,0.0,0.0,0.0,0.0,0.0,0.0,0.0,0.0,0.0,0.0,0.0,0.0,0.0,0.0,0.0,0.0,0.0,0.0,0.0,0.0,0.0,0.0,0.0,0.0,0.0,0.0,0.0,0.0,0.0,0.0,0.0,0.0,0.0,0.0,0.0,0.0,0.0,0.0,0.0,0.0,0.0,0.0,0.0,0.0,0.0,0.0,0.0,0.0,0.0,0.0,0.0,0.0,0.0,0.0,0.0,0.0,0.0,0.0,0.0,0.0,0.0,0.0,0.0,0.0,0.0,0.0,-0.3131,-0.2185,-0.1948,-0.2397,-0.2648,-0.2747,0.0,0.0,0.0,0.0,0.0,0.0,0.0,0.0,0.0,0.0,0.0,0.0,0.0,0.0,0.0,0.0,0.0,0.0,0.0,0.0,0.0,0.0,0.0,0.0,0.0,0.0,0.0,0.0,0.0,0.0,0.0,0.0,0.0,0.0,0.0,0.0,0.0,0.0,0.0,0.0,0.0,0.0,0.0,0.0,0.0,0.0,0.0,0.0,0.0,0.0,0.0,0.0,0.0,0.0,0.0,0.0,0.0,0.0,0.0,0.0,0.0,0.0,0.0,0.0,0.0,0.0,0.0,0.0,0.0,0.0,0.0,0.0,0.0,0.0,0.0,0.0,0.0,0.0,0.0,0.0,0.0,0.0,0.0,0.0,0.0,0.0,0.0,0.0,0.0,0.0,0.0,0.0,0.0,0.0,0.0,0.0,0.0,0.0,0.0,0.0,0.0,0.0,0.0,0.0,0.0,0.0,0.0,0.0,0.0,-0.2471,-0.2784,-0.2496,-0.1706,-0.2323,-0.2358,0.0,0.0,0.0,0.0,0.0,0.0,0.0,0.0,0.0,0.0,0.0,0.0,0.0,0.0,0.0,0.0,0.0,0.0,0.0,0.0,0.0,0.0,0.0,0.0,0.0,0.0,0.0,0.0,0.0,0.0,0.0,0.0,0.0,0.0,0.0,0.0,0.0,0.0,0.0,0.0,0.0,0.0,0.0,0.0,0.0,0.0,0.0,0.0,0.0,0.0,0.0,0.0,0.0,0.0,0.0,0.0,0.0,0.0,0.0,0.0,0.0,0.0,0.0,0.0,0.0,0.0,0.0,0.0,0.0,0.0,0.0,0.0,0.0,0.0,0.0,0.0,0.0,0.0,0.0,0.0,0.0,0.0,0.0,0.0,0.0,0.0,0.0,0.0,0.0,0.0,0.0,0.0,0.0,0.0,0.0,0.0,0.0,0.0,0.0,0.0,0.0,0.0,0.0,0.0,0.0,0.0,0.0,0.0,0.0,-0.1628,0.0,-0.2059,-0.0936,-0.1798,-0.1896,0.0,0.0,0.0,0.0,0.0,0.0,0.0,0.0,0.0,0.0,0.0,0.0,0.0,0.0,0.0,0.0,0.0,0.0,0.0,0.0,0.0,0.0,0.0,0.0,0.0,0.0,0.0,0.0,0.0,0.0,0.0,0.0,0.0,0.0,0.0,0.0,0.0,0.0,0.0,0.0,0.0,0.0,0.0,0.0,0.0,0.0,0.0,0.0,0.0,0.0,0.0,0.0,0.0,0.0,0.0,0.0,0.0,0.0,0.0,0.0,0.0,0.0,0.0,0.0,0.0,0.0,0.0,0.0,0.0,0.0,0.0,0.0,0.0,0.0,0.0,0.0,0.0,0.0,0.0,0.0,0.0,0.0,0.0,0.0,0.0,0.0,0.0,0.0,0.0,0.0,0.0,0.0,0.0,0.0,0.0,0.0,0.0,0.0,0.0,0.0,0.0,0.0,0.0,0.0,0.0,0.0,0.0,0.0,-0.1815,-0.0802,-0.1143,-0.099,-0.0051,-0.1102,-0.1492,0.0,0.0,0.0,0.0,0.0,0.0,0.0,0.0,0.0,0.0,0.0,0.0,0.0,0.0,0.0,0.0,0.0,0.0,0.0,0.0,0.0,0.0,0.0,0.0,0.0,0.0,0.0,0.0,0.0,0.0,0.0,0.0,0.0,0.0,0.0,0.0,0.0,0.0,0.0,0.0,0.0,0.0,0.0,0.0,0.0,0.0,0.0,0.0,0.0,0.0,0.0,0.0,0.0,0.0,0.0,0.0,0.0,0.0,0.0,0.0,0.0,0.0,0.0,0.0,0.0,0.0,0.0,0.0,0.0,0.0,0.0,0.0,0.0,0.0,0.0,0.0,0.0,0.0,0.0,0.0,0.0,0.0,0.0,0.0,0.0,0.0,0.0,0.0,0.0,0.0,0.0,0.0,0.0,0.0,0.0,0.0,0.0,0.0,0.0,0.0,0.0,0.0,0.0,0.0,0.0,0.0,0.0,0.0,0.0,-0.2223,-0.1655,-0.1031,-0.0418,-0.1357,-0.1743,0.0,0.0,0.0,0.0,0.0,0.0,0.0,0.0,0.0,0.0,0.0,0.0,0.0,0.0,0.0,0.0,0.0,0.0,0.0,0.0,0.0,0.0,0.0,0.0,0.0,0.0,0.0,0.0,0.0,0.0,0.0,0.0,0.0,0.0,0.0,0.0,0.0,0.0,0.0,0.0,0.0,0.0,0.0,0.0,0.0,0.0,0.0,0.0,0.0,0.0,0.0,0.0,0.0,0.0,0.0,0.0,0.0,0.0,0.0,0.0,0.0,0.0,0.0,0.0,0.0,0.0,0.0,0.0,0.0,0.0,0.0,0.0,0.0,0.0,0.0,0.0,0.0,0.0,0.0,0.0,0.0,0.0,0.0,0.0,0.0,0.0,0.0,0.0,0.0,0.0,0.0,0.0,0.0,0.0,0.0,0.0,0.0,0.0,0.0,0.0,0.0,0.0,0.0,0.0,0.0,0.0,0.0,0.0,0.0,-0.2627,-0.1541,-0.079,-0.0426,-0.1518,-0.2048,-0.1844,0.0,0.0,0.0,0.0,0.0,0.0,0.0,0.0,0.0,0.0,0.0,0.0,0.0,0.0,0.0,0.0,0.0,0.0,0.0,0.0,0.0,0.0,0.0,0.0,0.0,0.0,0.0,0.0,0.0,0.0,0.0,0.0,0.0,0.0,0.0,0.0,0.0,0.0,0.0,0.0,0.0,0.0,0.0,0.0,0.0,0.0,0.0,0.0,0.0,0.0,0.0,0.0,0.0,0.0,0.0,0.0,0.0,0.0,0.0,0.0,0.0,0.0,0.0,0.0,0.0,0.0,0.0,0.0,0.0,0.0,0.0,0.0,0.0,0.0,0.0,0.0,0.0,0.0,0.0,0.0,0.0,0.0,0.0,0.0,0.0,0.0,0.0,0.0,0.0,0.0,0.0,0.0,0.0,0.0,0.0,0.0,0.0,0.0,0.0,0.0,0.0,0.0,0.0,0.0,0.0,0.0,0.0,0.0,-0.233,-0.1044,-0.0331,-0.0321,-0.1643,-0.2282,0.0,0.0,0.0,0.0,0.0,0.0,0.0,0.0,0.0,0.0,0.0,0.0,0.0,0.0,0.0,0.0,0.0,0.0,0.0,0.0,0.0,0.0,0.0,0.0,0.0,0.0,0.0,0.0,0.0,0.0,0.0,0.0,0.0,0.0,0.0,0.0,0.0,0.0,0.0,0.0,0.0,0.0,0.0,0.0,0.0,0.0,0.0,0.0,0.0,0.0,0.0,0.0,0.0,0.0,0.0,0.0,0.0,0.0,0.0,0.0,0.0,0.0,0.0,0.0,0.0,0.0,0.0,0.0,0.0,0.0,0.0,0.0,0.0,0.0,0.0,0.0,0.0,0.0,0.0,0.0,0.0,0.0,0.0,0.0,0.0,0.0,0.0,0.0,0.0,0.0,0.0,0.0,0.0,0.0,0.0,0.0,0.0,0.0,0.0,0.0,0.0,0.0,0.0,0.0,0.0,0.0,0.0,0.0,0.0,-0.2812,-0.2088,-0.156,-0.127,-0.2028,-0.2663,0.0,0.0,0.0,0.0,0.0,0.0,0.0,0.0,0.0,0.0,0.0,0.0,0.0,0.0,0.0,0.0,0.0,0.0,0.0,0.0,0.0,0.0,0.0,0.0,0.0,0.0,0.0,0.0,0.0,0.0,0.0,0.0,0.0,0.0,0.0,0.0,0.0,0.0,0.0,0.0,0.0,0.0,0.0,0.0,0.0,0.0,0.0,0.0,0.0,0.0,0.0,0.0,0.0,0.0,0.0,0.0,0.0,0.0,0.0,0.0,0.0,0.0,0.0,0.0,0.0,0.0,0.0,0.0,0.0,0.0,0.0,0.0,0.0,0.0,0.0,0.0,0.0,0.0,0.0,0.0,0.0,0.0,0.0,0.0,0.0,0.0,0.0,0.0,0.0,0.0,0.0,0.0,0.0,0.0,0.0,0.0,0.0,0.0,0.0,0.0,0.0,0.0,0.0,0.0,0.0,0.0,0.0,0.0,-0.4149,-0.3195,-0.3043,-0.2905,-0.2846,-0.2929,-0.3183,0.0,0.0,0.0,0.0,0.0,0.0,0.0,0.0,0.0,0.0,0.0,0.0,0.0,0.0,0.0,0.0,0.0,0.0,0.0,0.0,0.0,0.0,0.0,0.0,0.0,0.0,0.0,0.0,0.0,0.0,0.0,0.0,0.0,0.0,0.0,0.0,0.0,0.0,0.0,0.0,0.0,0.0,0.0,0.0,0.0,0.0,0.0,0.0,0.0,0.0,0.0,0.0,0.0,0.0,0.0,0.0,0.0,0.0,0.0,0.0,0.0,0.0,0.0,0.0,0.0,0.0,0.0,0.0,0.0,0.0,0.0,0.0,0.0,0.0,0.0,0.0,0.0,0.0,0.0,0.0,0.0,0.0,0.0,0.0,0.0,0.0,0.0,0.0,0.0,0.0,0.0,0.0,0.0,0.0,0.0,0.0,0.0,0.0,0.0,0.0,0.0,0.0,0.0,0.0,0.0,0.0,0.0,0.0,-0.4795,-0.3618,-0.3889,-0.4268,-0.4541,-0.4087,-0.3893,0.0,0.0,0.0,0.0,0.0,0.0,0.0,0.0,0.0,0.0,0.0,0.0,0.0,0.0,0.0,0.0,0.0,0.0,0.0,0.0,0.0,0.0,0.0,0.0,0.0,0.0,0.0,0.0,0.0,0.0,0.0,0.0,0.0,0.0,0.0,0.0,0.0,0.0,0.0,0.0,0.0,0.0,0.0,0.0,0.0,0.0,0.0,0.0,0.0,0.0,0.0,0.0,0.0,0.0,0.0,0.0,0.0,0.0,0.0,0.0,0.0,0.0,0.0,0.0,0.0,0.0,0.0,0.0,0.0,0.0,0.0,0.0,0.0,0.0,0.0,0.0,0.0,0.0,0.0,0.0,0.0,0.0,0.0,0.0,0.0,0.0,0.0,0.0,0.0,0.0,0.0,0.0,0.0,0.0,0.0,0.0,0.0,0.0,0.0,0.0,0.0,0.0,0.0,0.0,0.0,0.0,0.0,0.0,-0.5406,-0.4785,-0.479,-0.4875,-0.5019,-0.4915,-0.4934,0.0,0.0,0.0,0.0,0.0,0.0,0.0,0.0,0.0,0.0,0.0,0.0,0.0,0.0,0.0,0.0,0.0,0.0,0.0,0.0,0.0,0.0,0.0,0.0,0.0,0.0,0.0,0.0,0.0,0.0,0.0,0.0,0.0,0.0,0.0,0.0,0.0,0.0,0.0,0.0,0.0,0.0,0.0,0.0,0.0,0.0,0.0,0.0,0.736,0.0,0.0,0.0,0.0,0.0,0.0,0.0,0.0,0.0,0.0,0.0,0.0,0.0,0.0,0.0,0.0,0.0,0.0,0.0,0.0,0.0,0.0,0.0,0.0,0.0,0.0,0.0,0.0,0.0,0.0,0.0,0.0,0.0,0.0,0.0,0.0,0.0,0.0,0.0,0.0,0.0,0.0,0.0,0.0,0.0,0.0,0.0,0.0,0.0,0.0,0.0,0.0,0.0,0.0,0.0,0.0,0.0,0.0,0.0,-0.5961,-0.5366,-0.5319,-0.5421,-0.5505,-0.5752,-0.5807,0.0,0.0,0.0,0.0,0.0,0.0,0.0,0.0,0.0,0.0,0.0,0.0,0.0,0.0,0.0,0.0,0.0,0.0,0.0,0.0,0.0,0.0,0.0,0.0,0.0,0.0,0.0,0.0,0.0,0.0,0.0,0.0,0.0,0.0,0.0,0.0,0.0,0.0,0.0,0.0,0.0,0.0,0.0,0.0,0.0,0.0,0.0,0.0,0.0,0.0,0.0,0.0,0.0,0.0,0.0,0.0,0.0,0.0,0.0,0.0,0.0,0.0,0.0,0.0,0.0,0.0,0.0,0.0,0.0,0.0,0.0,0.0,0.0,0.0,0.0,0.0,0.0,0.0,0.0,0.0,0.0,0.0,0.0,0.0,0.0,0.0,0.0,0.0,0.0,0.0,0.0,0.0,0.0,0.0,0.0,0.0,0.0,0.0,0.0,0.0,0.0,0.0,0.0,0.0,0.0,0.0,0.0,-0.6547,-0.634,-0.574,-0.5765,-0.5849,-0.5942,-0.6426,-0.6489,-0.6093,0.0,0.0,0.0,0.0,0.0,0.0,0.0,0.0,0.0,0.0,0.0,0.0,0.0,0.0,0.0,0.0,0.0,0.0,0.0,0.0,0.0,0.0,0.0,0.0,0.0,0.0,0.0,0.0,0.0,0.0,0.0,0.0,0.0,0.0,0.0,0.0,0.0,0.0,0.8738,0.8514,0.0,0.0,0.0,0.0,0.0,0.0,0.0,0.0,0.5982,0.0,0.0,0.0,0.0,0.0,0.0,0.0,0.0,0.0,0.0,0.0,0.0,0.0,0.0,0.0,0.0,0.0,0.0,0.0,0.0,0.0,0.0,0.0,0.0,0.0,0.0,0.0,0.0,0.0,0.0,0.0,0.0,0.0,0.0,0.0,0.0,0.0,0.0,0.0,0.0,0.0,0.0,0.0,0.0,0.0,0.0,0.0,0.0,0.0,0.0,0.0,0.0,0.0,0.0,0.0,0.0,-0.6468,-0.6242,-0.6114,-0.6191,-0.6196,-0.6239,-0.6246,-0.6419,-0.6754,-0.7225,0.0,0.0,0.0,0.0,0.0,0.0,0.0,0.0,0.0,0.0,0.0,0.0,0.0,0.0,0.0,0.0,0.0,0.0,0.0,0.0,0.0,0.0,0.0,0.0,0.0,0.0,0.0,0.0,0.0,0.0,0.0,0.0,0.0,0.0,0.0,0.0,0.0,0.0,0.0,0.8123,0.7977,0.0,0.0,0.0,0.0,0.0,0.0,0.0,0.0,0.5278,0.0,0.0,0.0,0.0,0.0,0.0,0.0,0.0,0.0,0.0,0.0,0.0,0.0,0.0,0.0,0.0,0.0,0.0,0.0,0.0,0.0,0.0,0.0,0.0,0.0,0.0,0.0,0.0,0.0,0.0,0.0,0.0,0.0,0.0,0.0,0.0,0.0,0.0,0.0,0.0,0.0,0.0,0.0,0.0,0.0,0.0,0.0,0.0,0.0,0.0,0.0,0.0,0.0,0.0,0.0,-0.7084,-0.6686,-0.6502,-0.6608,-0.6555,-0.6496,-0.6527,-0.6674,-0.7021,0.0,0.0,0.0,0.0,0.0,0.0,0.0,0.0,0.0,0.0,0.0,0.0,0.0,0.0,0.0,0.0,0.0,0.0,0.0,0.0,0.0,0.0,0.0,0.0,0.0,0.0,0.0,0.0,0.0,0.0,0.0,0.0,0.0,0.0,0.0,0.0,0.0,0.0,0.0,0.0,0.7753,0.7369,0.6824,0.0,0.0,0.0,0.0,0.0,0.0,0.4356,0.4435,0.0,0.0,0.0,0.0,0.0,0.0,0.0,0.0,0.0,0.0,0.0,0.0,0.0,0.0,0.0,0.0,0.0,0.0,0.0,0.0,0.0,0.0,0.0,0.0,0.0,0.0,0.0,0.0,0.0,0.0,0.0,0.0,0.0,0.0,0.0,0.0,0.0,0.0,0.0,0.0,0.0,0.0,0.0,0.0,0.0,0.0,0.0,0.0,0.0,0.0,0.0,0.0,0.0,0.0,0.0,-0.765,-0.7198,-0.6972,-0.6918,-0.6844,-0.6816,-0.6855,-0.7123,-0.7458,0.0,0.0,0.0,0.0,0.0,0.0,0.0,0.0,0.0,0.0,0.0,0.0,0.0,0.0,0.0,0.0,0.0,0.0,0.0,0.0,0.0,0.0,0.0,0.0,0.0,0.0,0.0,0.0,0.0,0.0,0.0,0.0,0.0,0.0,0.0,0.0,0.0,0.0,0.0,0.0,0.0,0.702,0.6244,0.5287,0.0,0.0,0.0,0.0,0.3663,0.3596,0.0,0.0,0.0,0.0,0.0,0.0,0.0,0.0,0.0,0.0,0.0,0.0,0.0,0.0,0.0,0.0,0.0,0.0,0.0,0.0,0.0,0.0,0.0,0.0,0.0,0.0,0.0,0.0,0.0,0.0,0.0,0.0,0.0,0.0,0.0,0.0,0.0,0.0,0.0,0.0,0.0,0.0,0.0,0.0,0.0,0.0,0.0,0.0,0.0,0.0,0.0,0.0,0.0,0.0,0.0,0.0,-0.7479,-0.7388,-0.725,-0.6986,-0.7096,-0.7209,-0.7332,-0.7971,-0.8411,0.0,0.0,0.0,0.0,0.0,0.0,0.0,0.0,0.0,0.0,0.0,0.0,0.0,0.0,0.0,0.0,0.0,0.0,0.0,0.0,0.0,0.0,0.0,0.0,0.0,0.0,0.0,0.0,0.0,0.0,0.0,0.0,0.0,0.0,0.0,0.0,0.0,0.0,0.0,0.0,0.0,0.7337,0.6182,0.5179,0.434,0.0,0.0,0.305,0.2729,0.2963,0.0,0.0,0.0,0.0,0.0,0.0,0.0,0.0,0.0,0.0,0.0,0.0,0.0,0.0,0.0,0.0,0.0,0.0,0.0,0.0,0.0,0.0,0.0,0.0,0.0,0.0,0.0,0.0,0.0,0.0,0.0,0.0,0.0,0.0,0.0,0.0,0.0,0.0,0.0,0.0,0.0,0.0,0.0,0.0,0.0,0.0,0.0,0.0,0.0,0.0,0.0,0.0,0.0,0.0,0.0,-0.845,-0.8047,-0.7787,-0.7625,-0.753,-0.7579,-0.7666,-0.7735,-0.8353,-0.8719,0.0,0.0,0.0,0.0,0.0,0.0,0.0,0.0,0.0,0.0,0.0,0.0,0.0,0.0,0.0,0.0,0.0,0.0,0.0,0.0,0.0,0.0,0.0,0.0,0.0,0.0,0.0,0.0,0.0,0.0,0.0,0.0,0.0,0.0,0.0,0.0,0.0,0.0,0.0,0.0,0.0,0.0,0.5834,0.4982,0.0,0.0,0.0,0.2771,0.2516,0.0,0.0,0.0,0.0,0.0,0.0,0.0,0.0,0.0,0.0,0.0,0.0,0.0,0.0,0.0,0.0,0.0,0.0,0.0,0.0,0.0,0.0,0.0,0.0,0.0,0.0,0.0,0.0,0.0,0.0,0.0,0.0,0.0,0.0,0.0,0.0,0.0,0.0,0.0,0.0,0.0,0.0,0.0,0.0,0.0,0.0,0.0,0.0,0.0,0.0,0.0,0.0,0.0,0.0,0.0,0.0,0.0,-0.8574,-0.8201,-0.8002,-0.8002,-0.7998,-0.8032,-0.8148,-0.8691,0.0,0.0,0.0,0.0,0.0,0.0,0.0,0.0,0.0,0.0,0.0,0.0,0.0,0.0,0.0,0.0,0.0,0.0,0.0,0.0,0.0,0.0,0.0,0.0,0.0,0.0,0.0,0.2014,0.0,0.0,0.0,0.0,0.0,0.0,0.0,0.0,0.0,0.0,0.0,0.0,0.0,0.0,0.6929,0.5442,0.4855,0.4164,0.0,0.0,0.262,0.2281,0.2196,0.2273,0.0,0.0,0.0,0.0,0.0,0.0,0.0,0.0,0.0,0.0,0.0,0.0,0.0,0.0,0.0,0.0,0.0,0.0,0.0,0.0,0.0,0.0,0.0,0.0,0.0,0.0,0.0,0.0,0.0,0.0,0.0,0.0,0.0,0.0,0.0,0.0,0.0,0.0,0.0,0.0,0.0,0.0,0.0,0.0,0.0,0.0,0.0,0.0,0.0,0.0,0.0,0.0,0.0,0.0,-0.9135,-0.8692,-0.8488,-0.8377,-0.8332,-0.8258,-0.8287,-0.8488,-0.9157,-0.9443,0.0,0.0,0.0,0.0,0.0,0.0,0.0,0.0,0.0,0.0,0.0,0.0,0.0,0.0,0.0,0.0,0.0,0.0,0.0,0.0,0.0,0.0,0.0,0.0,0.0,0.0,0.0,0.0,0.0,0.0,0.0,0.0,0.0,0.0,0.0,0.0,0.0,0.0,0.0,0.0,0.0,0.6769,0.5098,0.4716,0.4143,0.0,0.2685,0.2477,0.1657,0.177,0.1939,0.1875,0.0,0.0,0.0,0.0,0.0,0.0,0.0,0.0,0.0,0.0,0.0,0.0,0.0,0.0,0.0,0.0,0.0,0.0,0.0,0.0,0.0,0.0,0.0,0.0,0.0,0.0,0.0,0.0,0.0,0.0,0.0,0.0,0.0,0.0,0.0,0.0,0.0,0.0,0.0,0.0,0.0,0.0,0.0,0.0,0.0,0.0,0.0,0.0,0.0,0.0,0.0,0.0,0.0,-0.9494,-0.8834,-0.8749,-0.8663,-0.8565,-0.8565,-0.861,-0.8805,-0.9417,-0.9602,0.0,0.0,0.0,0.0,0.0,0.0,0.0,0.0,0.0,0.0,0.0,0.0,0.0,0.0,0.0,0.0,0.0,0.0,0.0,0.0,0.0,0.0,0.0,0.0,0.0,0.0,0.0,0.0,0.2482,0.3104,0.4,0.0,0.0,0.0,0.0,0.0,0.0,0.0,0.0,0.0,0.0,0.6481,0.5178,0.4484,0.0,0.0,0.2294,0.1972,0.1159,0.1184,0.1273,0.097,0.1179,0.0,0.0,0.0,0.0,0.0,0.0,0.0,0.0,0.0,0.0,0.0,0.0,0.0,0.0,0.0,0.0,0.0,0.0,0.0,0.0,0.0,0.0,0.0,0.0,0.0,0.0,0.0,0.0,0.0,0.0,0.0,0.0,0.0,0.0,0.0,0.0,0.0,0.0,0.0,0.0,0.0,0.0,0.0,0.0,0.0,0.0,0.0,0.0,0.0,0.0,0.0,0.0,-0.9964,-0.953,-0.9255,-0.9013,-0.885,-0.8805,-0.8886,-0.9065,-0.9479,-0.9662,0.0,0.0,0.0,0.0,0.0,0.0,0.0,0.0,0.0,0.0,0.0,0.0,0.0,0.0,0.0,0.0,0.0,0.0,0.0,0.0,0.0,0.0,0.0,0.0,0.0,0.0,0.0,0.0,0.2178,0.3002,0.3929,0.0,0.0,0.0,0.0,0.0,0.0,0.0,0.0,0.0,0.0,0.6018,0.5066,0.4229,0.3384,0.2475,0.2021,0.1568,0.0849,0.0766,0.0689,0.0438,0.0,0.0,0.0,0.0,0.0,0.0,0.0,0.0,0.0,0.0,0.0,0.0,0.0,0.0,0.0,0.0,0.0,0.0,0.0,0.0,0.0,0.0,0.0,0.0,0.0,0.0,0.0,-1.3235,0.0,0.0,-1.3264,0.0,0.0,0.0,0.0,0.0,0.0,0.0,0.0,0.0,0.0,0.0,0.0,0.0,0.0,0.0,0.0,0.0,0.0,0.0,0.0,0.0,0.0,-1.053,-1.0934,-1.0025,-0.9468,-0.9207,-0.9056,-0.9056,-0.9221,-0.9399,-0.9572,-0.9669,0.0,0.0,0.0,0.0,0.0,0.0,0.0,0.0,0.0,0.0,0.0,0.0,0.0,0.0,0.0,0.0,0.0,0.0,0.0,0.0,0.0,0.0,0.0,0.0,0.0,0.0,0.0857,0.2084,0.3071,0.0,0.0,0.0,0.0,0.0,0.0,0.0,0.0,0.0,0.658,0.5965,0.5345,0.4683,0.3951,0.3281,0.2747,0.1878,0.1208,0.0805,0.0591,0.0387,0.0,0.0,0.0,0.0,0.0,0.0,0.0,0.0,0.0,0.0,0.0,0.0,0.0,0.0,0.0,0.0,0.0,0.0,0.0,0.0,0.0,0.0,0.0,0.0,0.0,0.0,0.0,-1.4061,-1.3999,0.0,0.0,0.0,0.0,0.0,0.0,0.0,0.0,0.0,0.0,0.0,-1.1004,-1.0609,0.0,0.0,0.0,0.0,0.0,0.0,0.0,0.0,0.0,0.0,0.0,0.0,-1.1141,-1.0936,-1.0286,-0.986,-0.9648,-0.9339,-0.9252,-0.9395,-0.9563,-0.9702,-0.991,0.0,0.0,0.0,0.0,0.0,0.0,0.0,0.0,0.0,0.0,0.0,0.0,0.0,0.0,0.0,0.0,0.0,0.0,0.0,0.0,0.0,0.0,0.0,0.0,0.0,0.005,0.0,0.0,0.0,0.0,0.0,0.0,0.0,0.0,0.0,0.0,0.6253,0.6187,0.5912,0.5515,0.4953,0.4022,0.3489,0.2821,0.0,0.0,0.0,0.0,0.0,0.0,0.0,0.0,0.0,0.0,0.0,0.0,0.0,0.0,0.5893,0.7369,0.7866,0.8326,0.9144,0.0,0.0,0.0,0.0,0.0,0.0,0.0,0.0,0.0,0.0,0.0,0.0,0.0,0.0,-1.4525,-1.4607,-1.4376,0.0,0.0,0.0,0.0,0.0,0.0,0.0,0.0,-1.2141,-1.1578,-1.1308,-1.0899,-1.088,-1.121,-1.1429,-1.1385,0.0,0.0,0.0,0.0,0.0,0.0,0.0,0.0,-1.1616,-1.141,-1.0827,-1.0337,-0.9974,-0.9711,-0.956,-0.9568,-0.9753,-0.9964,-1.0202,-1.0334,-1.0521,0.0,0.0,0.0,0.0,0.0,0.0,0.0,0.0,0.0,0.0,0.0,0.0,0.0,0.0,0.0,0.0,0.0,0.0,0.0,0.0,0.0,0.0,0.0,0.0103,0.0,0.0,0.0,0.0,0.0,0.0,0.0,0.0,0.0,0.5572,0.5495,0.5306,0.5138,0.4753,0.4223,0.3688,0.0,0.0,0.0,0.0,0.0,0.0,0.0,-0.0198,-0.0134,0.0133,0.0462,0.0739,0.1803,0.2829,0.3572,0.0,0.0,0.6873,0.7531,0.8085,0.8871,0.9786,1.0602,1.1046,1.1932,1.2718,0.0,0.0,0.0,0.0,-1.7511,0.0,0.0,0.0,-1.543,-1.5263,0.0,-1.5018,0.0,0.0,0.0,0.0,-1.4744,-1.48,0.0,0.0,-1.2579,-1.209,-1.1499,-1.1302,-1.1174,-1.115,-1.1791,-1.2006,-1.1665,-1.1208,0.0,0.0,0.0,0.0,0.0,0.0,-1.1962,-1.2351,-1.1647,-1.0967,-1.0229,-1.011,-0.9994,-0.9741,-0.9971,-1.0278,-1.0577,-1.0797,-1.1078,-1.1485,-1.1664,0.0,0.0,0.0,0.0,0.0,0.0,0.0,0.0,0.0,0.0,0.0,0.0,0.0,0.0,0.0,0.0,0.0,0.0,0.0,0.0,-0.0692,0.0,0.0,0.0,0.0,0.0,0.0,0.0,0.0,0.0,0.4561,0.5135,0.4858,0.4547,0.4288,0.0,0.0,0.0,0.0,0.2018,0.2282,0.1277,0.0471,0.0471,0.0336,0.0336,0.0403,0.0,0.0,0.1207,0.2311,0.3222,0.3426,0.4526,0.5634,0.6246,0.6929,0.7711,0.8559,0.9529,1.0335,1.1077,1.1751,1.2537,-1.5823,0.0,0.0,0.0,0.0,-1.713,-1.6704,-1.6382,-1.5472,-1.5073,-1.4965,-1.5141,0.0,0.0,0.0,0.0,0.0,0.0,-1.4479,-1.3309,-1.2624,-1.2003,-1.1505,-1.132,-1.1242,-1.1338,-1.1512,-1.1661,-1.1719,-1.172,-1.1868,-1.213,0.0,0.0,0.0,0.0,-1.3051,-1.3122,-1.2127,-1.1519,-1.1369,-1.0779,-1.0306,-0.9985,-1.0044,-1.0278,-1.0582,-1.0687,-1.0931,-1.1266,-1.1346,0.0,0.0,0.0,0.0,0.0,0.0,0.0,0.0,0.0,0.0,0.0,0.0,0.0,0.0,0.0,0.0,0.0,0.0,0.0,-0.1929,-0.0772,-0.0112,0.0,0.0,0.0,0.0,0.0,0.0,0.0,0.0,0.0,0.3643,0.4065,0.4287,0.0,0.0,0.2889,0.3021,0.2353,0.1749,0.1346,0.0595,0.0,-0.0196,-0.0192,-0.019,-0.0063,0.0506,0.114,0.1518,0.2181,0.2781,0.3334,0.4178,0.5103,0.5871,0.6612,0.7423,0.8123,0.8885,0.969,1.0417,1.1256,1.202,-1.4233,-1.5465,-1.6689,-1.7023,-1.6647,-1.6506,-1.6157,-1.5664,-1.4941,-1.4672,-1.4772,-1.4877,-1.472,-1.444,-1.4815,0.0,0.0,0.0,-1.4138,-1.3173,-1.2314,-1.1723,-1.1351,-1.1099,-1.1015,-1.1089,-1.1403,-1.1595,-1.1749,-1.2159,-1.2617,-1.3075,0.0,-1.383,-1.4057,-1.3926,-1.3656,-1.3309,-1.2638,-1.2153,-1.1869,-1.1118,-1.0632,-1.0387,-1.0288,-1.0302,-1.05,-1.0616,-1.0764,-1.0975,-1.1078,-1.0981,0.0,0.0,0.0,0.0,0.0,0.0,0.0,0.0,0.0,0.0,0.0,-0.537,-0.4817,0.0,0.0,0.0,-0.3769,-0.3135,-0.1825,-0.1039,0.0,0.0,0.0,0.0,0.0,0.0,0.0,0.2275,0.2598,0.2662,0.2468,0.2982,0.3383,0.3163,0.2575,0.2171,0.2277,0.0,0.1367,0.1042,0.0512,0.0127,-0.0063,-0.0125,-0.0062,0.0,0.074,0.142,0.1787,0.228,0.2833,0.3508,0.424,0.501,0.5662,0.6439,0.7242,0.7955,0.8733,0.9456,1.0024,1.0781,1.1524,-1.249,-1.3303,-1.566,-1.5997,-1.5049,-1.5549,-1.51,-1.4084,-1.4033,-1.4158,-1.4412,-1.4369,-1.4346,-1.4321,-1.4341,0.0,-1.3563,-1.3715,-1.3409,-1.2715,-1.1824,-1.1323,-1.1064,-1.0813,-1.0673,-1.0656,-1.1382,-1.1747,-1.1837,-1.2473,-1.3095,-1.3734,-1.3785,-1.3917,-1.4123,-1.4359,-1.4038,-1.3209,-1.3146,-1.2743,-1.1977,-1.1349,-1.1001,-1.0889,-1.0661,-1.0527,-1.0527,-1.0654,-1.0722,-1.0833,-1.0976,-1.0794,-1.0253,0.0,0.0,0.0,0.0,0.0,0.0,0.0,0.0,0.0,0.0,0.0,0.0,0.0,0.0,0.0,-0.3464,0.0,-0.1756,-0.1442,0.0,0.0,0.0,0.0444,0.0433,0.0633,0.0828,0.0929,0.0,0.0,0.154,0.1784,0.1923,0.1722,0.1474,0.1334,0.1546,0.1237,0.1049,0.1175,0.0801,0.0492,0.0428,0.0364,0.0301,0.0481,0.1096,0.1571,0.1929,0.2532,0.3144,0.3728,0.4531,0.5199,0.5692,0.6332,0.7144,0.7956,0.8792,0.9452,0.9801,1.0405,1.0942,-1.0791,-1.1483,-1.2545,-1.3421,-1.4123,-1.4357,-1.4233,-1.3894,-1.3854,-1.3842,-1.3794,-1.3802,-1.3778,-1.371,-1.3699,-1.3553,-1.3192,-1.2844,-1.2459,-1.2077,-1.1373,-1.0976,-1.0855,-1.0582,-1.0601,-1.0823,-1.1026,-1.1407,-1.1924,-1.229,-1.3081,-1.4175,-1.4462,-1.4727,-1.5036,-1.4999,-1.4849,-1.4729,-1.3887,-1.3081,-1.2477,-1.2273,-1.2047,-1.1727,-1.1527,-1.1504,-1.1541,-1.1482,-1.1561,-1.1756,-1.1646,-1.1382,-1.1117,-1.0349,0.0,0.0,0.0,0.0,0.0,0.0,0.0,0.0,0.0,-0.5819,-0.5068,0.0,-0.4912,0.0,-0.3657,-0.2909,-0.2501,-0.177,0.0,0.0,-0.042,0.0,0.0185,0.0249,0.0373,0.0678,0.0862,0.1049,0.1049,0.0987,0.0919,0.0846,0.0738,0.0871,0.1294,0.0925,0.0617,0.0676,0.0603,0.0473,0.0403,0.0384,0.048,0.069,0.1118,0.1541,0.1962,0.2492,0.3023,0.355,0.4179,0.4832,0.548,0.6116,0.6854,0.7639,0.8417,0.9136,0.9802,1.023,1.0574,-1.0051,-1.0491,-1.09,-1.1549,-1.2363,-1.2977,-1.317,-1.3076,-1.3158,-1.312,-1.3076,-1.3081,-1.3037,-1.3004,-1.2954,-1.2799,-1.2637,-1.2257,-1.1976,-1.1767,-1.1308,-1.1067,-1.1029,-1.084,-1.0858,-1.1039,-1.1242,-1.1646,-1.2262,-1.2624,-1.3401,-1.4625,-1.4784,-1.5211,-1.5846,-1.569,-1.5583,-1.5639,-1.4397,-1.3526,-1.3083,-1.2853,-1.2639,-1.2547,-1.2016,-1.1814,-1.19,-1.1655,-1.1655,-1.1997,-1.191,-1.1737,-1.1412,-1.0762,-1.011,0.0,0.0,0.0,0.0,0.0,0.0,0.0,0.0,0.0,0.0,0.0,-0.5036,-0.4579,-0.3915,-0.3267,-0.2755,-0.2204,-0.1708,-0.1259,-0.0841,-0.0542,-0.0363,-0.0363,-0.0239,0.0058,0.0116,0.0231,0.0398,0.034,0.0282,0.0221,0.0168,0.0228,0.0518,0.0401,0.0227,0.0113,0.0167,0.0164,0.0161,0.0311,0.0454,0.0706,0.1109,0.1512,0.1962,0.2515,0.3068,0.3571,0.4262,0.4952,0.5583,0.6269,0.6996,0.7752,0.8397,0.9008,0.9593,0.9991,1.0318,-0.9751,-0.9982,-1.0168,-1.034,-1.061,-1.1693,-1.2142,-1.2153,-1.2348,-1.2407,-1.2449,-1.2443,-1.2443,-1.2407,-1.2288,-1.221,-1.2155,-1.1909,-1.178,-1.1751,-1.1521,-1.1388,-1.1388,-1.1314,-1.1292,-1.1309,-1.1662,-1.2133,-1.2727,-1.3081,-1.3885,-1.4991,-1.504,-1.5581,-1.661,-1.6287,-1.6121,-1.6069,-1.4866,-1.4071,-1.3716,-1.3263,-1.3116,-1.3252,-1.2361,-1.1934,-1.2027,-1.1693,-1.1682,-1.2019,-1.2212,-1.2044,-1.1578,-1.1436,-1.0939,0.0,-0.9632,0.0,0.0,0.0,0.0,0.0,0.0,0.0,0.0,-0.5292,-0.5095,-0.4536,-0.417,-0.3693,-0.2926,-0.2754,-0.2306,-0.133,-0.121,-0.1136,-0.0988,-0.0983,-0.0906,-0.0692,-0.0582,-0.0418,-0.0255,-0.0202,-0.0202,-0.0203,-0.0354,-0.0409,-0.0313,-0.0206,-0.0204,-0.0403,-0.0301,-0.0101,0.0,0.0249,0.0445,0.0644,0.1087,0.159,0.1975,0.2617,0.321,0.3699,0.4507,0.5291,0.5836,0.6544,0.7308,0.8027,0.8548,0.902,0.9418,0.9852,1.0249,-0.9149,-0.9699,-0.9833,-1.0225,-1.0755,-1.1127,-1.1441,-1.1822,-1.2277,-1.255,-1.2639,-1.2639,-1.2585,-1.2467,-1.2467,-1.2413,-1.233,-1.2014,-1.1984,-1.2119,-1.1993,-1.1926,-1.192,-1.183,-1.1757,-1.1768,-1.1889,-1.246,-1.3424,-1.365,-1.4468,-1.5856,-1.5884,-1.6431,-1.7355,0.0,0.0,0.0,-1.5306,-1.4811,-1.4406,-1.3996,-1.3793,-1.3798,-1.3084,0.0,-1.2689,-1.2753,-1.2781,-1.2826,-1.2997,0.0,0.0,0.0,0.0,0.0,0.0,0.0,0.0,0.0,0.0,0.0,-0.7711,-0.7059,-0.5577,-0.517,-0.4853,-0.4471,-0.4164,-0.3834,-0.3458,-0.3179,-0.2705,-0.2032,-0.1917,-0.1783,-0.1465,-0.1355,-0.1344,-0.1176,-0.1019,-0.0915,-0.0755,-0.0756,-0.0755,-0.0702,-0.0884,-0.0966,-0.0924,-0.0546,-0.0403,-0.0402,-0.0293,-0.0145,0.0,0.0234,0.0505,0.0825,0.1238,0.1697,0.2156,0.2841,0.3475,0.3931,0.4719,0.5395,0.5884,0.6616,0.7391,0.7922,0.8552,0.9173,0.9808,1.0057,1.0319,-0.9018,-0.9448,-0.9527,-0.9821,0.0,-1.0652,-1.0996,-1.137,-1.2115,-1.2697,-1.3076,-1.311,-1.3041,-1.2994,-1.2994,-1.2924,-1.2842,-1.266,-1.2619,-1.2696,-1.2661,-1.2638,-1.2626,-1.2614,-1.2608,-1.2573,-1.2662,-1.3119,-1.3921,-1.4391,-1.5131,-1.6126,-1.651,-1.7054,-1.7748,-1.7121,-1.635,-1.5626,-1.5356,-1.5056,-1.4701,-1.4373,-1.4222,-1.417,-1.3472,0.0,0.0,0.0,0.0,0.0,0.0,0.0,0.0,0.0,0.0,-1.0647,-0.9992,-0.9606,-0.9596,-0.9458,-0.9204,-0.8749,-0.8584,-0.7822,-0.6219,-0.5745,-0.5293,-0.468,-0.4559,-0.4348,-0.3834,-0.3599,-0.3169,-0.2498,-0.2381,-0.226,-0.1922,-0.1766,-0.1653,-0.1427,-0.1274,-0.1072,-0.0909,-0.0764,-0.0715,-0.0715,-0.0704,-0.0741,-0.0742,-0.0706,-0.0617,-0.0464,-0.0358,-0.0174,-0.0044,0.0214,0.0506,0.0884,0.1303,0.1822,0.2331,0.3031,0.3734,0.4328,0.5089,0.5822,0.6419,0.7091,0.7769,0.8374,0.8973,0.96,1.0248,1.0411,1.0511,-0.9128,-0.9381,-0.9393,-0.954,-0.9819,-1.0314,-1.0737,-1.1111,-1.1984,0.0,0.0,-1.3466,-1.3524,-1.3655,-1.3655,-1.3595,-1.3509,-1.3502,-1.3469,-1.3441,-1.3474,-1.3501,-1.3414,-1.3482,-1.3536,-1.3542,-1.3652,-1.3999,-1.4594,-1.5197,-1.5752,-1.6367,-1.6969,-1.7444,-1.7784,-1.7477,-1.6732,-1.5552,-1.5336,-1.5157,-1.4925,-1.461,-1.4419,-1.4425,-1.36,-1.3122,-1.2977,-1.2631,-1.2471,-1.2591,-1.2657,-1.2508,-1.2181,-1.1977,-1.1647,-1.1068,-1.0628,-1.0355,-1.0232,-1.0225,-1.0083,-0.9802,-0.9482,-0.8595,-0.7077,-0.6661,-0.6104,-0.5186,-0.5217,-0.5015,-0.43,-0.4106,-0.3675,-0.2953,-0.2842,-0.2687,-0.2322,-0.2076,-0.1853,-0.1518,-0.1272,-0.1072,-0.086,-0.0631,-0.0494,-0.0494,-0.0451,-0.0313,-0.0356,-0.0534,-0.0618,-0.0385,-0.0206,-0.0079,0.0118,0.0395,0.0668,0.1029,0.1538,0.2024,0.2574,0.3261,0.4026,0.4822,0.5593,0.6322,0.7039,0.772,0.837,0.9053,0.9653,1.0205,1.0705,1.0943,1.1078,-0.9528,-0.973,-0.9718,-0.9841,-1.0046,-1.0193,-1.078,-1.1693,-1.206,-1.2625,-1.3247,-1.3309,-1.3635,-1.4189,-1.4227,-1.4278,-1.4232,-1.4244,-1.4276,-1.4335,-1.4541,-1.4541,-1.4342,-1.4399,-1.4431,-1.4424,-1.4679,-1.5061,-1.5581,-1.5893,-1.6348,-1.6857,-1.7116,-1.7292,-1.748,-1.7709,-1.7413,-1.6596,-1.5991,-1.5596,-1.5379,-1.4909,-1.4582,-1.4373,-1.35,-1.2982,-1.2925,-1.2852,-1.2735,-1.2599,-1.2703,-1.2569,-1.204,-1.169,-1.127,-1.0768,-1.0331,-1.0067,-1.0071,-0.9944,-0.9845,-0.9825,-0.9833,-0.9374,-0.8165,-0.7705,-0.7077,-0.6166,-0.6068,-0.5869,-0.5362,-0.4922,-0.4375,-0.3656,-0.3399,-0.3075,-0.2525,-0.22,-0.1831,-0.1453,-0.1221,-0.0949,-0.0628,-0.0493,-0.0403,-0.0403,-0.0223,-0.0132,0.0043,-0.0127,-0.0212,0.0,0.0162,0.0355,0.0583,0.0939,0.1243,0.1568,0.2021,0.2517,0.3017,0.3689,0.4431,0.5311,0.6033,0.6767,0.7665,0.8448,0.9045,0.9672,1.0387,1.1094,1.1573,1.1976,1.2229,-0.9931,-1.0072,-1.0097,-1.023,-1.0422,-1.0643,-1.1076,-1.1651,-1.1855,-1.2402,-1.3156,-1.3591,-1.3957,-1.4334,-1.4758,-1.4968,-1.5007,-1.4986,-1.5023,-1.5106,-1.5245,-1.5231,-1.5166,-1.5271,-1.5301,-1.533,-1.5499,-1.5727,-1.604,-1.6503,-1.6894,-1.7234,-1.7589,-1.7742,-1.7622,-1.752,-1.7121,-1.6478,-1.6218,-1.5944,-1.5659,-1.5255,-1.4851,-1.4523,-1.3858,-1.3319,-1.2949,-1.2899,-1.2704,-1.2351,-1.2366,-1.2225,-1.1748,-1.1486,-1.1195,-1.0836,-1.0462,-1.0308,-1.036,-1.0477,-1.0542,-1.0538,-1.0637,-1.0411,-0.9751,-0.9029,-0.8266,-0.7483,-0.7217,-0.6887,-0.6376,-0.5844,-0.5188,-0.4355,-0.3983,-0.3506,-0.2825,-0.2325,-0.1835,-0.1298,-0.0986,-0.0673,-0.0359,-0.0179,0.0,0.0045,0.022,0.0514,0.0755,0.0682,0.0545,0.0428,0.0525,0.0763,0.1013,0.1372,0.1695,0.202,0.2517,0.305,0.3549,0.4172,0.489,0.5705,0.6339,0.6998,0.7861,0.8773,0.9502,1.0116,1.1041,1.1791,1.233,1.2957,1.3353,-1.0361,-1.0505,-1.0523,-1.0674,-1.089,-1.1201,-1.146,-1.1652,-1.1776,-1.2267,-1.3012,-1.3658,-1.4036,-1.4335,-1.5025,-1.5429,-1.5521,-1.5692,-1.5802,-1.5873,-1.5887,-1.5915,-1.5971,-1.613,-1.6196,-1.6223,-1.6358,-1.6438,-1.652,-1.7034,-1.7352,-1.7495,-1.8027,-1.8151,-1.7869,-1.7533,-1.7057,-1.6522,-1.6408,-1.6065,-1.5556,-1.5248,-1.4907,-1.4546,-1.4133,-1.3658,-1.3203,-1.2997,-1.2715,-1.2274,-1.2126,-1.1923,-1.1569,-1.1326,-1.1124,-1.0871,-1.059,-1.0408,-1.052,-1.0758,-1.0938,-1.0976,-1.1079,-1.1036,-1.0764,-1.017,-0.9558,-0.9073,-0.8623,-0.8169,-0.7743,-0.7001,-0.6176,-0.5305,-0.4648,-0.3919,-0.3077,-0.2454,-0.1787,-0.1164,-0.0673,-0.036,-0.0045,0.0314,0.0536,0.0704,0.0943,0.1213,0.1422,0.152,0.1383,0.1207,0.1137,0.1286,0.1539,0.1947,0.2323,0.2638,0.3136,0.3677,0.4196,0.4751,0.5405,0.6133,0.6674,0.7335,0.8114,0.9009,0.9884,1.0615,1.1583,1.2456,1.3295,1.3986,1.4395,-1.0913,-1.1022,-1.1038,-1.1164,-1.1355,-1.163,-1.1862,-1.2058,-1.2177,-1.2379,-1.2719,-1.2975,-1.351,-1.4169,-1.4939,-1.5407,-1.5595,-1.6255,-1.6602,-1.6678,-1.6765,-1.6775,-1.6801,-1.6969,-1.7085,-1.7101,-1.7271,-1.7304,-1.7264,-1.7466,-1.757,-1.763,-1.8127,-1.8245,-1.7999,-1.8018,-1.7794,-1.7272,-1.674,-1.5945,-1.4852,-1.4545,-1.4373,-1.4332,-1.3856,-1.3659,-1.3632,-1.3271,-1.289,-1.2622,-1.217,-1.1873,-1.1673,-1.1217,-1.0918,-1.0842,-1.0302,-0.9939,-0.9938,-1.0273,-1.0397,-1.0252,-1.0643,-1.0779,-1.0503,-1.0708,-1.0905,-1.0789,-1.0229,-0.97,-0.9732,-0.8641,-0.7536,-0.6506,-0.5492,-0.4391,-0.3385,-0.2499,-0.1697,-0.085,-0.0627,-0.0045,0.0224,0.0448,0.0838,0.0944,0.1057,0.127,0.1501,0.1737,0.1996,0.2228,0.2239,0.2109,0.2374,0.2773,0.3167,0.3523,0.3968,0.4452,0.4916,0.5287,0.5752,0.6651,0.716,0.7786,0.8669,0.9597,1.0305,1.1199,1.2098,1.3038,1.4308,1.5038,1.5166,-1.1415,-1.146,-1.1482,-1.1637,-1.1839,-1.2056,-1.228,-1.2518,-1.2607,-1.277,-1.2961,-1.3111,-1.3525,-1.4159,-1.4868,-1.5697,-1.663,-1.6592,-1.6853,-1.735,-1.7431,-1.7461,-1.7568,-1.7682,-1.7762,-1.7811,-1.7911,-1.7958,-1.7945,-1.7915,-1.7893,-1.7852,-1.8038,-1.796,-1.7682,-1.753,-1.7218,-1.6675,-1.6229,-1.5559,-1.4849,-1.4695,-1.4497,-1.4134,-1.3704,-1.3362,-1.3091,-1.2884,-1.2669,-1.2311,-1.2192,-1.1977,-1.1569,-1.1107,-1.0684,-1.038,-0.9867,-0.9473,-0.9282,-0.9556,-0.9736,-0.9763,-1.0141,-1.0459,-1.0674,-1.1094,-1.1567,-1.1982,-1.1298,-1.0691,-1.0691,-0.9779,-0.8741,-0.7762,-0.6665,-0.5575,-0.4337,-0.3502,-0.2713,-0.2051,-0.165,-0.1424,-0.1202,-0.1022,-0.0749,-0.0474,-0.0338,-0.0361,-0.0233,0.0261,0.0783,0.1284,0.1761,0.2498,0.3061,0.3588,0.3978,0.4363,0.4779,0.5194,0.5599,0.6002,0.6462,0.7196,0.7602,0.8104,0.8794,0.9717,1.0523,1.1541,1.2877,1.4009,1.5264,1.5773,1.5922,-1.1947,-1.2033,-1.206,-1.2133,-1.2316,-1.249,-1.2708,-1.2934,-1.3026,-1.3175,-1.3328,-1.3428,-1.3676,-1.4125,-1.4716,-1.5773,-1.6926,-1.6753,-1.7131,-1.7933,-1.8035,-1.8081,-1.8197,-1.8278,-1.8369,-1.841,-1.8484,-1.8482,-1.8452,-1.8327,-1.8226,-1.8132,-1.8031,-1.7844,-1.7589,-1.7288,-1.6901,-1.6448,-1.6006,-1.5536,-1.5053,-1.4897,-1.4527,-1.3981,-1.3512,-1.3089,-1.2685,-1.2575,-1.2313,-1.1863,-1.1822,-1.1597,-1.1151,-1.0642,-1.0116,-0.9597,-0.9225,-0.8896,-0.8739,-0.8964,-0.9265,-0.9524,-0.9883,-1.0428,-1.1008,-1.1583,-1.2253,-1.2926,-1.2559,-1.2242,-1.1813,-1.1175,-1.0328,-0.9369,-0.8327,-0.7216,-0.6166,-0.5321,-0.4784,-0.4227,-0.4209,-0.3906,-0.3952,-0.3867,-0.369,-0.3664,-0.3613,-0.3534,-0.35,-0.3123,-0.2453,-0.0825,0.043,0.1858,0.3374,0.4167,0.4622,0.5134,0.5515,0.5906,0.634,0.673,0.7168,0.7808,0.8122,0.8618,0.93,1.007,1.1029,1.2018,1.3373,1.4916,1.603,1.6457,1.6783,-1.2562,-1.2793,-1.2713,-1.2703,-1.2791,-1.2911,-1.3106,-1.3286,-1.341,-1.3547,-1.3689,-1.3801,-1.3927,-1.4053,-1.4535,-1.5228,-1.6149,-1.6823,-1.7587,-1.842,-1.8586,-1.8652,-1.869,-1.8806,-1.8911,-1.8945,-1.8996,-1.8989,-1.8886,-1.8735,-1.8598,-1.8484,-1.8373,-1.8205,-1.7949,-1.7656,-1.732,-1.6943,-1.6514,-1.6026,-1.547,-1.4925,-1.4406,-1.3876,-1.3241,-1.2907,-1.2786,-1.2382,-1.1892,-1.1455,-1.093,-1.0546,-1.0269,-0.9823,-0.9249,-0.861,-0.8346,-0.8284,-0.8306,-0.8618,-0.9069,-0.9584,-1.0229,-1.0836,-1.1659,-1.2401,-1.3181,-1.3825,-1.4434,-1.4417,-1.3773,-1.3084,-1.2357,-1.1554,-1.0594,-0.9648,-0.8789,-0.8303,-0.7871,-0.7585,-0.7528,-0.7492,-0.765,-0.7603,-0.743,-0.7497,-0.7685,-0.7535,-0.7242,-0.7608,-0.6113,-0.3416,-0.1546,-0.0099,0.3114,0.4581,0.5194,0.5762,0.624,0.6631,0.708,0.7501,0.7959,0.8401,0.8821,0.933,0.9913,1.0771,1.184,1.2975,1.4293,1.5646,1.6759,1.7254,1.7547,-1.2989,-1.31,-1.3096,-1.3116,-1.3202,-1.3336,-1.3516,-1.3689,-1.3795,-1.3906,-1.4019,-1.4132,-1.4197,-1.4277,-1.4521,-1.5494,-1.6863,-1.6924,-1.7612,-1.8821,-1.8998,-1.9055,-1.915,-1.9185,-1.93,-1.9439,-1.9439,-1.9381,-1.9283,-1.9153,-1.903,-1.8937,-1.8762,-1.8589,-1.8386,-1.813,-1.7833,-1.7451,-1.706,-1.6662,-1.6212,-1.5534,-1.4935,-1.4365,-1.3283,-1.2527,-1.2196,-1.1846,-1.1436,-1.0964,-1.0661,-1.0314,-0.993,-0.9097,-0.8486,-0.8145,-0.8046,-0.8158,-0.8504,-0.899,-0.9609,-1.0321,-1.1042,-1.1905,-1.2778,-1.3688,-1.4545,-1.5299,-1.5999,-1.6257,-1.6111,-1.5247,-1.4323,-1.3801,-1.3125,-1.2422,-1.1844,-1.1376,-1.1046,-1.0761,-1.054,-1.0318,-1.0105,-1.0017,-0.9929,-0.9891,-0.9717,-0.9354,-0.868,-0.8257,-0.715,-0.4569,-0.1875,0.066,0.2426,0.4587,0.5813,0.6449,0.6995,0.7384,0.7835,0.8233,0.8684,0.9138,0.9554,1.0106,1.0705,1.1424,1.2556,1.4064,1.5362,1.619,1.7445,1.7877,1.8127,-1.3444,-1.3418,-1.3467,-1.3537,-1.3598,-1.3712,-1.3876,-1.4024,-1.4127,-1.4227,-1.4323,-1.44,-1.4467,-1.4537,-1.4644,-1.5512,-1.6948,-1.689,-1.7724,-1.9237,-1.9356,-1.941,-1.9522,-1.9544,-1.9648,-1.9755,-1.9746,-1.9688,-1.9619,-1.9526,-1.9429,-1.9319,-1.9161,-1.8992,-1.8806,-1.8609,-1.8336,-1.8009,-1.7693,-1.73,-1.688,-1.6289,-1.5677,-1.5027,-1.3912,-1.2885,-1.2066,-1.167,-1.1175,-1.0656,-1.0405,-1.0117,-0.9517,-0.8751,-0.8269,-0.8187,-0.8271,-0.8578,-0.9195,-0.9871,-1.0651,-1.1503,-1.2408,-1.335,-1.4331,-1.5219,-1.6035,-1.6756,-1.7327,-1.7778,-1.7753,-1.7016,-1.6223,-1.577,-1.5267,-1.4754,-1.4208,-1.3745,-1.3238,-1.2712,-1.2353,-1.2125,-1.1935,-1.1823,-1.1751,-1.1701,-1.1531,-1.1119,-1.0401,-0.9791,-0.8052,-0.541,-0.2131,0.0936,0.3627,0.6089,0.6922,0.7492,0.768,0.8083,0.8551,0.8952,0.9415,0.9869,1.0365,1.0922,1.154,1.2199,1.3445,1.4975,1.5774,1.6484,1.7516,1.8442,1.8636,-1.3896,-1.3904,-1.3904,-1.3938,-1.4015,-1.4078,-1.4181,-1.4326,-1.4458,-1.4515,-1.4608,-1.466,-1.4728,-1.4794,-1.4868,-1.5376,-1.6223,-1.6767,-1.7869,-1.9378,-1.9632,-1.9726,-1.979,-1.9866,-1.9932,-1.9993,-1.9945,-1.9926,-1.99,-1.9839,-1.9731,-1.9604,-1.9541,-1.9388,-1.9204,-1.907,-1.8883,-1.86,-1.8338,-1.799,-1.753,-1.711,-1.6594,-1.5929,-1.5177,-1.4133,-1.2672,-1.1993,-1.1298,-1.0507,-1.0185,-0.9718,-0.9219,-0.8888,-0.876,-0.8901,-0.904,-0.9524,-1.0323,-1.1187,-1.217,-1.3181,-1.4219,-1.5141,-1.5982,-1.6767,-1.7458,-1.7963,-1.8327,-1.8604,-1.8512,-1.8133,-1.7662,-1.7272,-1.662,-1.6117,-1.5626,-1.52,-1.457,-1.3638,-1.3249,-1.3199,-1.2969,-1.2659,-1.2621,-1.2775,-1.2864,-1.262,-1.1885,-1.151,-1.0149,-0.5823,-0.1608,0.1821,0.5013,0.788,0.8216,0.8535,0.8513,0.8717,0.9251,0.9696,1.0194,1.0661,1.1285,1.183,1.2377,1.3089,1.4042,1.5349,1.6003,1.6924,1.807,1.8999,1.9148,-1.4299,-1.4268,-1.4293,-1.4337,-1.4412,-1.4482,-1.456,-1.4651,-1.4748,-1.4775,-1.4829,-1.487,-1.4912,-1.4938,-1.5006,-1.5493,-1.6302,-1.6574,-1.7472,-1.8845,-1.9634,-1.9924,-1.9965,-2.0049,-2.0139,-2.0096,-1.9574,-1.9624,-2.0084,-2.0101,-2.0039,-1.9955,-1.9877,-1.9785,-1.9673,-1.9542,-1.9355,-1.916,-1.8982,-1.8698,-1.8317,-1.7971,-1.7525,-1.701,-1.6414,-1.5604,-1.4565,-1.3065,-1.1919,-1.1239,-1.0756,-1.0287,-0.9808,-0.9529,-0.9633,-1.0041,-1.0509,-1.1144,-1.2036,-1.3052,-1.4046,-1.5006,-1.5959,-1.678,-1.7457,-1.7941,-1.8333,-1.8615,-1.8652,-1.8536,-1.8215,-1.7748,-1.7378,-1.7464,-1.7125,-1.6511,-1.5734,-1.5106,-1.4406,-1.3634,-1.325,-1.2923,-1.2563,-1.2366,-1.2045,-1.1941,-1.1849,-1.1395,-1.0374,-0.9481,-0.7474,-0.3275,0.006,0.3372,0.6637,0.9116,0.9862,0.9691,0.9459,0.947,0.9926,1.0456,1.0959,1.1547,1.2155,1.2689,1.3227,1.3852,1.4704,1.5715,1.6552,1.7684,1.8976,1.9466,1.9574,-1.4596,-1.4585,-1.4615,-1.4691,-1.4757,-1.4793,-1.4854,-1.4912,-1.4985,-1.5012,-1.5033,-1.5057,-1.5066,-1.5098,-1.5145,-1.5465,-1.6006,-1.6297,-1.7,-1.7943,-1.8803,-1.9209,-1.9256,-1.9314,-1.9584,-1.9769,-1.9341,-1.9525,-2.0284,-2.0289,-2.0254,-2.0207,-2.0161,-2.0096,-2.0042,-1.9936,-1.9799,-1.9639,-1.9513,-1.9332,-1.9054,-1.8781,-1.8412,-1.7989,-1.7529,-1.6937,-1.6171,-1.4774,-1.3454,-1.2406,-1.1656,-1.1243,-1.0994,-1.0988,-1.1176,-1.1708,-1.2331,-1.3097,-1.3986,-1.4989,-1.5893,-1.6672,-1.7423,-1.7993,-1.8409,-1.8662,-1.8679,-1.8518,-1.8166,-1.7714,-1.7099,-1.6358,-1.5967,-1.5706,-1.5919,-1.56,-1.4734,-1.372,-1.277,-1.1895,-1.1372,-1.1005,-1.0572,-1.0308,-1.0071,-0.978,-0.9417,-0.8699,-0.7302,-0.596,-0.3172,-0.0109,0.3468,0.6329,0.8603,1.0233,1.1411,1.1008,1.0421,1.0438,1.0654,1.1188,1.172,1.2426,1.3076,1.3374,1.3867,1.412,1.4764,1.5878,1.7125,1.811,1.9141,1.9727,1.9914,-1.4853,-1.4924,-1.4908,-1.4954,-1.4999,-1.5017,-1.5053,-1.5112,-1.5175,-1.5191,-1.5202,-1.5197,-1.5193,-1.5216,-1.526,-1.5351,-1.5447,-1.6072,-1.6432,-1.6739,-1.7291,-1.7713,-1.8051,-1.8043,-1.8391,-1.9021,-1.906,-1.9492,-2.0159,-2.032,-2.04,-2.0381,-2.0374,-2.0374,-2.0284,-2.0231,-2.0147,-2.0014,-1.9945,-1.979,-1.9601,-1.9491,-1.9253,-1.8852,-1.8503,-1.8058,-1.7432,-1.6741,-1.5513,-1.3675,-1.2861,-1.2651,-1.2778,-1.2965,-1.3272,-1.3751,-1.4435,-1.5175,-1.6007,-1.671,-1.7451,-1.7992,-1.8388,-1.8786,-1.8729,-1.849,-1.8155,-1.7663,-1.7071,-1.6309,-1.5378,-1.4462,-1.3537,-1.2746,-1.341,-1.329,-1.1955,-1.108,-1.0348,-0.9351,-0.8569,-0.802,-0.765,-0.7414,-0.7127,-0.6829,-0.6517,-0.5764,-0.4464,-0.2692,0.0364,0.3577,0.6836,0.9013,1.1184,1.1524,1.2521,1.1981,1.1476,1.1476,1.1518,1.1999,1.2536,1.325,1.3733,1.4062,1.4332,1.4543,1.5339,1.6678,1.769,1.8456,1.9183,1.9884,2.0144,-1.5102,-1.5118,-1.5124,-1.5128,-1.5154,-1.5194,-1.523,-1.5254,-1.527,-1.5274,-1.5274,-1.5282,-1.5292,-1.5354,-1.5367,-1.5383,-1.5458,-1.5623,-1.5724,-1.5744,-1.5896,-1.6784,-1.7504,-1.7277,-1.7474,-1.8211,-1.8387,-1.8742,-1.9521,-2.0177,-2.047,-2.0469,-2.0477,-2.0456,-2.0435,-2.0418,-2.0377,-2.0293,-2.0222,-2.0134,-2.0036,-1.9959,-1.9791,-1.9555,-1.9298,-1.8946,-1.8498,-1.7989,-1.6837,-1.5066,-1.4612,-1.4523,-1.471,-1.4953,-1.5293,-1.578,-1.6426,-1.7041,-1.7609,-1.8137,-1.8614,-1.8854,-1.8758,-1.8743,-1.8378,-1.7846,-1.7174,-1.6363,-1.551,-1.4559,-1.35,-1.2528,-1.1422,-1.0192,-1.0735,-1.0817,-0.9801,-0.9011,-0.8423,-0.7705,-0.7339,-0.6927,-0.6553,-0.6167,-0.5819,-0.5338,-0.4619,-0.3668,-0.2112,0.025,0.3099,0.6564,0.9646,1.166,1.3142,1.3321,1.334,1.2847,1.2561,1.2549,1.2635,1.2871,1.3408,1.4025,1.4189,1.446,1.4653,1.4855,1.6126,1.7245,1.7748,1.8314,1.95,2.0337,2.0323,-1.5261,-1.5238,-1.5271,-1.5257,-1.5247,-1.5285,-1.529,-1.531,-1.5335,-1.5332,-1.534,-1.5346,-1.5362,-1.5411,-1.5409,-1.5409,-1.5409,-1.5411,-1.5425,-1.5427,-1.5459,-1.5984,-1.6557,-1.6307,-1.6601,-1.7431,-1.7793,-1.843,-1.9239,-2.0069,-2.0459,-2.05,-2.0507,-2.051,-2.0503,-2.0508,-2.0466,-2.0424,-2.0382,-2.0318,-2.0288,-2.0245,-2.0156,-2.0,-1.9837,-1.9582,-1.92,-1.8862,-1.7956,-1.6716,-1.633,-1.6345,-1.6469,-1.6752,-1.7087,-1.7462,-1.7972,-1.8354,-1.8629,-1.8909,-1.8971,-1.8836,-1.857,-1.7976,-1.7289,-1.6542,-1.5661,-1.4674,-1.3736,-1.2764,-1.1742,-1.068,-0.9497,-0.8492,-0.8383,-0.8411,-0.8024,-0.7705,-0.722,-0.6719,-0.634,-0.6044,-0.5663,-0.5267,-0.4689,-0.3976,-0.2988,-0.1476,0.03,0.298,0.5886,0.9401,1.163,1.3253,1.4099,1.4279,1.3808,1.3333,1.3375,1.3419,1.3493,1.3642,1.4021,1.4434,1.4626,1.4798,1.4941,1.5257,1.6116,1.6985,1.7501,1.8449,1.9701,2.0426,2.0428,-1.5354,-1.5289,-1.5353,-1.5364,-1.5287,-1.5286,-1.5293,-1.5297,-1.5349,-1.5369,-1.538,-1.5409,-1.54,-1.541,-1.541,-1.541,-1.541,-1.541,-1.5409,-1.5396,-1.539,-1.5554,-1.5609,-1.5613,-1.59,-1.6621,-1.7419,-1.822,-1.9015,-1.9928,-2.0449,-2.0467,-2.047,-2.0474,-2.0457,-2.0474,-2.0472,-2.0453,-2.0393,-2.0359,-2.0351,-2.0337,-2.0301,-2.0234,-2.0115,-1.992,-1.9677,-1.9456,-1.8945,-1.7938,-1.7962,-1.788,-1.7955,-1.8241,-1.8442,-1.8611,-1.8825,-1.8999,-1.9044,-1.89,-1.8685,-1.823,-1.7576,-1.6862,-1.5883,-1.4904,-1.3936,-1.2994,-1.1989,-1.1094,-1.0161,-0.8924,-0.8035,-0.7342,-0.6927,-0.6807,-0.6891,-0.6764,-0.6428,-0.5953,-0.5618,-0.5185,-0.4707,-0.4176,-0.3551,-0.2381,-0.1181,0.0731,0.2935,0.5685,0.8816,1.2276,1.374,1.4522,1.4937,1.511,1.4375,1.377,1.3965,1.4073,1.4108,1.4272,1.4541,1.4794,1.4922,1.5031,1.5142,1.5644,1.6342,1.7161,1.7972,1.8982,1.999,2.0312,2.0438,-1.5323,-1.5227,-1.5289,-1.5289,-1.5231,-1.526,-1.529,-1.5294,-1.5321,-1.5324,-1.5336,-1.5367,-1.5387,-1.5409,-1.5397,-1.5416,-1.5399,-1.5403,-1.5412,-1.5387,-1.5345,-1.532,-1.532,-1.5316,-1.5426,-1.597,-1.7159,-1.7888,-1.8426,-1.9548,-2.0396,-2.0355,-2.034,-2.0346,-2.0332,-2.0344,-2.034,-2.0351,-2.0322,-2.0297,-2.0305,-2.0295,-2.0291,-2.0255,-2.0163,-2.0048,-1.9931,-1.9793,-1.957,-1.9294,-1.9,-1.877,-1.8868,-1.8954,-1.9036,-1.9052,-1.9042,-1.8979,-1.8744,-1.8273,-1.7737,-1.7004,-1.616,-1.5259,-1.4183,-1.32,-1.2264,-1.1384,-1.0487,-0.9656,-0.865,-0.7762,-0.7147,-0.6683,-0.6258,-0.5913,-0.5779,-0.5836,-0.5709,-0.5313,-0.4872,-0.4434,-0.3911,-0.3109,-0.2173,-0.0884,0.0914,0.2873,0.5478,0.8219,1.1187,1.4315,1.4878,1.5424,1.5736,1.5601,1.4663,1.4206,1.4402,1.4578,1.4619,1.4698,1.4884,1.5036,1.518,1.5293,1.5451,1.5945,1.663,1.7543,1.8444,1.9255,1.9948,2.0243,2.0409,-1.5028,-1.4972,-1.5009,-1.5038,-1.5052,-1.5149,-1.5189,-1.5206,-1.524,-1.5274,-1.5309,-1.5342,-1.5339,-1.5352,-1.5358,-1.5354,-1.5345,-1.5342,-1.5349,-1.5334,-1.5295,-1.5255,-1.5231,-1.522,-1.5226,-1.5449,-1.6502,-1.7252,-1.7986,-1.8972,-1.9824,-2.015,-2.0142,-2.0153,-2.0155,-2.0164,-2.0164,-2.0142,-2.0127,-2.0123,-2.0157,-2.0127,-2.008,-2.0044,-1.9968,-1.986,-1.9693,-1.953,-1.9393,-1.9246,-1.8998,-1.8987,-1.9214,-1.9198,-1.9119,-1.8947,-1.8634,-1.8258,-1.7808,-1.7209,-1.6474,-1.5626,-1.4694,-1.3717,-1.2713,-1.172,-1.0861,-1.0108,-0.9354,-0.8541,-0.7576,-0.7024,-0.6605,-0.6139,-0.5707,-0.527,-0.5012,-0.506,-0.5019,-0.4578,-0.4045,-0.3512,-0.2849,-0.2001,-0.0662,0.066,0.268,0.47,0.7357,1.0057,1.2699,1.5018,1.5597,1.6091,1.6462,1.6048,1.4896,1.4607,1.472,1.4875,1.4965,1.5036,1.5131,1.5219,1.5293,1.5683,1.5912,1.6429,1.7054,1.8094,1.8933,1.9502,1.9915,2.0171,2.0286,-1.4584,-1.4587,-1.4597,-1.4691,-1.481,-1.486,-1.4931,-1.5033,-1.5123,-1.517,-1.526,-1.5265,-1.5288,-1.5284,-1.5282,-1.5276,-1.5286,-1.5298,-1.5283,-1.5275,-1.5216,-1.5174,-1.5136,-1.5107,-1.5097,-1.5255,-1.6294,-1.7039,-1.7697,-1.855,-1.9545,-1.9887,-1.9934,-1.9914,-1.9921,-1.992,-1.989,-1.9863,-1.9805,-1.9797,-1.9828,-1.9809,-1.9732,-1.9624,-1.9513,-1.9369,-1.9167,-1.8961,-1.8754,-1.8572,-1.8226,-1.8361,-1.8629,-1.8823,-1.8592,-1.8222,-1.7688,-1.7101,-1.6504,-1.5808,-1.503,-1.4137,-1.3243,-1.2312,-1.1359,-1.052,-0.9769,-0.9067,-0.8366,-0.7641,-0.6911,-0.6435,-0.605,-0.5626,-0.5188,-0.4751,-0.4403,-0.4314,-0.4052,-0.3832,-0.3252,-0.2673,-0.1734,-0.08,0.0706,0.2323,0.4367,0.6542,0.9158,1.1618,1.404,1.5797,1.6447,1.6373,1.6637,1.6232,1.5104,1.5024,1.5099,1.5317,1.5442,1.5592,1.5644,1.5312,1.5406,1.5808,1.6243,1.6676,1.7475,1.8609,1.9268,1.9678,1.9925,2.0104,2.0144,-1.406,-1.4127,-1.411,-1.4222,-1.4393,-1.4418,-1.452,-1.4701,-1.487,-1.4992,-1.5072,-1.5162,-1.5203,-1.5201,-1.5207,-1.5212,-1.5207,-1.5206,-1.521,-1.5195,-1.513,-1.5078,-1.5011,-1.4951,-1.4938,-1.5337,-1.6308,-1.7226,-1.7728,-1.8844,-1.9432,-1.9684,-1.9682,-1.9635,-1.9593,-1.9581,-1.9526,-1.9499,-1.9425,-1.9397,-1.9365,-1.9286,-1.9164,-1.9014,-1.8847,-1.8657,-1.8414,-1.81,-1.7803,-1.7535,-1.713,-1.6844,-1.6822,-1.7195,-1.7229,-1.6962,-1.6346,-1.5725,-1.5159,-1.4321,-1.3526,-1.2742,-1.1909,-1.1074,-1.0239,-0.9438,-0.882,-0.817,-0.7467,-0.6764,-0.6349,-0.5919,-0.5531,-0.5101,-0.4707,-0.4228,-0.3787,-0.3435,-0.3124,-0.29,-0.2409,-0.1693,-0.0667,0.0575,0.2064,0.374,0.5714,0.7885,1.0267,1.2535,1.4731,1.6219,1.7356,1.7005,1.6698,1.6072,1.5352,1.5446,1.5589,1.5958,1.6109,1.6254,1.6185,1.5908,1.5755,1.5956,1.6411,1.6986,1.7769,1.8818,1.9325,1.9754,1.9849,1.9935,1.9953,-1.3398,-1.3508,-1.3576,-1.3728,-1.3867,-1.3921,-1.4095,-1.4345,-1.4544,-1.4719,-1.4847,-1.4948,-1.5026,-1.5042,-1.5079,-1.5088,-1.5088,-1.5098,-1.508,-1.5038,-1.4973,-1.4917,-1.4821,-1.4748,-1.4958,-1.5421,-1.6437,-1.7109,-1.7284,-1.8298,-1.909,-1.9382,-1.9346,-1.9292,-1.9231,-1.9168,-1.912,-1.9063,-1.8959,-1.8863,-1.8794,-1.8654,-1.8429,-1.8222,-1.8015,-1.7783,-1.7474,-1.7129,-1.6734,-1.6328,-1.5871,-1.543,-1.5205,-1.5067,-1.5283,-1.5364,-1.4928,-1.4253,-1.367,-1.2895,-1.2183,-1.1485,-1.0702,-0.9987,-0.9332,-0.8707,-0.8028,-0.7412,-0.6725,-0.609,-0.5707,-0.5318,-0.5014,-0.4663,-0.4226,-0.3744,-0.3304,-0.2908,-0.2413,-0.1963,-0.1338,-0.0534,0.0488,0.1852,0.342,0.5202,0.7076,0.9153,1.1322,1.3207,1.5165,1.6592,1.7648,1.7365,1.7017,1.6609,1.6054,1.6048,1.6171,1.6535,1.6803,1.6966,1.6845,1.6592,1.6491,1.6558,1.7126,1.789,1.8474,1.8932,1.9343,1.9658,1.9703,1.9738,1.9757,-1.2799,-1.2954,-1.3273,-1.3515,-1.365,-1.3627,-1.3841,-1.4122,-1.4207,-1.438,-1.4581,-1.4671,-1.4747,-1.4828,-1.4891,-1.4936,-1.4954,-1.4936,-1.4894,-1.4831,-1.4738,-1.4681,-1.4599,-1.4574,-1.4727,-1.5369,-1.6143,-1.672,-1.7311,-1.8044,-1.8547,-1.885,-1.8921,-1.8851,-1.8807,-1.8644,-1.8635,-1.8542,-1.8411,-1.8268,-1.809,-1.7821,-1.7541,-1.7328,-1.7092,-1.6789,-1.6423,-1.5999,-1.5568,-1.5117,-1.463,-1.4158,-1.3657,-1.3082,-1.3084,-1.3507,-1.3301,-1.2789,-1.2242,-1.1642,-1.0983,-1.0354,-0.9758,-0.9142,-0.8545,-0.7942,-0.7332,-0.6675,-0.6059,-0.5488,-0.5142,-0.4797,-0.4491,-0.4184,-0.3743,-0.3303,-0.2861,-0.2327,-0.1475,-0.0938,-0.0268,0.0623,0.164,0.2861,0.4386,0.6058,0.7899,0.9619,1.1716,1.3336,1.5178,1.6815,1.7721,1.7567,1.7425,1.7474,1.7053,1.6904,1.7004,1.7244,1.7485,1.7684,1.752,1.7429,1.7583,1.7741,1.8283,1.8454,1.8618,1.8886,1.9314,1.9513,1.9495,1.9495,1.9513,-1.256,-1.2765,-1.3443,-1.3915,-1.4088,-1.3864,-1.3947,-1.4161,-1.3909,-1.3944,-1.414,-1.4294,-1.4418,-1.4542,-1.467,-1.4719,-1.4728,-1.4708,-1.4677,-1.4595,-1.4486,-1.4423,-1.4365,-1.4217,-1.469,-1.5329,-1.5937,-1.6714,-1.7455,-1.8181,-1.8503,-1.8561,-1.8427,-1.8321,-1.8226,-1.8056,-1.798,-1.7907,-1.772,-1.747,-1.7181,-1.6946,-1.6696,-1.6394,-1.6065,-1.5689,-1.5367,-1.4884,-1.438,-1.3971,-1.3437,-1.2926,-1.246,-1.1864,-1.1387,-1.1354,-1.1344,-1.1459,-1.0988,-1.0512,-0.9978,-0.9447,-0.891,-0.8476,-0.7855,-0.7147,-0.6529,-0.6226,-0.5547,-0.4918,-0.4526,-0.4226,-0.3921,-0.3658,-0.3306,-0.2907,-0.2506,-0.152,-0.0671,0.0357,0.107,0.1867,0.2748,0.401,0.5351,0.7017,0.8692,1.0374,1.2077,1.3753,1.5382,1.7074,1.8085,1.7997,1.8028,1.8048,1.7935,1.7741,1.7887,1.8001,1.8156,1.8349,1.8447,1.8421,1.8507,1.8322,1.8289,1.8343,1.8517,1.8773,1.9104,1.9214,1.9248,1.9257,1.9273,-1.1786,-1.2229,-1.2788,-1.3159,-1.341,-1.3549,-1.3621,-1.3638,-1.3675,-1.365,-1.3641,-1.3825,-1.4011,-1.4183,-1.4314,-1.4386,-1.4407,-1.4459,-1.4393,-1.4315,-1.4234,-1.4302,-1.4468,-1.448,-1.4795,-1.5672,-1.6129,-1.6639,-1.7458,-1.7928,-1.82,-1.8073,-1.7902,-1.7749,-1.7614,-1.7421,-1.7326,-1.7166,-1.6888,-1.6574,-1.6285,-1.5985,-1.5706,-1.5396,-1.4989,-1.4654,-1.4253,-1.3854,-1.3302,-1.2822,-1.2307,-1.1839,-1.1324,-1.0799,-1.0335,-0.9997,-0.9861,-0.9895,-0.987,-0.9451,-0.9057,-0.8582,-0.8107,-0.761,-0.6982,-0.6346,-0.5933,-0.5883,-0.5116,-0.4443,-0.3909,-0.3609,-0.3435,-0.3173,-0.2864,-0.228,-0.1699,-0.0715,0.0268,0.1338,0.2406,0.3109,0.3849,0.4928,0.6126,0.7538,0.9032,1.056,1.2403,1.4277,1.5868,1.7435,1.8163,1.8555,1.8656,1.8726,1.8659,1.8567,1.8781,1.8871,1.8883,1.8994,1.8831,1.8658,1.8467,1.8307,1.8182,1.8323,1.8528,1.8698,1.886,1.8896,1.894,1.8975,1.8993,-1.085,-1.1446,-1.2152,-1.2601,-1.2809,-1.3225,-1.3366,-1.3324,-1.3568,-1.3497,-1.333,-1.3437,-1.3602,-1.378,-1.3896,-1.4048,-1.4284,-1.4314,-1.4358,-1.4278,-1.4273,-1.4469,-1.463,-1.4719,-1.5176,-1.6409,-1.6005,-1.639,-1.6904,-1.7294,-1.7387,-1.7524,-1.7271,-1.7118,-1.6952,-1.6759,-1.6544,-1.6273,-1.593,-1.5628,-1.5367,-1.5032,-1.4727,-1.4376,-1.4024,-1.3677,-1.3247,-1.2834,-1.2312,-1.1813,-1.1335,-1.0852,-1.0404,-0.9889,-0.9451,-0.9102,-0.8816,-0.8614,-0.8695,-0.85,-0.8181,-0.7769,-0.7273,-0.6768,-0.6181,-0.5626,-0.5376,-0.5489,-0.4672,-0.3869,-0.3248,-0.3031,-0.2993,-0.2772,-0.2461,-0.1699,-0.0939,0.0045,0.1117,0.2275,0.3295,0.417,0.4949,0.5848,0.6942,0.8146,0.9446,1.0827,1.2594,1.4534,1.5833,1.7234,1.8053,1.8565,1.89,1.9045,1.9092,1.9141,1.9354,1.9318,1.9057,1.885,1.8646,1.8494,1.8322,1.8133,1.7925,1.8242,1.8547,1.8557,1.8557,1.8594,1.8622,1.8667,1.8714,-0.9698,-1.0409,-1.1906,-1.266,-1.3014,-1.3057,-1.3293,-1.3537,-1.3572,-1.3458,-1.331,-1.3252,-1.3336,-1.3421,-1.3658,-1.3948,-1.4461,-1.4486,-1.4685,-1.4922,-1.5101,-1.4891,-1.4877,-1.4894,-1.5074,-1.5759,-1.5756,-1.5959,-1.6203,-1.6243,-1.6499,-1.6755,-1.6575,-1.6424,-1.6212,-1.594,-1.5614,-1.5308,-1.4957,-1.472,-1.4435,-1.4122,-1.3789,-1.345,-1.3082,-1.2713,-1.2306,-1.1861,-1.1414,-1.0948,-1.0442,-1.0021,-0.9553,-0.9075,-0.8675,-0.83,-0.7979,-0.7727,-0.7599,-0.769,-0.7527,-0.7059,-0.6504,-0.5996,-0.5577,-0.5104,-0.4944,-0.4914,-0.419,-0.3382,-0.285,-0.2542,-0.264,-0.2237,-0.1789,-0.0983,-0.0134,0.0805,0.1922,0.3171,0.4054,0.4705,0.5478,0.624,0.712,0.8244,0.9778,1.1159,1.2627,1.4405,1.55,1.6717,1.7701,1.8358,1.8863,1.9007,1.9022,1.898,1.9062,1.8952,1.8735,1.856,1.8313,1.8111,1.7898,1.7791,1.7718,1.7863,1.8018,1.8191,1.8261,1.827,1.8319,1.8377,1.8406,-0.8792,-0.9116,-1.0065,-1.1052,-1.2021,-1.24,-1.2645,-1.2793,-1.3085,-1.3302,-1.3375,-1.3503,-1.3693,-1.3817,-1.3966,-1.4165,-1.4532,-1.4841,-1.4843,-1.4712,-1.4658,-1.4797,-1.4845,-1.4964,-1.5086,-1.5545,-1.555,-1.5465,-1.5578,-1.5411,-1.5301,-1.5477,-1.5622,-1.5637,-1.5426,-1.5062,-1.4658,-1.4319,-1.4044,-1.3795,-1.3517,-1.3197,-1.2859,-1.2585,-1.2223,-1.183,-1.1394,-1.0981,-1.0567,-1.0099,-0.9588,-0.9195,-0.8801,-0.8361,-0.7942,-0.7599,-0.7276,-0.694,-0.6725,-0.6813,-0.6768,-0.617,-0.565,-0.5262,-0.4968,-0.4537,-0.4416,-0.4198,-0.3748,-0.2941,-0.2274,-0.2236,-0.2287,-0.1746,-0.1074,-0.0268,0.0626,0.1566,0.2324,0.3437,0.4184,0.4881,0.5647,0.6456,0.7377,0.837,0.9934,1.1461,1.2836,1.4048,1.5125,1.6099,1.7082,1.7898,1.8427,1.8681,1.8899,1.8831,1.8744,1.8525,1.8301,1.8052,1.7805,1.7616,1.7461,1.7336,1.7296,1.7351,1.7516,1.7752,1.7893,1.7954,1.8005,1.8078,1.8121,-0.7874,-0.7957,-0.8444,-0.9464,-1.0804,-1.1492,-1.1849,-1.2043,-1.2627,-1.3075,-1.3327,-1.3498,-1.365,-1.3832,-1.3924,-1.4174,-1.4385,-1.4651,-1.4685,-1.4692,-1.4708,-1.4781,-1.4907,-1.4969,-1.5005,-1.533,-1.524,-1.5052,-1.4871,-1.4669,-1.4474,-1.441,-1.448,-1.4498,-1.4606,-1.4141,-1.3683,-1.3368,-1.3135,-1.2894,-1.2643,-1.2294,-1.1982,-1.1732,-1.1399,-1.0976,-1.0601,-1.022,-0.9829,-0.935,-0.891,-0.8472,-0.8073,-0.7708,-0.7276,-0.6933,-0.6598,-0.6304,-0.6136,-0.6004,-0.5956,-0.5402,-0.4964,-0.4659,-0.4355,-0.3968,-0.3842,-0.398,-0.3304,-0.2499,-0.1787,-0.1792,-0.1613,-0.103,-0.0358,0.0403,0.1296,0.2192,0.2857,0.3612,0.4312,0.5099,0.595,0.6839,0.7871,0.8816,0.9992,1.1297,1.2407,1.3571,1.4547,1.5524,1.6451,1.7202,1.7877,1.8128,1.8344,1.8334,1.8214,1.8005,1.7779,1.7541,1.7337,1.715,1.7027,1.6901,1.6876,1.6918,1.715,1.7408,1.7517,1.7625,1.771,1.7786,1.7839,-0.6849,-0.7066,-0.7391,-0.8321,-0.96,-1.0282,-1.093,-1.1534,-1.2265,-1.2788,-1.3098,-1.2909,-1.2914,-1.314,-1.3363,-1.3694,-1.4073,-1.4231,-1.4399,-1.4681,-1.4659,-1.488,-1.49,-1.4793,-1.4607,-1.4644,-1.4512,-1.4296,-1.411,-1.3868,-1.3609,-1.3327,-1.3247,-1.3321,-1.3789,-1.3334,-1.2859,-1.2532,-1.2282,-1.206,-1.1799,-1.1468,-1.1175,-1.0911,-1.0649,-1.0259,-0.9825,-0.9469,-0.9075,-0.8667,-0.8218,-0.7818,-0.7454,-0.6982,-0.6592,-0.6331,-0.5924,-0.5672,-0.5491,-0.5275,-0.5014,-0.4753,-0.4401,-0.4092,-0.3878,-0.3529,-0.3262,-0.3399,-0.2817,-0.2101,-0.1611,-0.121,-0.0851,-0.0313,0.0358,0.1029,0.1924,0.2637,0.3214,0.3831,0.4574,0.5359,0.6252,0.7179,0.8329,0.9341,1.0288,1.1234,1.2109,1.3029,1.4023,1.4914,1.5829,1.6584,1.7245,1.7583,1.7788,1.7766,1.7667,1.7461,1.7271,1.7043,1.6858,1.6693,1.6588,1.6501,1.6482,1.649,1.6738,1.701,1.7199,1.7312,1.7408,1.7496,1.7574,-0.601,-0.6184,-0.6477,-0.7049,-0.7855,-0.9031,-0.99,-1.0718,-1.1639,-1.2348,-1.2706,-1.2793,-1.3,-1.3177,-1.3243,-1.3423,-1.3646,-1.3841,-1.4085,-1.4183,-1.4192,-1.4212,-1.4207,-1.4149,-1.4052,-1.3881,-1.3722,-1.3515,-1.3304,-1.3045,-1.2795,-1.2514,-1.2134,-1.2145,-1.2395,-1.2259,-1.2024,-1.1695,-1.1473,-1.125,-1.0986,-1.0725,-1.0457,-1.0176,-0.9908,-0.9558,-0.9115,-0.8752,-0.8378,-0.7931,-0.7523,-0.7154,-0.6774,-0.634,-0.5956,-0.565,-0.5272,-0.4891,-0.4537,-0.4186,-0.4096,-0.401,-0.3878,-0.3568,-0.3393,-0.2993,-0.2861,-0.2728,-0.2281,-0.1656,-0.1075,-0.0806,-0.0403,0.0268,0.094,0.1611,0.2373,0.2905,0.3481,0.4092,0.4792,0.5744,0.6647,0.7318,0.839,0.9115,0.9981,1.0797,1.1647,1.2531,1.3491,1.4362,1.5228,1.5965,1.6596,1.6961,1.7175,1.7183,1.7069,1.691,1.6722,1.6538,1.6413,1.6258,1.6191,1.6123,1.6179,1.6226,1.6375,1.6573,1.6791,1.7019,1.7134,1.7232,1.7314,-0.5145,-0.5236,-0.5618,-0.5996,-0.654,-0.7871,-0.9009,-0.9958,-1.0912,-1.1546,-1.1942,-1.2212,-1.2436,-1.2669,-1.2832,-1.2982,-1.3029,-1.3138,-1.3213,-1.3287,-1.3247,-1.33,-1.3319,-1.3291,-1.3182,-1.3051,-1.29,-1.269,-1.2532,-1.2204,-1.1867,-1.1494,-1.1089,-1.0998,-1.1111,-1.1153,-1.1207,-1.0873,-1.0639,-1.048,-1.0259,-1.0035,-0.9755,-0.9469,-0.9155,-0.889,-0.8398,-0.8017,-0.7634,-0.7227,-0.6813,-0.6431,-0.6084,-0.5701,-0.5272,-0.4966,-0.457,-0.414,-0.37,-0.3393,-0.3347,-0.3345,-0.3173,-0.3038,-0.2904,-0.2551,-0.2327,-0.2103,-0.1746,-0.1164,-0.0582,-0.0358,0.0134,0.0851,0.1431,0.2103,0.2639,0.3171,0.3744,0.4355,0.505,0.6002,0.6907,0.7621,0.8328,0.8967,0.9597,1.037,1.1175,1.2062,1.2904,1.3782,1.4596,1.5352,1.5948,1.6363,1.6523,1.6575,1.6477,1.6351,1.6153,1.5978,1.5917,1.5847,1.5747,1.5726,1.587,1.5975,1.6108,1.6274,1.6429,1.6633,1.6833,1.6984,1.7058,-0.4274,-0.4362,-0.4794,-0.5181,-0.5698,-0.6923,-0.8207,-0.943,-0.9953,-1.0451,-1.0928,-1.1025,-1.1281,-1.1588,-1.1662,-1.1813,-1.2073,-1.2115,-1.2223,-1.2259,-1.2277,-1.2372,-1.2413,-1.2378,-1.2342,-1.224,-1.2054,-1.1856,-1.1695,-1.1308,-1.0895,-1.049,-1.0191,-0.9981,-0.9972,-1.0089,-1.0215,-1.0064,-0.9903,-0.9737,-0.9544,-0.9284,-0.8999,-0.8716,-0.848,-0.8115,-0.7701,-0.7318,-0.6972,-0.6589,-0.6209,-0.5733,-0.5308,-0.4927,-0.4626,-0.4228,-0.3781,-0.3386,-0.3034,-0.2771,-0.2594,-0.2593,-0.246,-0.246,-0.2372,-0.2151,-0.1882,-0.1567,-0.1209,-0.0671,-0.0134,0.0268,0.0671,0.1297,0.1877,0.2413,0.2947,0.3478,0.4007,0.4618,0.5226,0.6047,0.6862,0.7579,0.8122,0.8598,0.9191,0.9781,1.0585,1.1536,1.2378,1.3166,1.3985,1.4724,1.5271,1.5724,1.5902,1.5971,1.5902,1.5767,1.5594,1.5448,1.5396,1.5359,1.5284,1.5321,1.5529,1.5704,1.5848,1.6011,1.6143,1.6355,1.6573,1.6704,1.6805,-0.37,-0.3829,-0.422,-0.4526,-0.5007,-0.6087,-0.7217,-0.8277,-0.892,-0.9403,-0.9665,-0.9919,-1.0152,-1.034,-1.0542,-1.07,-1.0857,-1.1014,-1.1159,-1.1271,-1.134,-1.1488,-1.1531,-1.1536,-1.151,-1.1436,-1.1244,-1.1014,-1.0829,-1.0442,-1.005,-0.9632,-0.9368,-0.9083,-0.8963,-0.8963,-0.9164,-0.9279,-0.9151,-0.8986,-0.878,-0.8508,-0.8226,-0.7987,-0.7776,-0.7409,-0.6979,-0.6641,-0.6252,-0.5736,-0.5354,-0.4923,-0.4478,-0.418,-0.3831,-0.3342,-0.2988,-0.2679,-0.2367,-0.2193,-0.2017,-0.1926,-0.1791,-0.1835,-0.1881,-0.1748,-0.1479,-0.1075,-0.0716,-0.0179,0.0313,0.0716,0.1119,0.1655,0.219,0.2635,0.3168,0.3656,0.4184,0.4838,0.5448,0.6047,0.6862,0.7328,0.7825,0.8267,0.8784,0.9381,1.004,1.0998,1.1813,1.2613,1.3376,1.4141,1.462,1.5075,1.524,1.5344,1.5315,1.5262,1.5111,1.4996,1.4935,1.4942,1.4949,1.5079,1.5268,1.5448,1.5617,1.577,1.5926,1.6108,1.6293,1.6448,1.6581,-0.3129,-0.3255,-0.3609,-0.4005,-0.4528,-0.5356,-0.6158,-0.6865,-0.7792,-0.8333,-0.8557,-0.8848,-0.9057,-0.9253,-0.95,-0.9663,-0.9776,-1.0011,-1.0205,-1.0326,-1.0437,-1.0547,-1.0629,-1.0629,-1.0591,-1.0519,-1.0413,-1.022,-1.0025,-0.9628,-0.9195,-0.8922,-0.8651,-0.8402,-0.8234,-0.8111,-0.8103,-0.8304,-0.8341,-0.8226,-0.8017,-0.7769,-0.7482,-0.715,-0.6937,-0.6592,-0.6164,-0.5827,-0.5399,-0.492,-0.4535,-0.4136,-0.3647,-0.3296,-0.2946,-0.2502,-0.228,-0.2103,-0.1969,-0.1745,-0.1613,-0.1434,-0.121,-0.1075,-0.1121,-0.1077,-0.0851,-0.0582,-0.0179,0.0269,0.0672,0.112,0.1522,0.1968,0.2413,0.2858,0.3347,0.3792,0.4405,0.506,0.5663,0.6218,0.6732,0.7115,0.7576,0.8062,0.8549,0.903,0.9697,1.0509,1.1266,1.2025,1.2765,1.3496,1.3973,1.4413,1.4634,1.4759,1.4842,1.4756,1.462,1.4588,1.4574,1.4631,1.4686,1.4849,1.5011,1.5231,1.5411,1.5558,1.5712,1.5906,1.6088,1.6219,1.6375,-0.2642,-0.2639,-0.3037,-0.352,-0.4092,-0.4703,-0.5007,-0.5183,-0.655,-0.7314,-0.7551,-0.7803,-0.8005,-0.8203,-0.8504,-0.8703,-0.8865,-0.9066,-0.9266,-0.9403,-0.9505,-0.9614,-0.9697,-0.9579,-0.9658,-0.9623,-0.9509,-0.935,-0.9231,-0.8873,-0.8513,-0.8283,-0.7912,-0.7659,-0.753,-0.7276,-0.7185,-0.714,-0.7262,-0.7266,-0.7234,-0.7024,-0.668,-0.6252,-0.5947,-0.5688,-0.5265,-0.4881,-0.4539,-0.4184,-0.3743,-0.3298,-0.29,-0.241,-0.2058,-0.179,-0.1612,-0.1479,-0.1389,-0.1255,-0.121,-0.1031,-0.0806,-0.0493,-0.0404,-0.0538,-0.0403,0.0,0.0403,0.0717,0.112,0.1478,0.1881,0.2237,0.2592,0.3036,0.348,0.4012,0.4624,0.519,0.5663,0.6179,0.6568,0.6953,0.7367,0.7859,0.8263,0.8707,0.9306,1.005,1.0738,1.1451,1.2175,1.2888,1.3427,1.3828,1.4065,1.4202,1.4312,1.428,1.4183,1.4196,1.421,1.4293,1.4408,1.4592,1.4749,1.4973,1.5201,1.5388,1.5544,1.5719,1.5885,1.6039,1.6199,-0.2239,-0.2323,-0.2858,-0.3257,-0.3612,-0.4012,-0.4316,-0.4532,-0.5005,-0.573,-0.6374,-0.6803,-0.7063,-0.7182,-0.752,-0.7765,-0.7852,-0.8174,-0.83,-0.8427,-0.8545,-0.8744,-0.8873,-0.8744,-0.8752,-0.8788,-0.8707,-0.8464,-0.8304,-0.8066,-0.7852,-0.7619,-0.7262,-0.7024,-0.6807,-0.6553,-0.6346,-0.6176,-0.6036,-0.6204,-0.6334,-0.6042,-0.5701,-0.5354,-0.5091,-0.4783,-0.4395,-0.4089,-0.3693,-0.3251,-0.2854,-0.2502,-0.2149,-0.1746,-0.1388,-0.1075,-0.094,-0.0806,-0.0673,-0.0583,-0.0493,-0.0314,-0.009,0.0135,0.018,-0.0,0.0134,0.0582,0.094,0.1254,0.1523,0.1883,0.2195,0.2505,0.2814,0.3214,0.3614,0.4228,0.4842,0.5275,0.5663,0.6053,0.6444,0.6826,0.7196,0.7569,0.7893,0.83,0.8833,0.9509,1.0254,1.0971,1.1647,1.2294,1.2842,1.3276,1.3535,1.3749,1.3861,1.3828,1.3782,1.3828,1.3874,1.4013,1.4138,1.4319,1.4536,1.4756,1.4956,1.5178,1.5395,1.5566,1.577,1.5926,1.6067,-0.1971,-0.2058,-0.25,-0.2815,-0.3038,-0.3347,-0.3609,-0.3832,-0.4049,-0.4437,-0.5038,-0.5688,-0.6124,-0.6261,-0.6644,-0.6849,-0.6975,-0.7269,-0.744,-0.7569,-0.7686,-0.7848,-0.7934,-0.7938,-0.7987,-0.8024,-0.7938,-0.7776,-0.753,-0.737,-0.7231,-0.6952,-0.6631,-0.634,-0.6124,-0.5833,-0.5537,-0.5325,-0.4966,-0.4957,-0.5257,-0.5002,-0.4746,-0.4484,-0.4136,-0.3827,-0.3519,-0.3255,-0.3036,-0.2456,-0.1966,-0.1429,-0.1118,-0.085,-0.0582,-0.0358,-0.0179,-0.0134,0.0045,0.0135,0.0269,0.0449,0.0673,0.0853,0.1032,0.0896,0.0896,0.1254,0.1299,0.1524,0.1793,0.2107,0.2418,0.2684,0.2993,0.3347,0.3832,0.4449,0.4888,0.5282,0.5626,0.5964,0.6355,0.6702,0.7076,0.745,0.7776,0.8144,0.8635,0.9079,0.9785,1.0447,1.1126,1.1799,1.2389,1.2785,1.3098,1.3282,1.3438,1.3499,1.352,1.3533,1.358,1.3781,1.398,1.4164,1.4351,1.4574,1.4801,1.5025,1.5238,1.5448,1.5617,1.5812,1.5983,-0.1749,-0.1793,-0.2148,-0.2326,-0.2506,-0.2771,-0.2988,-0.3171,-0.339,-0.3566,-0.3829,-0.4655,-0.5183,-0.5491,-0.579,-0.5953,-0.6204,-0.6468,-0.6647,-0.6781,-0.6979,-0.7095,-0.7185,-0.7241,-0.7286,-0.7286,-0.7199,-0.7066,-0.6891,-0.6732,-0.652,-0.6167,-0.5916,-0.5623,-0.5453,-0.5101,-0.4748,-0.4487,-0.4176,-0.3827,-0.3827,-0.3873,-0.3827,-0.3565,-0.3214,-0.286,-0.2593,-0.237,-0.2285,-0.1746,-0.0984,-0.0537,-0.0089,0.0134,0.0358,0.0582,0.0582,0.0627,0.0627,0.0627,0.0941,0.121,0.1389,0.1524,0.1658,0.1703,0.1703,0.1703,0.1703,0.1838,0.2107,0.2375,0.2641,0.2862,0.3171,0.3524,0.4052,0.4583,0.4891,0.5241,0.5585,0.5881,0.6224,0.6614,0.6995,0.737,0.7742,0.8152,0.8557,0.8963,0.9478,1.0064,1.0639,1.1276,1.192,1.2324,1.2679,1.2902,1.3082,1.3185,1.3295,1.3335,1.3444,1.3681,1.3874,1.4033,1.4254,1.4511,1.4676,1.4902,1.5124,1.5358,1.5551,1.5726,1.5906,-0.1479,-0.1659,-0.1927,-0.2107,-0.2286,-0.2414,-0.2593,-0.2775,-0.2954,-0.3129,-0.3349,-0.3571,-0.4056,-0.4583,-0.5053,-0.5265,-0.5435,-0.5701,-0.5844,-0.5979,-0.6267,-0.6425,-0.651,-0.6608,-0.6623,-0.6578,-0.6568,-0.6389,-0.6343,-0.6096,-0.5836,-0.5647,-0.5348,-0.5017,-0.464,-0.4326,-0.4052,-0.3785,-0.3434,-0.3038,-0.3038,-0.3126,-0.3124,-0.2948,-0.2726,-0.2147,-0.1656,-0.1252,-0.0939,-0.0492,0.0,0.0403,0.0716,0.1029,0.1254,0.1343,0.1343,0.1298,0.1253,0.1209,0.1479,0.1567,0.1702,0.1792,0.1927,0.2103,0.2103,0.2104,0.2149,0.2195,0.2421,0.2642,0.2865,0.3129,0.3391,0.3788,0.423,0.4537,0.4842,0.5195,0.5547,0.5844,0.6142,0.6529,0.6875,0.7209,0.7583,0.7953,0.8328,0.8769,0.9208,0.9711,1.022,1.0835,1.1479,1.1957,1.2282,1.2508,1.2733,1.2908,1.3047,1.3163,1.3335,1.3573,1.3775,1.3974,1.4196,1.4401,1.4637,1.4863,1.5063,1.5275,1.547,1.5697,1.5877]}]]